<?xml version="1.0" encoding="UTF-8" standalone="no" ?>
<gpx xmlns="http://www.topografix.com/GPX/1/1" xmlns:xsi="http://www.w3.org/2001/XMLSchema-instance" xsi:schemaLocation="http://www.topografix.com/GPX/1/1 http://www.topografix.com/GPX/1/1/gpx.xsd" version="1.1" creator="VisuGPX - https://www.visugpx.com">
  <metadata>
    <name>saint macaire</name>
    <desc><![CDATA[saint macaire rando]]></desc>
  </metadata>
  <trk>
    <name><![CDATA[randogps33-325]]></name>
    <desc><![CDATA[Track recorded with MMTracker on Android]]></desc>
    <trkseg>
      <trkpt lat="44.56371" lon="-0.22465">
        <ele>23</ele>
        <time>2015-02-16T10:21:09Z</time>
      </trkpt>
      <trkpt lat="44.56372" lon="-0.22463">
        <ele>23</ele>
        <time>2015-02-16T10:21:39Z</time>
      </trkpt>
      <trkpt lat="44.56367" lon="-0.22454">
        <ele>22</ele>
        <time>2015-02-16T10:21:55Z</time>
      </trkpt>
      <trkpt lat="44.56358" lon="-0.22448">
        <ele>20</ele>
        <time>2015-02-16T10:22:12Z</time>
      </trkpt>
      <trkpt lat="44.5634" lon="-0.2244">
        <ele>20</ele>
        <time>2015-02-16T10:22:29Z</time>
      </trkpt>
      <trkpt lat="44.56331" lon="-0.22437">
        <ele>19</ele>
        <time>2015-02-16T10:22:39Z</time>
      </trkpt>
      <trkpt lat="44.56322" lon="-0.22433">
        <ele>19</ele>
        <time>2015-02-16T10:22:47Z</time>
      </trkpt>
      <trkpt lat="44.56313" lon="-0.22427">
        <ele>19</ele>
        <time>2015-02-16T10:22:53Z</time>
      </trkpt>
      <trkpt lat="44.56303" lon="-0.22423">
        <ele>21</ele>
        <time>2015-02-16T10:23:00Z</time>
      </trkpt>
      <trkpt lat="44.56294" lon="-0.22418">
        <ele>18</ele>
        <time>2015-02-16T10:23:07Z</time>
      </trkpt>
      <trkpt lat="44.56286" lon="-0.22411">
        <ele>19</ele>
        <time>2015-02-16T10:23:13Z</time>
      </trkpt>
      <trkpt lat="44.56285" lon="-0.22396">
        <ele>17</ele>
        <time>2015-02-16T10:23:23Z</time>
      </trkpt>
      <trkpt lat="44.56286" lon="-0.22384">
        <ele>16</ele>
        <time>2015-02-16T10:23:29Z</time>
      </trkpt>
      <trkpt lat="44.56289" lon="-0.22371">
        <ele>15</ele>
        <time>2015-02-16T10:23:36Z</time>
      </trkpt>
      <trkpt lat="44.56294" lon="-0.22358">
        <ele>16</ele>
        <time>2015-02-16T10:23:43Z</time>
      </trkpt>
      <trkpt lat="44.56299" lon="-0.22347">
        <ele>18</ele>
        <time>2015-02-16T10:23:49Z</time>
      </trkpt>
      <trkpt lat="44.56304" lon="-0.22335">
        <ele>19</ele>
        <time>2015-02-16T10:23:56Z</time>
      </trkpt>
      <trkpt lat="44.56311" lon="-0.22323">
        <ele>22</ele>
        <time>2015-02-16T10:24:04Z</time>
      </trkpt>
      <trkpt lat="44.56314" lon="-0.22309">
        <ele>22</ele>
        <time>2015-02-16T10:24:12Z</time>
      </trkpt>
      <trkpt lat="44.56322" lon="-0.22283">
        <ele>22</ele>
        <time>2015-02-16T10:24:26Z</time>
      </trkpt>
      <trkpt lat="44.56323" lon="-0.22269">
        <ele>19</ele>
        <time>2015-02-16T10:24:35Z</time>
      </trkpt>
      <trkpt lat="44.56324" lon="-0.22255">
        <ele>17</ele>
        <time>2015-02-16T10:24:43Z</time>
      </trkpt>
      <trkpt lat="44.56324" lon="-0.22241">
        <ele>15</ele>
        <time>2015-02-16T10:24:51Z</time>
      </trkpt>
      <trkpt lat="44.56323" lon="-0.22227">
        <ele>15</ele>
        <time>2015-02-16T10:24:58Z</time>
      </trkpt>
      <trkpt lat="44.56323" lon="-0.22214">
        <ele>13</ele>
        <time>2015-02-16T10:25:05Z</time>
      </trkpt>
      <trkpt lat="44.56325" lon="-0.22201">
        <ele>13</ele>
        <time>2015-02-16T10:25:12Z</time>
      </trkpt>
      <trkpt lat="44.56328" lon="-0.22183">
        <ele>14</ele>
        <time>2015-02-16T10:25:21Z</time>
      </trkpt>
      <trkpt lat="44.56336" lon="-0.2216">
        <ele>15</ele>
        <time>2015-02-16T10:25:35Z</time>
      </trkpt>
      <trkpt lat="44.56339" lon="-0.22148">
        <ele>15</ele>
        <time>2015-02-16T10:25:42Z</time>
      </trkpt>
      <trkpt lat="44.56343" lon="-0.22136">
        <ele>15</ele>
        <time>2015-02-16T10:25:49Z</time>
      </trkpt>
      <trkpt lat="44.56346" lon="-0.22124">
        <ele>12</ele>
        <time>2015-02-16T10:25:57Z</time>
      </trkpt>
      <trkpt lat="44.5635" lon="-0.22112">
        <ele>12</ele>
        <time>2015-02-16T10:26:05Z</time>
      </trkpt>
      <trkpt lat="44.56355" lon="-0.221">
        <ele>12</ele>
        <time>2015-02-16T10:26:13Z</time>
      </trkpt>
      <trkpt lat="44.56364" lon="-0.22096">
        <ele>14</ele>
        <time>2015-02-16T10:26:33Z</time>
      </trkpt>
      <trkpt lat="44.56363" lon="-0.22094">
        <ele>14</ele>
        <time>2015-02-16T10:27:03Z</time>
      </trkpt>
      <trkpt lat="44.56357" lon="-0.22087">
        <ele>14</ele>
        <time>2015-02-16T10:27:17Z</time>
      </trkpt>
      <trkpt lat="44.56361" lon="-0.22076">
        <ele>13</ele>
        <time>2015-02-16T10:27:25Z</time>
      </trkpt>
      <trkpt lat="44.56367" lon="-0.22065">
        <ele>14</ele>
        <time>2015-02-16T10:27:41Z</time>
      </trkpt>
      <trkpt lat="44.56373" lon="-0.22054">
        <ele>13</ele>
        <time>2015-02-16T10:27:49Z</time>
      </trkpt>
      <trkpt lat="44.56378" lon="-0.22043">
        <ele>10</ele>
        <time>2015-02-16T10:27:57Z</time>
      </trkpt>
      <trkpt lat="44.56387" lon="-0.2202">
        <ele>11</ele>
        <time>2015-02-16T10:28:13Z</time>
      </trkpt>
      <trkpt lat="44.56391" lon="-0.22008">
        <ele>12</ele>
        <time>2015-02-16T10:28:21Z</time>
      </trkpt>
      <trkpt lat="44.56395" lon="-0.21996">
        <ele>12</ele>
        <time>2015-02-16T10:28:29Z</time>
      </trkpt>
      <trkpt lat="44.564" lon="-0.21983">
        <ele>11</ele>
        <time>2015-02-16T10:28:37Z</time>
      </trkpt>
      <trkpt lat="44.56404" lon="-0.2197">
        <ele>12</ele>
        <time>2015-02-16T10:28:44Z</time>
      </trkpt>
      <trkpt lat="44.56403" lon="-0.21957">
        <ele>12</ele>
        <time>2015-02-16T10:28:51Z</time>
      </trkpt>
      <trkpt lat="44.56404" lon="-0.21943">
        <ele>11</ele>
        <time>2015-02-16T10:28:58Z</time>
      </trkpt>
      <trkpt lat="44.56411" lon="-0.21917">
        <ele>11</ele>
        <time>2015-02-16T10:29:12Z</time>
      </trkpt>
      <trkpt lat="44.56414" lon="-0.21904">
        <ele>12</ele>
        <time>2015-02-16T10:29:19Z</time>
      </trkpt>
      <trkpt lat="44.56417" lon="-0.21891">
        <ele>11</ele>
        <time>2015-02-16T10:29:26Z</time>
      </trkpt>
      <trkpt lat="44.56421" lon="-0.21879">
        <ele>13</ele>
        <time>2015-02-16T10:29:37Z</time>
      </trkpt>
      <trkpt lat="44.56424" lon="-0.21867">
        <ele>13</ele>
        <time>2015-02-16T10:29:45Z</time>
      </trkpt>
      <trkpt lat="44.5643" lon="-0.21842">
        <ele>14</ele>
        <time>2015-02-16T10:30:00Z</time>
      </trkpt>
      <trkpt lat="44.56433" lon="-0.21829">
        <ele>13</ele>
        <time>2015-02-16T10:30:07Z</time>
      </trkpt>
      <trkpt lat="44.56434" lon="-0.21816">
        <ele>14</ele>
        <time>2015-02-16T10:30:14Z</time>
      </trkpt>
      <trkpt lat="44.56437" lon="-0.21803">
        <ele>14</ele>
        <time>2015-02-16T10:30:21Z</time>
      </trkpt>
      <trkpt lat="44.56442" lon="-0.21791">
        <ele>14</ele>
        <time>2015-02-16T10:30:29Z</time>
      </trkpt>
      <trkpt lat="44.56444" lon="-0.21778">
        <ele>14</ele>
        <time>2015-02-16T10:30:36Z</time>
      </trkpt>
      <trkpt lat="44.56445" lon="-0.21764">
        <ele>14</ele>
        <time>2015-02-16T10:30:44Z</time>
      </trkpt>
      <trkpt lat="44.56447" lon="-0.2175">
        <ele>14</ele>
        <time>2015-02-16T10:30:52Z</time>
      </trkpt>
      <trkpt lat="44.5645" lon="-0.21738">
        <ele>14</ele>
        <time>2015-02-16T10:31:00Z</time>
      </trkpt>
      <trkpt lat="44.56456" lon="-0.21727">
        <ele>13</ele>
        <time>2015-02-16T10:31:09Z</time>
      </trkpt>
      <trkpt lat="44.56461" lon="-0.21716">
        <ele>12</ele>
        <time>2015-02-16T10:31:17Z</time>
      </trkpt>
      <trkpt lat="44.56465" lon="-0.21704">
        <ele>12</ele>
        <time>2015-02-16T10:31:24Z</time>
      </trkpt>
      <trkpt lat="44.5647" lon="-0.21693">
        <ele>11</ele>
        <time>2015-02-16T10:31:31Z</time>
      </trkpt>
      <trkpt lat="44.56476" lon="-0.21683">
        <ele>11</ele>
        <time>2015-02-16T10:31:38Z</time>
      </trkpt>
      <trkpt lat="44.56481" lon="-0.21672">
        <ele>10</ele>
        <time>2015-02-16T10:31:45Z</time>
      </trkpt>
      <trkpt lat="44.56487" lon="-0.21661">
        <ele>9</ele>
        <time>2015-02-16T10:31:53Z</time>
      </trkpt>
      <trkpt lat="44.56494" lon="-0.21652">
        <ele>5</ele>
        <time>2015-02-16T10:32:00Z</time>
      </trkpt>
      <trkpt lat="44.565" lon="-0.2164">
        <ele>5</ele>
        <time>2015-02-16T10:32:08Z</time>
      </trkpt>
      <trkpt lat="44.56505" lon="-0.21628">
        <ele>6</ele>
        <time>2015-02-16T10:32:15Z</time>
      </trkpt>
      <trkpt lat="44.56509" lon="-0.21616">
        <ele>6</ele>
        <time>2015-02-16T10:32:22Z</time>
      </trkpt>
      <trkpt lat="44.56514" lon="-0.21605">
        <ele>6</ele>
        <time>2015-02-16T10:32:29Z</time>
      </trkpt>
      <trkpt lat="44.56519" lon="-0.21591">
        <ele>6</ele>
        <time>2015-02-16T10:32:38Z</time>
      </trkpt>
      <trkpt lat="44.56522" lon="-0.21578">
        <ele>5</ele>
        <time>2015-02-16T10:32:46Z</time>
      </trkpt>
      <trkpt lat="44.56525" lon="-0.21564">
        <ele>9</ele>
        <time>2015-02-16T10:32:54Z</time>
      </trkpt>
      <trkpt lat="44.56528" lon="-0.21551">
        <ele>7</ele>
        <time>2015-02-16T10:33:02Z</time>
      </trkpt>
      <trkpt lat="44.56532" lon="-0.21539">
        <ele>9</ele>
        <time>2015-02-16T10:33:10Z</time>
      </trkpt>
      <trkpt lat="44.56537" lon="-0.21527">
        <ele>9</ele>
        <time>2015-02-16T10:33:17Z</time>
      </trkpt>
      <trkpt lat="44.56542" lon="-0.21516">
        <ele>6</ele>
        <time>2015-02-16T10:33:24Z</time>
      </trkpt>
      <trkpt lat="44.56547" lon="-0.21504">
        <ele>5</ele>
        <time>2015-02-16T10:33:37Z</time>
      </trkpt>
      <trkpt lat="44.56551" lon="-0.21491">
        <ele>6</ele>
        <time>2015-02-16T10:33:43Z</time>
      </trkpt>
      <trkpt lat="44.56558" lon="-0.2148">
        <ele>4</ele>
        <time>2015-02-16T10:33:50Z</time>
      </trkpt>
      <trkpt lat="44.56563" lon="-0.21468">
        <ele>5</ele>
        <time>2015-02-16T10:33:56Z</time>
      </trkpt>
      <trkpt lat="44.5657" lon="-0.21459">
        <ele>2</ele>
        <time>2015-02-16T10:34:03Z</time>
      </trkpt>
      <trkpt lat="44.56575" lon="-0.21446">
        <ele>2</ele>
        <time>2015-02-16T10:34:11Z</time>
      </trkpt>
      <trkpt lat="44.56578" lon="-0.21434">
        <ele>1</ele>
        <time>2015-02-16T10:34:20Z</time>
      </trkpt>
      <trkpt lat="44.5658" lon="-0.21422">
        <ele>2</ele>
        <time>2015-02-16T10:34:27Z</time>
      </trkpt>
      <trkpt lat="44.56581" lon="-0.21393">
        <ele>11</ele>
        <time>2015-02-16T10:34:40Z</time>
      </trkpt>
      <trkpt lat="44.56582" lon="-0.2138">
        <ele>13</ele>
        <time>2015-02-16T10:34:47Z</time>
      </trkpt>
      <trkpt lat="44.56579" lon="-0.21377">
        <ele>14</ele>
        <time>2015-02-16T10:35:17Z</time>
      </trkpt>
      <trkpt lat="44.56585" lon="-0.21375">
        <ele>12</ele>
        <time>2015-02-16T10:35:41Z</time>
      </trkpt>
      <trkpt lat="44.56589" lon="-0.21363">
        <ele>6</ele>
        <time>2015-02-16T10:35:59Z</time>
      </trkpt>
      <trkpt lat="44.56593" lon="-0.21351">
        <ele>7</ele>
        <time>2015-02-16T10:36:07Z</time>
      </trkpt>
      <trkpt lat="44.56595" lon="-0.21338">
        <ele>5</ele>
        <time>2015-02-16T10:36:14Z</time>
      </trkpt>
      <trkpt lat="44.56599" lon="-0.21327">
        <ele>3</ele>
        <time>2015-02-16T10:36:25Z</time>
      </trkpt>
      <trkpt lat="44.56603" lon="-0.21315">
        <ele>6</ele>
        <time>2015-02-16T10:36:33Z</time>
      </trkpt>
      <trkpt lat="44.56606" lon="-0.21302">
        <ele>6</ele>
        <time>2015-02-16T10:36:42Z</time>
      </trkpt>
      <trkpt lat="44.56608" lon="-0.2129">
        <ele>6</ele>
        <time>2015-02-16T10:36:49Z</time>
      </trkpt>
      <trkpt lat="44.5661" lon="-0.21277">
        <ele>6</ele>
        <time>2015-02-16T10:36:56Z</time>
      </trkpt>
      <trkpt lat="44.56613" lon="-0.21264">
        <ele>6</ele>
        <time>2015-02-16T10:37:03Z</time>
      </trkpt>
      <trkpt lat="44.56615" lon="-0.21248">
        <ele>6</ele>
        <time>2015-02-16T10:37:12Z</time>
      </trkpt>
      <trkpt lat="44.56619" lon="-0.21236">
        <ele>6</ele>
        <time>2015-02-16T10:37:19Z</time>
      </trkpt>
      <trkpt lat="44.56633" lon="-0.21223">
        <ele>6</ele>
        <time>2015-02-16T10:37:32Z</time>
      </trkpt>
      <trkpt lat="44.56642" lon="-0.21217">
        <ele>7</ele>
        <time>2015-02-16T10:37:39Z</time>
      </trkpt>
      <trkpt lat="44.56656" lon="-0.21208">
        <ele>8</ele>
        <time>2015-02-16T10:37:50Z</time>
      </trkpt>
      <trkpt lat="44.56665" lon="-0.21202">
        <ele>10</ele>
        <time>2015-02-16T10:37:57Z</time>
      </trkpt>
      <trkpt lat="44.56678" lon="-0.21194">
        <ele>10</ele>
        <time>2015-02-16T10:38:07Z</time>
      </trkpt>
      <trkpt lat="44.56686" lon="-0.21189">
        <ele>10</ele>
        <time>2015-02-16T10:38:14Z</time>
      </trkpt>
      <trkpt lat="44.567" lon="-0.21179">
        <ele>11</ele>
        <time>2015-02-16T10:38:26Z</time>
      </trkpt>
      <trkpt lat="44.56707" lon="-0.21168">
        <ele>6</ele>
        <time>2015-02-16T10:38:38Z</time>
      </trkpt>
      <trkpt lat="44.56709" lon="-0.21169">
        <ele>6</ele>
        <time>2015-02-16T10:39:08Z</time>
      </trkpt>
      <trkpt lat="44.56708" lon="-0.21169">
        <ele>6</ele>
        <time>2015-02-16T10:39:38Z</time>
      </trkpt>
      <trkpt lat="44.56704" lon="-0.21166">
        <ele>5</ele>
        <time>2015-02-16T10:40:08Z</time>
      </trkpt>
      <trkpt lat="44.56702" lon="-0.21163">
        <ele>6</ele>
        <time>2015-02-16T10:40:10Z</time>
      </trkpt>
      <trkpt lat="44.56697" lon="-0.21152">
        <ele>7</ele>
        <time>2015-02-16T10:40:16Z</time>
      </trkpt>
      <trkpt lat="44.56694" lon="-0.21139">
        <ele>9</ele>
        <time>2015-02-16T10:40:22Z</time>
      </trkpt>
      <trkpt lat="44.56687" lon="-0.21114">
        <ele>10</ele>
        <time>2015-02-16T10:40:37Z</time>
      </trkpt>
      <trkpt lat="44.56683" lon="-0.21102">
        <ele>10</ele>
        <time>2015-02-16T10:40:45Z</time>
      </trkpt>
      <trkpt lat="44.56678" lon="-0.2109">
        <ele>10</ele>
        <time>2015-02-16T10:40:52Z</time>
      </trkpt>
      <trkpt lat="44.56674" lon="-0.21077">
        <ele>12</ele>
        <time>2015-02-16T10:40:59Z</time>
      </trkpt>
      <trkpt lat="44.56672" lon="-0.21063">
        <ele>11</ele>
        <time>2015-02-16T10:41:07Z</time>
      </trkpt>
      <trkpt lat="44.56669" lon="-0.2105">
        <ele>13</ele>
        <time>2015-02-16T10:41:15Z</time>
      </trkpt>
      <trkpt lat="44.56669" lon="-0.21037">
        <ele>12</ele>
        <time>2015-02-16T10:41:23Z</time>
      </trkpt>
      <trkpt lat="44.56665" lon="-0.21026">
        <ele>13</ele>
        <time>2015-02-16T10:41:30Z</time>
      </trkpt>
      <trkpt lat="44.56664" lon="-0.21012">
        <ele>11</ele>
        <time>2015-02-16T10:41:37Z</time>
      </trkpt>
      <trkpt lat="44.56663" lon="-0.20998">
        <ele>10</ele>
        <time>2015-02-16T10:41:45Z</time>
      </trkpt>
      <trkpt lat="44.56662" lon="-0.20985">
        <ele>6</ele>
        <time>2015-02-16T10:41:52Z</time>
      </trkpt>
      <trkpt lat="44.56663" lon="-0.20972">
        <ele>8</ele>
        <time>2015-02-16T10:42:01Z</time>
      </trkpt>
      <trkpt lat="44.56664" lon="-0.20958">
        <ele>10</ele>
        <time>2015-02-16T10:42:08Z</time>
      </trkpt>
      <trkpt lat="44.56666" lon="-0.20946">
        <ele>11</ele>
        <time>2015-02-16T10:42:14Z</time>
      </trkpt>
      <trkpt lat="44.56668" lon="-0.20933">
        <ele>11</ele>
        <time>2015-02-16T10:42:21Z</time>
      </trkpt>
      <trkpt lat="44.56673" lon="-0.20921">
        <ele>10</ele>
        <time>2015-02-16T10:42:29Z</time>
      </trkpt>
      <trkpt lat="44.56676" lon="-0.20909">
        <ele>5</ele>
        <time>2015-02-16T10:42:36Z</time>
      </trkpt>
      <trkpt lat="44.56679" lon="-0.20895">
        <ele>2</ele>
        <time>2015-02-16T10:42:45Z</time>
      </trkpt>
      <trkpt lat="44.56682" lon="-0.20881">
        <ele>3</ele>
        <time>2015-02-16T10:42:52Z</time>
      </trkpt>
      <trkpt lat="44.56683" lon="-0.20868">
        <ele>5</ele>
        <time>2015-02-16T10:42:58Z</time>
      </trkpt>
      <trkpt lat="44.56686" lon="-0.20841">
        <ele>9</ele>
        <time>2015-02-16T10:43:10Z</time>
      </trkpt>
      <trkpt lat="44.56688" lon="-0.20828">
        <ele>10</ele>
        <time>2015-02-16T10:43:16Z</time>
      </trkpt>
      <trkpt lat="44.56689" lon="-0.20814">
        <ele>10</ele>
        <time>2015-02-16T10:43:22Z</time>
      </trkpt>
      <trkpt lat="44.56691" lon="-0.208">
        <ele>9</ele>
        <time>2015-02-16T10:43:29Z</time>
      </trkpt>
      <trkpt lat="44.56694" lon="-0.20788">
        <ele>8</ele>
        <time>2015-02-16T10:43:35Z</time>
      </trkpt>
      <trkpt lat="44.56697" lon="-0.20774">
        <ele>8</ele>
        <time>2015-02-16T10:43:43Z</time>
      </trkpt>
      <trkpt lat="44.56699" lon="-0.2076">
        <ele>9</ele>
        <time>2015-02-16T10:43:51Z</time>
      </trkpt>
      <trkpt lat="44.56699" lon="-0.20746">
        <ele>9</ele>
        <time>2015-02-16T10:43:58Z</time>
      </trkpt>
      <trkpt lat="44.56699" lon="-0.20733">
        <ele>9</ele>
        <time>2015-02-16T10:44:04Z</time>
      </trkpt>
      <trkpt lat="44.56699" lon="-0.20719">
        <ele>7</ele>
        <time>2015-02-16T10:44:10Z</time>
      </trkpt>
      <trkpt lat="44.56701" lon="-0.20706">
        <ele>7</ele>
        <time>2015-02-16T10:44:16Z</time>
      </trkpt>
      <trkpt lat="44.56701" lon="-0.20692">
        <ele>7</ele>
        <time>2015-02-16T10:44:24Z</time>
      </trkpt>
      <trkpt lat="44.56701" lon="-0.20678">
        <ele>7</ele>
        <time>2015-02-16T10:44:32Z</time>
      </trkpt>
      <trkpt lat="44.56703" lon="-0.20665">
        <ele>6</ele>
        <time>2015-02-16T10:44:39Z</time>
      </trkpt>
      <trkpt lat="44.56704" lon="-0.20637">
        <ele>9</ele>
        <time>2015-02-16T10:44:55Z</time>
      </trkpt>
      <trkpt lat="44.56705" lon="-0.20621">
        <ele>7</ele>
        <time>2015-02-16T10:45:05Z</time>
      </trkpt>
      <trkpt lat="44.56705" lon="-0.20608">
        <ele>9</ele>
        <time>2015-02-16T10:45:11Z</time>
      </trkpt>
      <trkpt lat="44.56706" lon="-0.20594">
        <ele>7</ele>
        <time>2015-02-16T10:45:17Z</time>
      </trkpt>
      <trkpt lat="44.56706" lon="-0.20577">
        <ele>9</ele>
        <time>2015-02-16T10:45:25Z</time>
      </trkpt>
      <trkpt lat="44.56707" lon="-0.20563">
        <ele>8</ele>
        <time>2015-02-16T10:45:32Z</time>
      </trkpt>
      <trkpt lat="44.56707" lon="-0.20549">
        <ele>7</ele>
        <time>2015-02-16T10:45:39Z</time>
      </trkpt>
      <trkpt lat="44.56707" lon="-0.20535">
        <ele>8</ele>
        <time>2015-02-16T10:45:46Z</time>
      </trkpt>
      <trkpt lat="44.56707" lon="-0.20522">
        <ele>9</ele>
        <time>2015-02-16T10:45:53Z</time>
      </trkpt>
      <trkpt lat="44.56707" lon="-0.20508">
        <ele>8</ele>
        <time>2015-02-16T10:46:01Z</time>
      </trkpt>
      <trkpt lat="44.56707" lon="-0.20495">
        <ele>7</ele>
        <time>2015-02-16T10:46:08Z</time>
      </trkpt>
      <trkpt lat="44.56706" lon="-0.20481">
        <ele>7</ele>
        <time>2015-02-16T10:46:15Z</time>
      </trkpt>
      <trkpt lat="44.56706" lon="-0.20469">
        <ele>8</ele>
        <time>2015-02-16T10:46:22Z</time>
      </trkpt>
      <trkpt lat="44.56705" lon="-0.20455">
        <ele>10</ele>
        <time>2015-02-16T10:46:29Z</time>
      </trkpt>
      <trkpt lat="44.56705" lon="-0.20442">
        <ele>11</ele>
        <time>2015-02-16T10:46:36Z</time>
      </trkpt>
      <trkpt lat="44.56705" lon="-0.20428">
        <ele>9</ele>
        <time>2015-02-16T10:46:44Z</time>
      </trkpt>
      <trkpt lat="44.56705" lon="-0.20414">
        <ele>7</ele>
        <time>2015-02-16T10:46:52Z</time>
      </trkpt>
      <trkpt lat="44.56706" lon="-0.20401">
        <ele>7</ele>
        <time>2015-02-16T10:46:58Z</time>
      </trkpt>
      <trkpt lat="44.56709" lon="-0.20373">
        <ele>4</ele>
        <time>2015-02-16T10:47:13Z</time>
      </trkpt>
      <trkpt lat="44.5671" lon="-0.20359">
        <ele>5</ele>
        <time>2015-02-16T10:47:20Z</time>
      </trkpt>
      <trkpt lat="44.5671" lon="-0.20346">
        <ele>4</ele>
        <time>2015-02-16T10:47:27Z</time>
      </trkpt>
      <trkpt lat="44.5671" lon="-0.20334">
        <ele>-2</ele>
        <time>2015-02-16T10:47:34Z</time>
      </trkpt>
      <trkpt lat="44.56711" lon="-0.2032">
        <ele>-1</ele>
        <time>2015-02-16T10:47:41Z</time>
      </trkpt>
      <trkpt lat="44.5671" lon="-0.20306">
        <ele>1</ele>
        <time>2015-02-16T10:47:48Z</time>
      </trkpt>
      <trkpt lat="44.5671" lon="-0.20292">
        <ele>9.4</ele>
        <time>2015-02-16T10:47:55Z</time>
      </trkpt>
      <trkpt lat="44.56712" lon="-0.20279">
        <ele>-2</ele>
        <time>2015-02-16T10:48:02Z</time>
      </trkpt>
      <trkpt lat="44.56713" lon="-0.20266">
        <ele>1</ele>
        <time>2015-02-16T10:48:10Z</time>
      </trkpt>
      <trkpt lat="44.56711" lon="-0.20253">
        <ele>9.2</ele>
        <time>2015-02-16T10:48:17Z</time>
      </trkpt>
      <trkpt lat="44.56708" lon="-0.20234">
        <ele>2</ele>
        <time>2015-02-16T10:48:26Z</time>
      </trkpt>
      <trkpt lat="44.56706" lon="-0.2022">
        <ele>1</ele>
        <time>2015-02-16T10:48:32Z</time>
      </trkpt>
      <trkpt lat="44.56705" lon="-0.20204">
        <ele>3</ele>
        <time>2015-02-16T10:48:39Z</time>
      </trkpt>
      <trkpt lat="44.56697" lon="-0.20178">
        <ele>11</ele>
        <time>2015-02-16T10:48:58Z</time>
      </trkpt>
      <trkpt lat="44.56694" lon="-0.20164">
        <ele>13</ele>
        <time>2015-02-16T10:49:06Z</time>
      </trkpt>
      <trkpt lat="44.56697" lon="-0.20137">
        <ele>7</ele>
        <time>2015-02-16T10:49:31Z</time>
      </trkpt>
      <trkpt lat="44.56698" lon="-0.20121">
        <ele>4</ele>
        <time>2015-02-16T10:49:38Z</time>
      </trkpt>
      <trkpt lat="44.567" lon="-0.20107">
        <ele>6</ele>
        <time>2015-02-16T10:49:44Z</time>
      </trkpt>
      <trkpt lat="44.56698" lon="-0.20092">
        <ele>6</ele>
        <time>2015-02-16T10:49:49Z</time>
      </trkpt>
      <trkpt lat="44.56698" lon="-0.20077">
        <ele>8</ele>
        <time>2015-02-16T10:49:54Z</time>
      </trkpt>
      <trkpt lat="44.56697" lon="-0.20064">
        <ele>8</ele>
        <time>2015-02-16T10:49:58Z</time>
      </trkpt>
      <trkpt lat="44.56695" lon="-0.2005">
        <ele>8</ele>
        <time>2015-02-16T10:50:04Z</time>
      </trkpt>
      <trkpt lat="44.56693" lon="-0.20036">
        <ele>8</ele>
        <time>2015-02-16T10:50:10Z</time>
      </trkpt>
      <trkpt lat="44.56691" lon="-0.20018">
        <ele>8</ele>
        <time>2015-02-16T10:50:18Z</time>
      </trkpt>
      <trkpt lat="44.56689" lon="-0.20006">
        <ele>10</ele>
        <time>2015-02-16T10:50:24Z</time>
      </trkpt>
      <trkpt lat="44.56686" lon="-0.1998">
        <ele>10</ele>
        <time>2015-02-16T10:50:36Z</time>
      </trkpt>
      <trkpt lat="44.56685" lon="-0.19967">
        <ele>11</ele>
        <time>2015-02-16T10:50:41Z</time>
      </trkpt>
      <trkpt lat="44.56683" lon="-0.19953">
        <ele>9</ele>
        <time>2015-02-16T10:50:48Z</time>
      </trkpt>
      <trkpt lat="44.56682" lon="-0.19925">
        <ele>3</ele>
        <time>2015-02-16T10:51:04Z</time>
      </trkpt>
      <trkpt lat="44.56684" lon="-0.19912">
        <ele>1</ele>
        <time>2015-02-16T10:51:12Z</time>
      </trkpt>
      <trkpt lat="44.56685" lon="-0.19898">
        <ele>2</ele>
        <time>2015-02-16T10:51:19Z</time>
      </trkpt>
      <trkpt lat="44.56684" lon="-0.19884">
        <ele>1</ele>
        <time>2015-02-16T10:51:26Z</time>
      </trkpt>
      <trkpt lat="44.56684" lon="-0.19871">
        <ele>4</ele>
        <time>2015-02-16T10:51:32Z</time>
      </trkpt>
      <trkpt lat="44.56683" lon="-0.19856">
        <ele>7</ele>
        <time>2015-02-16T10:51:39Z</time>
      </trkpt>
      <trkpt lat="44.56683" lon="-0.19842">
        <ele>8</ele>
        <time>2015-02-16T10:51:46Z</time>
      </trkpt>
      <trkpt lat="44.56685" lon="-0.19828">
        <ele>8</ele>
        <time>2015-02-16T10:51:53Z</time>
      </trkpt>
      <trkpt lat="44.56684" lon="-0.19815">
        <ele>7</ele>
        <time>2015-02-16T10:51:59Z</time>
      </trkpt>
      <trkpt lat="44.56686" lon="-0.19803">
        <ele>5</ele>
        <time>2015-02-16T10:52:06Z</time>
      </trkpt>
      <trkpt lat="44.56687" lon="-0.19789">
        <ele>4</ele>
        <time>2015-02-16T10:52:18Z</time>
      </trkpt>
      <trkpt lat="44.56688" lon="-0.19775">
        <ele>5</ele>
        <time>2015-02-16T10:52:25Z</time>
      </trkpt>
      <trkpt lat="44.56686" lon="-0.19762">
        <ele>8</ele>
        <time>2015-02-16T10:52:52Z</time>
      </trkpt>
      <trkpt lat="44.56676" lon="-0.19763">
        <ele>8</ele>
        <time>2015-02-16T10:53:00Z</time>
      </trkpt>
      <trkpt lat="44.56667" lon="-0.19762">
        <ele>7</ele>
        <time>2015-02-16T10:53:09Z</time>
      </trkpt>
      <trkpt lat="44.56657" lon="-0.19763">
        <ele>8</ele>
        <time>2015-02-16T10:53:16Z</time>
      </trkpt>
      <trkpt lat="44.56648" lon="-0.19761">
        <ele>7</ele>
        <time>2015-02-16T10:53:23Z</time>
      </trkpt>
      <trkpt lat="44.5664" lon="-0.19754">
        <ele>5</ele>
        <time>2015-02-16T10:53:31Z</time>
      </trkpt>
      <trkpt lat="44.56636" lon="-0.19741">
        <ele>2</ele>
        <time>2015-02-16T10:53:38Z</time>
      </trkpt>
      <trkpt lat="44.56636" lon="-0.19727">
        <ele>-1</ele>
        <time>2015-02-16T10:53:45Z</time>
      </trkpt>
      <trkpt lat="44.56634" lon="-0.19715">
        <ele>1</ele>
        <time>2015-02-16T10:53:54Z</time>
      </trkpt>
      <trkpt lat="44.56632" lon="-0.19701">
        <ele>4</ele>
        <time>2015-02-16T10:54:01Z</time>
      </trkpt>
      <trkpt lat="44.56629" lon="-0.19688">
        <ele>4</ele>
        <time>2015-02-16T10:54:08Z</time>
      </trkpt>
      <trkpt lat="44.56629" lon="-0.19675">
        <ele>4</ele>
        <time>2015-02-16T10:54:14Z</time>
      </trkpt>
      <trkpt lat="44.56627" lon="-0.19661">
        <ele>5</ele>
        <time>2015-02-16T10:54:21Z</time>
      </trkpt>
      <trkpt lat="44.56627" lon="-0.19648">
        <ele>5</ele>
        <time>2015-02-16T10:54:28Z</time>
      </trkpt>
      <trkpt lat="44.56629" lon="-0.19634">
        <ele>5</ele>
        <time>2015-02-16T10:54:36Z</time>
      </trkpt>
      <trkpt lat="44.56627" lon="-0.19622">
        <ele>2</ele>
        <time>2015-02-16T10:54:43Z</time>
      </trkpt>
      <trkpt lat="44.56625" lon="-0.19609">
        <ele>3</ele>
        <time>2015-02-16T10:54:50Z</time>
      </trkpt>
      <trkpt lat="44.56626" lon="-0.19595">
        <ele>3</ele>
        <time>2015-02-16T10:54:57Z</time>
      </trkpt>
      <trkpt lat="44.56625" lon="-0.19578">
        <ele>5</ele>
        <time>2015-02-16T10:55:07Z</time>
      </trkpt>
      <trkpt lat="44.56623" lon="-0.19566">
        <ele>6</ele>
        <time>2015-02-16T10:55:14Z</time>
      </trkpt>
      <trkpt lat="44.56622" lon="-0.19552">
        <ele>6</ele>
        <time>2015-02-16T10:55:21Z</time>
      </trkpt>
      <trkpt lat="44.56621" lon="-0.19539">
        <ele>4</ele>
        <time>2015-02-16T10:55:28Z</time>
      </trkpt>
      <trkpt lat="44.56623" lon="-0.19525">
        <ele>5</ele>
        <time>2015-02-16T10:55:36Z</time>
      </trkpt>
      <trkpt lat="44.56622" lon="-0.19497">
        <ele>7</ele>
        <time>2015-02-16T10:55:51Z</time>
      </trkpt>
      <trkpt lat="44.5662" lon="-0.19485">
        <ele>6</ele>
        <time>2015-02-16T10:55:59Z</time>
      </trkpt>
      <trkpt lat="44.5662" lon="-0.19472">
        <ele>4</ele>
        <time>2015-02-16T10:56:06Z</time>
      </trkpt>
      <trkpt lat="44.56621" lon="-0.19459">
        <ele>4</ele>
        <time>2015-02-16T10:56:13Z</time>
      </trkpt>
      <trkpt lat="44.56622" lon="-0.19446">
        <ele>3</ele>
        <time>2015-02-16T10:56:21Z</time>
      </trkpt>
      <trkpt lat="44.56623" lon="-0.19439">
        <ele>4</ele>
        <time>2015-02-16T10:56:51Z</time>
      </trkpt>
      <trkpt lat="44.56624" lon="-0.19434">
        <ele>4</ele>
        <time>2015-02-16T10:57:02Z</time>
      </trkpt>
      <trkpt lat="44.56623" lon="-0.1942">
        <ele>6</ele>
        <time>2015-02-16T10:57:10Z</time>
      </trkpt>
      <trkpt lat="44.56624" lon="-0.19407">
        <ele>7</ele>
        <time>2015-02-16T10:57:17Z</time>
      </trkpt>
      <trkpt lat="44.56628" lon="-0.19395">
        <ele>5</ele>
        <time>2015-02-16T10:57:24Z</time>
      </trkpt>
      <trkpt lat="44.56629" lon="-0.19382">
        <ele>6</ele>
        <time>2015-02-16T10:57:33Z</time>
      </trkpt>
      <trkpt lat="44.56625" lon="-0.19371">
        <ele>6</ele>
        <time>2015-02-16T10:57:41Z</time>
      </trkpt>
      <trkpt lat="44.56622" lon="-0.19358">
        <ele>9</ele>
        <time>2015-02-16T10:57:50Z</time>
      </trkpt>
      <trkpt lat="44.56623" lon="-0.19345">
        <ele>11</ele>
        <time>2015-02-16T10:58:03Z</time>
      </trkpt>
      <trkpt lat="44.56623" lon="-0.19332">
        <ele>10</ele>
        <time>2015-02-16T10:58:12Z</time>
      </trkpt>
      <trkpt lat="44.56623" lon="-0.19326">
        <ele>8</ele>
        <time>2015-02-16T11:00:12Z</time>
      </trkpt>
      <trkpt lat="44.56624" lon="-0.19325">
        <ele>9</ele>
        <time>2015-02-16T11:00:42Z</time>
      </trkpt>
      <trkpt lat="44.56621" lon="-0.19324">
        <ele>12</ele>
        <time>2015-02-16T11:01:12Z</time>
      </trkpt>
      <trkpt lat="44.56625" lon="-0.19295">
        <ele>9</ele>
        <time>2015-02-16T11:01:38Z</time>
      </trkpt>
      <trkpt lat="44.56626" lon="-0.19282">
        <ele>6</ele>
        <time>2015-02-16T11:01:44Z</time>
      </trkpt>
      <trkpt lat="44.56627" lon="-0.19269">
        <ele>6</ele>
        <time>2015-02-16T11:01:50Z</time>
      </trkpt>
      <trkpt lat="44.56628" lon="-0.19255">
        <ele>5</ele>
        <time>2015-02-16T11:01:57Z</time>
      </trkpt>
      <trkpt lat="44.56628" lon="-0.19241">
        <ele>7</ele>
        <time>2015-02-16T11:02:04Z</time>
      </trkpt>
      <trkpt lat="44.5663" lon="-0.19227">
        <ele>5</ele>
        <time>2015-02-16T11:02:12Z</time>
      </trkpt>
      <trkpt lat="44.56633" lon="-0.19214">
        <ele>2</ele>
        <time>2015-02-16T11:02:19Z</time>
      </trkpt>
      <trkpt lat="44.56636" lon="-0.192">
        <ele>-3</ele>
        <time>2015-02-16T11:02:26Z</time>
      </trkpt>
      <trkpt lat="44.56637" lon="-0.19186">
        <ele>-2</ele>
        <time>2015-02-16T11:02:33Z</time>
      </trkpt>
      <trkpt lat="44.56637" lon="-0.19172">
        <ele>-2</ele>
        <time>2015-02-16T11:02:39Z</time>
      </trkpt>
      <trkpt lat="44.56638" lon="-0.19159">
        <ele>-1</ele>
        <time>2015-02-16T11:02:45Z</time>
      </trkpt>
      <trkpt lat="44.56638" lon="-0.19146">
        <ele>-1</ele>
        <time>2015-02-16T11:02:52Z</time>
      </trkpt>
      <trkpt lat="44.5664" lon="-0.19132">
        <ele>10.7</ele>
        <time>2015-02-16T11:02:59Z</time>
      </trkpt>
      <trkpt lat="44.56642" lon="-0.19118">
        <ele>-2</ele>
        <time>2015-02-16T11:03:06Z</time>
      </trkpt>
      <trkpt lat="44.56645" lon="-0.19104">
        <ele>-6</ele>
        <time>2015-02-16T11:03:12Z</time>
      </trkpt>
      <trkpt lat="44.56646" lon="-0.19092">
        <ele>-6</ele>
        <time>2015-02-16T11:03:21Z</time>
      </trkpt>
      <trkpt lat="44.56648" lon="-0.19079">
        <ele>-10</ele>
        <time>2015-02-16T11:03:29Z</time>
      </trkpt>
      <trkpt lat="44.56653" lon="-0.19066">
        <ele>-13</ele>
        <time>2015-02-16T11:03:36Z</time>
      </trkpt>
      <trkpt lat="44.56655" lon="-0.19054">
        <ele>-14</ele>
        <time>2015-02-16T11:03:43Z</time>
      </trkpt>
      <trkpt lat="44.56656" lon="-0.19041">
        <ele>-14</ele>
        <time>2015-02-16T11:03:49Z</time>
      </trkpt>
      <trkpt lat="44.56661" lon="-0.19015">
        <ele>-10</ele>
        <time>2015-02-16T11:04:02Z</time>
      </trkpt>
      <trkpt lat="44.56665" lon="-0.19003">
        <ele>-12</ele>
        <time>2015-02-16T11:04:09Z</time>
      </trkpt>
      <trkpt lat="44.56665" lon="-0.1899">
        <ele>-12</ele>
        <time>2015-02-16T11:04:15Z</time>
      </trkpt>
      <trkpt lat="44.56666" lon="-0.18977">
        <ele>-9</ele>
        <time>2015-02-16T11:04:22Z</time>
      </trkpt>
      <trkpt lat="44.56667" lon="-0.18964">
        <ele>-10</ele>
        <time>2015-02-16T11:04:29Z</time>
      </trkpt>
      <trkpt lat="44.56668" lon="-0.1895">
        <ele>-11</ele>
        <time>2015-02-16T11:04:38Z</time>
      </trkpt>
      <trkpt lat="44.56671" lon="-0.18936">
        <ele>-10</ele>
        <time>2015-02-16T11:04:46Z</time>
      </trkpt>
      <trkpt lat="44.56672" lon="-0.18923">
        <ele>-11</ele>
        <time>2015-02-16T11:04:52Z</time>
      </trkpt>
      <trkpt lat="44.56674" lon="-0.18909">
        <ele>10</ele>
        <time>2015-02-16T11:04:59Z</time>
      </trkpt>
      <trkpt lat="44.56677" lon="-0.18896">
        <ele>-3</ele>
        <time>2015-02-16T11:05:06Z</time>
      </trkpt>
      <trkpt lat="44.56678" lon="-0.18883">
        <ele>-7</ele>
        <time>2015-02-16T11:05:13Z</time>
      </trkpt>
      <trkpt lat="44.5668" lon="-0.1887">
        <ele>-5</ele>
        <time>2015-02-16T11:05:21Z</time>
      </trkpt>
      <trkpt lat="44.56682" lon="-0.18858">
        <ele>-7</ele>
        <time>2015-02-16T11:05:28Z</time>
      </trkpt>
      <trkpt lat="44.56685" lon="-0.18844">
        <ele>-6</ele>
        <time>2015-02-16T11:05:35Z</time>
      </trkpt>
      <trkpt lat="44.56688" lon="-0.18833">
        <ele>-7</ele>
        <time>2015-02-16T11:05:41Z</time>
      </trkpt>
      <trkpt lat="44.56691" lon="-0.18819">
        <ele>-1</ele>
        <time>2015-02-16T11:05:47Z</time>
      </trkpt>
      <trkpt lat="44.56695" lon="-0.18807">
        <ele>-4</ele>
        <time>2015-02-16T11:05:54Z</time>
      </trkpt>
      <trkpt lat="44.56699" lon="-0.18796">
        <ele>-5</ele>
        <time>2015-02-16T11:06:01Z</time>
      </trkpt>
      <trkpt lat="44.56702" lon="-0.18783">
        <ele>-7</ele>
        <time>2015-02-16T11:06:07Z</time>
      </trkpt>
      <trkpt lat="44.56704" lon="-0.1877">
        <ele>-4</ele>
        <time>2015-02-16T11:06:14Z</time>
      </trkpt>
      <trkpt lat="44.56706" lon="-0.18756">
        <ele>-5</ele>
        <time>2015-02-16T11:06:20Z</time>
      </trkpt>
      <trkpt lat="44.56706" lon="-0.18743">
        <ele>-5</ele>
        <time>2015-02-16T11:06:25Z</time>
      </trkpt>
      <trkpt lat="44.56708" lon="-0.1873">
        <ele>-7</ele>
        <time>2015-02-16T11:06:31Z</time>
      </trkpt>
      <trkpt lat="44.56711" lon="-0.18718">
        <ele>-6</ele>
        <time>2015-02-16T11:06:38Z</time>
      </trkpt>
      <trkpt lat="44.56713" lon="-0.18705">
        <ele>-6</ele>
        <time>2015-02-16T11:06:45Z</time>
      </trkpt>
      <trkpt lat="44.56717" lon="-0.18691">
        <ele>-6</ele>
        <time>2015-02-16T11:06:52Z</time>
      </trkpt>
      <trkpt lat="44.56721" lon="-0.18679">
        <ele>-3</ele>
        <time>2015-02-16T11:06:59Z</time>
      </trkpt>
      <trkpt lat="44.56726" lon="-0.18665">
        <ele>-4</ele>
        <time>2015-02-16T11:07:06Z</time>
      </trkpt>
      <trkpt lat="44.56731" lon="-0.18655">
        <ele>-5</ele>
        <time>2015-02-16T11:07:13Z</time>
      </trkpt>
      <trkpt lat="44.56735" lon="-0.18642">
        <ele>2</ele>
        <time>2015-02-16T11:07:20Z</time>
      </trkpt>
      <trkpt lat="44.5674" lon="-0.18631">
        <ele>-2</ele>
        <time>2015-02-16T11:07:28Z</time>
      </trkpt>
      <trkpt lat="44.56745" lon="-0.18619">
        <ele>-2</ele>
        <time>2015-02-16T11:07:36Z</time>
      </trkpt>
      <trkpt lat="44.56751" lon="-0.18608">
        <ele>-2</ele>
        <time>2015-02-16T11:07:44Z</time>
      </trkpt>
      <trkpt lat="44.56756" lon="-0.18596">
        <ele>-6</ele>
        <time>2015-02-16T11:07:52Z</time>
      </trkpt>
      <trkpt lat="44.56762" lon="-0.18586">
        <ele>-8</ele>
        <time>2015-02-16T11:08:00Z</time>
      </trkpt>
      <trkpt lat="44.56764" lon="-0.18573">
        <ele>-6</ele>
        <time>2015-02-16T11:08:08Z</time>
      </trkpt>
      <trkpt lat="44.5677" lon="-0.18547">
        <ele>-1</ele>
        <time>2015-02-16T11:08:27Z</time>
      </trkpt>
      <trkpt lat="44.56771" lon="-0.18534">
        <ele>-4</ele>
        <time>2015-02-16T11:08:34Z</time>
      </trkpt>
      <trkpt lat="44.56773" lon="-0.1852">
        <ele>-2</ele>
        <time>2015-02-16T11:08:40Z</time>
      </trkpt>
      <trkpt lat="44.56775" lon="-0.18508">
        <ele>-1</ele>
        <time>2015-02-16T11:08:47Z</time>
      </trkpt>
      <trkpt lat="44.56776" lon="-0.18495">
        <ele>1</ele>
        <time>2015-02-16T11:08:55Z</time>
      </trkpt>
      <trkpt lat="44.56777" lon="-0.18482">
        <ele>-1</ele>
        <time>2015-02-16T11:09:03Z</time>
      </trkpt>
      <trkpt lat="44.5678" lon="-0.18469">
        <ele>10.6</ele>
        <time>2015-02-16T11:09:10Z</time>
      </trkpt>
      <trkpt lat="44.56784" lon="-0.18456">
        <ele>9.4</ele>
        <time>2015-02-16T11:09:17Z</time>
      </trkpt>
      <trkpt lat="44.56788" lon="-0.18442">
        <ele>1</ele>
        <time>2015-02-16T11:09:24Z</time>
      </trkpt>
      <trkpt lat="44.56791" lon="-0.18428">
        <ele>1</ele>
        <time>2015-02-16T11:09:30Z</time>
      </trkpt>
      <trkpt lat="44.56795" lon="-0.18416">
        <ele>-1</ele>
        <time>2015-02-16T11:09:37Z</time>
      </trkpt>
      <trkpt lat="44.56798" lon="-0.18403">
        <ele>-1</ele>
        <time>2015-02-16T11:09:45Z</time>
      </trkpt>
      <trkpt lat="44.56801" lon="-0.18389">
        <ele>-1</ele>
        <time>2015-02-16T11:09:52Z</time>
      </trkpt>
      <trkpt lat="44.56805" lon="-0.18377">
        <ele>-4</ele>
        <time>2015-02-16T11:09:59Z</time>
      </trkpt>
      <trkpt lat="44.56808" lon="-0.18365">
        <ele>-6</ele>
        <time>2015-02-16T11:10:07Z</time>
      </trkpt>
      <trkpt lat="44.56813" lon="-0.18354">
        <ele>-3</ele>
        <time>2015-02-16T11:10:17Z</time>
      </trkpt>
      <trkpt lat="44.56821" lon="-0.18345">
        <ele>-2</ele>
        <time>2015-02-16T11:10:26Z</time>
      </trkpt>
      <trkpt lat="44.56829" lon="-0.18339">
        <ele>-1</ele>
        <time>2015-02-16T11:10:35Z</time>
      </trkpt>
      <trkpt lat="44.56837" lon="-0.18333">
        <ele>2</ele>
        <time>2015-02-16T11:10:45Z</time>
      </trkpt>
      <trkpt lat="44.56844" lon="-0.18343">
        <ele>7</ele>
        <time>2015-02-16T11:10:56Z</time>
      </trkpt>
      <trkpt lat="44.56848" lon="-0.18356">
        <ele>9</ele>
        <time>2015-02-16T11:11:07Z</time>
      </trkpt>
      <trkpt lat="44.56849" lon="-0.1837">
        <ele>9</ele>
        <time>2015-02-16T11:11:16Z</time>
      </trkpt>
      <trkpt lat="44.56851" lon="-0.18397">
        <ele>9</ele>
        <time>2015-02-16T11:11:31Z</time>
      </trkpt>
      <trkpt lat="44.56852" lon="-0.18424">
        <ele>11</ele>
        <time>2015-02-16T11:11:45Z</time>
      </trkpt>
      <trkpt lat="44.56852" lon="-0.18437">
        <ele>11</ele>
        <time>2015-02-16T11:11:52Z</time>
      </trkpt>
      <trkpt lat="44.56851" lon="-0.18464">
        <ele>10</ele>
        <time>2015-02-16T11:12:07Z</time>
      </trkpt>
      <trkpt lat="44.5685" lon="-0.18477">
        <ele>11</ele>
        <time>2015-02-16T11:12:14Z</time>
      </trkpt>
      <trkpt lat="44.56849" lon="-0.1849">
        <ele>11</ele>
        <time>2015-02-16T11:12:21Z</time>
      </trkpt>
      <trkpt lat="44.56848" lon="-0.18504">
        <ele>11</ele>
        <time>2015-02-16T11:12:29Z</time>
      </trkpt>
      <trkpt lat="44.56847" lon="-0.18517">
        <ele>10</ele>
        <time>2015-02-16T11:12:37Z</time>
      </trkpt>
      <trkpt lat="44.56849" lon="-0.1853">
        <ele>11</ele>
        <time>2015-02-16T11:12:44Z</time>
      </trkpt>
      <trkpt lat="44.56855" lon="-0.1854">
        <ele>10</ele>
        <time>2015-02-16T11:12:51Z</time>
      </trkpt>
      <trkpt lat="44.56865" lon="-0.18544">
        <ele>11</ele>
        <time>2015-02-16T11:12:58Z</time>
      </trkpt>
      <trkpt lat="44.56874" lon="-0.18545">
        <ele>11</ele>
        <time>2015-02-16T11:13:05Z</time>
      </trkpt>
      <trkpt lat="44.56883" lon="-0.18541">
        <ele>10</ele>
        <time>2015-02-16T11:13:26Z</time>
      </trkpt>
      <trkpt lat="44.56893" lon="-0.18541">
        <ele>11</ele>
        <time>2015-02-16T11:13:34Z</time>
      </trkpt>
      <trkpt lat="44.56912" lon="-0.18536">
        <ele>11</ele>
        <time>2015-02-16T11:13:50Z</time>
      </trkpt>
      <trkpt lat="44.56923" lon="-0.18535">
        <ele>11</ele>
        <time>2015-02-16T11:13:58Z</time>
      </trkpt>
      <trkpt lat="44.56933" lon="-0.18535">
        <ele>9</ele>
        <time>2015-02-16T11:14:05Z</time>
      </trkpt>
      <trkpt lat="44.56941" lon="-0.18539">
        <ele>9</ele>
        <time>2015-02-16T11:14:12Z</time>
      </trkpt>
      <trkpt lat="44.56948" lon="-0.1855">
        <ele>9</ele>
        <time>2015-02-16T11:14:19Z</time>
      </trkpt>
      <trkpt lat="44.56955" lon="-0.18557">
        <ele>9</ele>
        <time>2015-02-16T11:14:28Z</time>
      </trkpt>
      <trkpt lat="44.56959" lon="-0.18569">
        <ele>6</ele>
        <time>2015-02-16T11:14:36Z</time>
      </trkpt>
      <trkpt lat="44.56961" lon="-0.18582">
        <ele>8</ele>
        <time>2015-02-16T11:14:42Z</time>
      </trkpt>
      <trkpt lat="44.56961" lon="-0.18595">
        <ele>11</ele>
        <time>2015-02-16T11:14:48Z</time>
      </trkpt>
      <trkpt lat="44.5696" lon="-0.18608">
        <ele>13</ele>
        <time>2015-02-16T11:14:56Z</time>
      </trkpt>
      <trkpt lat="44.5696" lon="-0.18622">
        <ele>10</ele>
        <time>2015-02-16T11:15:04Z</time>
      </trkpt>
      <trkpt lat="44.56962" lon="-0.18636">
        <ele>9</ele>
        <time>2015-02-16T11:15:12Z</time>
      </trkpt>
      <trkpt lat="44.56963" lon="-0.18651">
        <ele>9</ele>
        <time>2015-02-16T11:15:19Z</time>
      </trkpt>
      <trkpt lat="44.56963" lon="-0.18664">
        <ele>8</ele>
        <time>2015-02-16T11:15:26Z</time>
      </trkpt>
      <trkpt lat="44.56962" lon="-0.18678">
        <ele>10</ele>
        <time>2015-02-16T11:15:34Z</time>
      </trkpt>
      <trkpt lat="44.56963" lon="-0.18691">
        <ele>9</ele>
        <time>2015-02-16T11:15:40Z</time>
      </trkpt>
      <trkpt lat="44.56965" lon="-0.18705">
        <ele>9</ele>
        <time>2015-02-16T11:15:47Z</time>
      </trkpt>
      <trkpt lat="44.56967" lon="-0.18719">
        <ele>10</ele>
        <time>2015-02-16T11:15:53Z</time>
      </trkpt>
      <trkpt lat="44.56969" lon="-0.18731">
        <ele>10</ele>
        <time>2015-02-16T11:15:59Z</time>
      </trkpt>
      <trkpt lat="44.56972" lon="-0.18743">
        <ele>12</ele>
        <time>2015-02-16T11:16:05Z</time>
      </trkpt>
      <trkpt lat="44.56975" lon="-0.18757">
        <ele>13</ele>
        <time>2015-02-16T11:16:12Z</time>
      </trkpt>
      <trkpt lat="44.56976" lon="-0.1877">
        <ele>13</ele>
        <time>2015-02-16T11:16:18Z</time>
      </trkpt>
      <trkpt lat="44.56981" lon="-0.18798">
        <ele>14</ele>
        <time>2015-02-16T11:16:33Z</time>
      </trkpt>
      <trkpt lat="44.56981" lon="-0.18812">
        <ele>16</ele>
        <time>2015-02-16T11:16:41Z</time>
      </trkpt>
      <trkpt lat="44.56981" lon="-0.18825">
        <ele>15</ele>
        <time>2015-02-16T11:16:47Z</time>
      </trkpt>
      <trkpt lat="44.56984" lon="-0.18839">
        <ele>16</ele>
        <time>2015-02-16T11:16:55Z</time>
      </trkpt>
      <trkpt lat="44.56988" lon="-0.1885">
        <ele>18</ele>
        <time>2015-02-16T11:17:02Z</time>
      </trkpt>
      <trkpt lat="44.56992" lon="-0.18862">
        <ele>17</ele>
        <time>2015-02-16T11:17:09Z</time>
      </trkpt>
      <trkpt lat="44.56998" lon="-0.18872">
        <ele>18</ele>
        <time>2015-02-16T11:17:17Z</time>
      </trkpt>
      <trkpt lat="44.57012" lon="-0.1889">
        <ele>17</ele>
        <time>2015-02-16T11:17:34Z</time>
      </trkpt>
      <trkpt lat="44.5702" lon="-0.18898">
        <ele>17</ele>
        <time>2015-02-16T11:17:43Z</time>
      </trkpt>
      <trkpt lat="44.57027" lon="-0.18908">
        <ele>19</ele>
        <time>2015-02-16T11:17:51Z</time>
      </trkpt>
      <trkpt lat="44.57033" lon="-0.18919">
        <ele>19</ele>
        <time>2015-02-16T11:17:59Z</time>
      </trkpt>
      <trkpt lat="44.57036" lon="-0.18932">
        <ele>19</ele>
        <time>2015-02-16T11:18:06Z</time>
      </trkpt>
      <trkpt lat="44.5704" lon="-0.18944">
        <ele>20</ele>
        <time>2015-02-16T11:18:14Z</time>
      </trkpt>
      <trkpt lat="44.57043" lon="-0.1897">
        <ele>19</ele>
        <time>2015-02-16T11:18:28Z</time>
      </trkpt>
      <trkpt lat="44.57046" lon="-0.18984">
        <ele>20</ele>
        <time>2015-02-16T11:18:35Z</time>
      </trkpt>
      <trkpt lat="44.5705" lon="-0.18997">
        <ele>20</ele>
        <time>2015-02-16T11:18:42Z</time>
      </trkpt>
      <trkpt lat="44.57055" lon="-0.19008">
        <ele>19</ele>
        <time>2015-02-16T11:18:49Z</time>
      </trkpt>
      <trkpt lat="44.57063" lon="-0.19017">
        <ele>19</ele>
        <time>2015-02-16T11:18:57Z</time>
      </trkpt>
      <trkpt lat="44.57073" lon="-0.19015">
        <ele>20</ele>
        <time>2015-02-16T11:19:05Z</time>
      </trkpt>
      <trkpt lat="44.57082" lon="-0.19011">
        <ele>20</ele>
        <time>2015-02-16T11:19:12Z</time>
      </trkpt>
      <trkpt lat="44.57091" lon="-0.19009">
        <ele>21</ele>
        <time>2015-02-16T11:19:19Z</time>
      </trkpt>
      <trkpt lat="44.571" lon="-0.19017">
        <ele>22</ele>
        <time>2015-02-16T11:19:28Z</time>
      </trkpt>
      <trkpt lat="44.57105" lon="-0.19028">
        <ele>22</ele>
        <time>2015-02-16T11:19:35Z</time>
      </trkpt>
      <trkpt lat="44.57109" lon="-0.19041">
        <ele>22</ele>
        <time>2015-02-16T11:19:42Z</time>
      </trkpt>
      <trkpt lat="44.57112" lon="-0.19055">
        <ele>20</ele>
        <time>2015-02-16T11:19:49Z</time>
      </trkpt>
      <trkpt lat="44.57113" lon="-0.19068">
        <ele>19</ele>
        <time>2015-02-16T11:19:56Z</time>
      </trkpt>
      <trkpt lat="44.57114" lon="-0.19082">
        <ele>18</ele>
        <time>2015-02-16T11:20:04Z</time>
      </trkpt>
      <trkpt lat="44.57117" lon="-0.19095">
        <ele>18</ele>
        <time>2015-02-16T11:20:11Z</time>
      </trkpt>
      <trkpt lat="44.5712" lon="-0.19108">
        <ele>17</ele>
        <time>2015-02-16T11:20:22Z</time>
      </trkpt>
      <trkpt lat="44.57125" lon="-0.19119">
        <ele>15</ele>
        <time>2015-02-16T11:20:31Z</time>
      </trkpt>
      <trkpt lat="44.57134" lon="-0.19124">
        <ele>17</ele>
        <time>2015-02-16T11:20:40Z</time>
      </trkpt>
      <trkpt lat="44.57144" lon="-0.19125">
        <ele>17</ele>
        <time>2015-02-16T11:20:48Z</time>
      </trkpt>
      <trkpt lat="44.57154" lon="-0.19124">
        <ele>17</ele>
        <time>2015-02-16T11:20:56Z</time>
      </trkpt>
      <trkpt lat="44.57162" lon="-0.19129">
        <ele>18</ele>
        <time>2015-02-16T11:21:05Z</time>
      </trkpt>
      <trkpt lat="44.5717" lon="-0.19137">
        <ele>18</ele>
        <time>2015-02-16T11:21:15Z</time>
      </trkpt>
      <trkpt lat="44.5717" lon="-0.19142">
        <ele>17</ele>
        <time>2015-02-16T11:21:45Z</time>
      </trkpt>
      <trkpt lat="44.57171" lon="-0.19132">
        <ele>11</ele>
        <time>2015-02-16T11:22:09Z</time>
      </trkpt>
      <trkpt lat="44.57176" lon="-0.19121">
        <ele>10</ele>
        <time>2015-02-16T11:22:28Z</time>
      </trkpt>
      <trkpt lat="44.57179" lon="-0.19134">
        <ele>12</ele>
        <time>2015-02-16T11:22:53Z</time>
      </trkpt>
      <trkpt lat="44.57188" lon="-0.19131">
        <ele>11</ele>
        <time>2015-02-16T11:23:16Z</time>
      </trkpt>
      <trkpt lat="44.57181" lon="-0.19123">
        <ele>17</ele>
        <time>2015-02-16T11:23:46Z</time>
      </trkpt>
      <trkpt lat="44.57181" lon="-0.19122">
        <ele>18</ele>
        <time>2015-02-16T11:23:47Z</time>
      </trkpt>
      <trkpt lat="44.57196" lon="-0.19107">
        <ele>24</ele>
        <time>2015-02-16T11:24:14Z</time>
      </trkpt>
      <trkpt lat="44.57202" lon="-0.1911">
        <ele>20</ele>
        <time>2015-02-16T11:24:44Z</time>
      </trkpt>
      <trkpt lat="44.57201" lon="-0.1911">
        <ele>20</ele>
        <time>2015-02-16T11:25:14Z</time>
      </trkpt>
      <trkpt lat="44.57191" lon="-0.19107">
        <ele>19</ele>
        <time>2015-02-16T11:25:23Z</time>
      </trkpt>
      <trkpt lat="44.57182" lon="-0.19112">
        <ele>21</ele>
        <time>2015-02-16T11:25:32Z</time>
      </trkpt>
      <trkpt lat="44.5718" lon="-0.19125">
        <ele>21</ele>
        <time>2015-02-16T11:25:42Z</time>
      </trkpt>
      <trkpt lat="44.57183" lon="-0.19138">
        <ele>15</ele>
        <time>2015-02-16T11:25:49Z</time>
      </trkpt>
      <trkpt lat="44.57184" lon="-0.1915">
        <ele>13</ele>
        <time>2015-02-16T11:25:55Z</time>
      </trkpt>
      <trkpt lat="44.57179" lon="-0.19161">
        <ele>10</ele>
        <time>2015-02-16T11:26:04Z</time>
      </trkpt>
      <trkpt lat="44.57182" lon="-0.19167">
        <ele>13</ele>
        <time>2015-02-16T11:26:34Z</time>
      </trkpt>
      <trkpt lat="44.5718" lon="-0.19173">
        <ele>14</ele>
        <time>2015-02-16T11:27:03Z</time>
      </trkpt>
      <trkpt lat="44.5718" lon="-0.19187">
        <ele>10</ele>
        <time>2015-02-16T11:27:11Z</time>
      </trkpt>
      <trkpt lat="44.57183" lon="-0.19189">
        <ele>8</ele>
        <time>2015-02-16T11:27:41Z</time>
      </trkpt>
      <trkpt lat="44.57183" lon="-0.19188">
        <ele>11</ele>
        <time>2015-02-16T11:29:11Z</time>
      </trkpt>
      <trkpt lat="44.57187" lon="-0.19189">
        <ele>13</ele>
        <time>2015-02-16T11:29:31Z</time>
      </trkpt>
      <trkpt lat="44.57197" lon="-0.19185">
        <ele>12</ele>
        <time>2015-02-16T11:29:45Z</time>
      </trkpt>
      <trkpt lat="44.57205" lon="-0.1918">
        <ele>10</ele>
        <time>2015-02-16T11:30:03Z</time>
      </trkpt>
      <trkpt lat="44.57215" lon="-0.19175">
        <ele>16</ele>
        <time>2015-02-16T11:30:09Z</time>
      </trkpt>
      <trkpt lat="44.57224" lon="-0.19173">
        <ele>16</ele>
        <time>2015-02-16T11:30:24Z</time>
      </trkpt>
      <trkpt lat="44.57234" lon="-0.19171">
        <ele>17</ele>
        <time>2015-02-16T11:30:31Z</time>
      </trkpt>
      <trkpt lat="44.57242" lon="-0.19168">
        <ele>18</ele>
        <time>2015-02-16T11:31:01Z</time>
      </trkpt>
      <trkpt lat="44.57243" lon="-0.19168">
        <ele>18</ele>
        <time>2015-02-16T11:31:02Z</time>
      </trkpt>
      <trkpt lat="44.57245" lon="-0.19168">
        <ele>18</ele>
        <time>2015-02-16T11:31:32Z</time>
      </trkpt>
      <trkpt lat="44.57251" lon="-0.19164">
        <ele>16</ele>
        <time>2015-02-16T11:31:38Z</time>
      </trkpt>
      <trkpt lat="44.5726" lon="-0.19159">
        <ele>23</ele>
        <time>2015-02-16T11:31:52Z</time>
      </trkpt>
      <trkpt lat="44.57268" lon="-0.19154">
        <ele>26</ele>
        <time>2015-02-16T11:32:00Z</time>
      </trkpt>
      <trkpt lat="44.57275" lon="-0.19145">
        <ele>23</ele>
        <time>2015-02-16T11:32:20Z</time>
      </trkpt>
      <trkpt lat="44.57274" lon="-0.19132">
        <ele>25</ele>
        <time>2015-02-16T11:32:29Z</time>
      </trkpt>
      <trkpt lat="44.57269" lon="-0.1912">
        <ele>24</ele>
        <time>2015-02-16T11:32:44Z</time>
      </trkpt>
      <trkpt lat="44.57264" lon="-0.19108">
        <ele>24</ele>
        <time>2015-02-16T11:32:55Z</time>
      </trkpt>
      <trkpt lat="44.57262" lon="-0.19095">
        <ele>25</ele>
        <time>2015-02-16T11:33:02Z</time>
      </trkpt>
      <trkpt lat="44.57258" lon="-0.19082">
        <ele>26</ele>
        <time>2015-02-16T11:33:10Z</time>
      </trkpt>
      <trkpt lat="44.57253" lon="-0.1907">
        <ele>26</ele>
        <time>2015-02-16T11:33:18Z</time>
      </trkpt>
      <trkpt lat="44.5725" lon="-0.19057">
        <ele>26</ele>
        <time>2015-02-16T11:33:28Z</time>
      </trkpt>
      <trkpt lat="44.57248" lon="-0.19045">
        <ele>27</ele>
        <time>2015-02-16T11:33:37Z</time>
      </trkpt>
      <trkpt lat="44.57239" lon="-0.19048">
        <ele>23</ele>
        <time>2015-02-16T11:33:49Z</time>
      </trkpt>
      <trkpt lat="44.5723" lon="-0.19046">
        <ele>22</ele>
        <time>2015-02-16T11:33:57Z</time>
      </trkpt>
      <trkpt lat="44.57223" lon="-0.19038">
        <ele>23</ele>
        <time>2015-02-16T11:34:05Z</time>
      </trkpt>
      <trkpt lat="44.57214" lon="-0.19034">
        <ele>23</ele>
        <time>2015-02-16T11:34:15Z</time>
      </trkpt>
      <trkpt lat="44.57204" lon="-0.19035">
        <ele>19</ele>
        <time>2015-02-16T11:34:26Z</time>
      </trkpt>
      <trkpt lat="44.57195" lon="-0.1904">
        <ele>18</ele>
        <time>2015-02-16T11:34:35Z</time>
      </trkpt>
      <trkpt lat="44.57186" lon="-0.19041">
        <ele>17</ele>
        <time>2015-02-16T11:34:44Z</time>
      </trkpt>
      <trkpt lat="44.57196" lon="-0.19039">
        <ele>20</ele>
        <time>2015-02-16T11:34:57Z</time>
      </trkpt>
      <trkpt lat="44.57205" lon="-0.19037">
        <ele>21</ele>
        <time>2015-02-16T11:35:05Z</time>
      </trkpt>
      <trkpt lat="44.57215" lon="-0.19037">
        <ele>21</ele>
        <time>2015-02-16T11:35:14Z</time>
      </trkpt>
      <trkpt lat="44.57223" lon="-0.19041">
        <ele>23</ele>
        <time>2015-02-16T11:35:22Z</time>
      </trkpt>
      <trkpt lat="44.57232" lon="-0.19047">
        <ele>23</ele>
        <time>2015-02-16T11:35:29Z</time>
      </trkpt>
      <trkpt lat="44.57242" lon="-0.19045">
        <ele>25</ele>
        <time>2015-02-16T11:35:37Z</time>
      </trkpt>
      <trkpt lat="44.57251" lon="-0.19046">
        <ele>29</ele>
        <time>2015-02-16T11:35:44Z</time>
      </trkpt>
      <trkpt lat="44.57253" lon="-0.19059">
        <ele>28</ele>
        <time>2015-02-16T11:35:50Z</time>
      </trkpt>
      <trkpt lat="44.57257" lon="-0.19072">
        <ele>27</ele>
        <time>2015-02-16T11:35:57Z</time>
      </trkpt>
      <trkpt lat="44.57261" lon="-0.19084">
        <ele>28</ele>
        <time>2015-02-16T11:36:03Z</time>
      </trkpt>
      <trkpt lat="44.57267" lon="-0.19094">
        <ele>26</ele>
        <time>2015-02-16T11:36:10Z</time>
      </trkpt>
      <trkpt lat="44.5727" lon="-0.19108">
        <ele>28</ele>
        <time>2015-02-16T11:36:20Z</time>
      </trkpt>
      <trkpt lat="44.5728" lon="-0.1911">
        <ele>26</ele>
        <time>2015-02-16T11:36:30Z</time>
      </trkpt>
      <trkpt lat="44.57289" lon="-0.19105">
        <ele>26</ele>
        <time>2015-02-16T11:36:40Z</time>
      </trkpt>
      <trkpt lat="44.57291" lon="-0.19092">
        <ele>24</ele>
        <time>2015-02-16T11:36:50Z</time>
      </trkpt>
      <trkpt lat="44.57289" lon="-0.19078">
        <ele>26</ele>
        <time>2015-02-16T11:36:57Z</time>
      </trkpt>
      <trkpt lat="44.57295" lon="-0.19065">
        <ele>29</ele>
        <time>2015-02-16T11:37:06Z</time>
      </trkpt>
      <trkpt lat="44.57304" lon="-0.19062">
        <ele>27</ele>
        <time>2015-02-16T11:37:15Z</time>
      </trkpt>
      <trkpt lat="44.57313" lon="-0.1906">
        <ele>28</ele>
        <time>2015-02-16T11:37:23Z</time>
      </trkpt>
      <trkpt lat="44.57323" lon="-0.19059">
        <ele>27</ele>
        <time>2015-02-16T11:37:30Z</time>
      </trkpt>
      <trkpt lat="44.57331" lon="-0.19053">
        <ele>30</ele>
        <time>2015-02-16T11:37:37Z</time>
      </trkpt>
      <trkpt lat="44.57341" lon="-0.19053">
        <ele>31</ele>
        <time>2015-02-16T11:37:45Z</time>
      </trkpt>
      <trkpt lat="44.5735" lon="-0.19049">
        <ele>31</ele>
        <time>2015-02-16T11:38:09Z</time>
      </trkpt>
      <trkpt lat="44.57359" lon="-0.19048">
        <ele>33</ele>
        <time>2015-02-16T11:38:22Z</time>
      </trkpt>
      <trkpt lat="44.57369" lon="-0.1905">
        <ele>33</ele>
        <time>2015-02-16T11:38:35Z</time>
      </trkpt>
      <trkpt lat="44.57377" lon="-0.19046">
        <ele>34</ele>
        <time>2015-02-16T11:38:43Z</time>
      </trkpt>
      <trkpt lat="44.57387" lon="-0.19045">
        <ele>35</ele>
        <time>2015-02-16T11:38:50Z</time>
      </trkpt>
      <trkpt lat="44.57396" lon="-0.19047">
        <ele>34</ele>
        <time>2015-02-16T11:38:58Z</time>
      </trkpt>
      <trkpt lat="44.57399" lon="-0.1906">
        <ele>33</ele>
        <time>2015-02-16T11:39:06Z</time>
      </trkpt>
      <trkpt lat="44.574" lon="-0.19072">
        <ele>33</ele>
        <time>2015-02-16T11:39:14Z</time>
      </trkpt>
      <trkpt lat="44.57402" lon="-0.19086">
        <ele>37</ele>
        <time>2015-02-16T11:39:22Z</time>
      </trkpt>
      <trkpt lat="44.57401" lon="-0.19099">
        <ele>35</ele>
        <time>2015-02-16T11:39:29Z</time>
      </trkpt>
      <trkpt lat="44.57398" lon="-0.19112">
        <ele>33</ele>
        <time>2015-02-16T11:39:36Z</time>
      </trkpt>
      <trkpt lat="44.57394" lon="-0.19124">
        <ele>29</ele>
        <time>2015-02-16T11:39:44Z</time>
      </trkpt>
      <trkpt lat="44.57403" lon="-0.1913">
        <ele>28</ele>
        <time>2015-02-16T11:39:52Z</time>
      </trkpt>
      <trkpt lat="44.57412" lon="-0.19132">
        <ele>28</ele>
        <time>2015-02-16T11:39:58Z</time>
      </trkpt>
      <trkpt lat="44.57421" lon="-0.19136">
        <ele>25</ele>
        <time>2015-02-16T11:40:07Z</time>
      </trkpt>
      <trkpt lat="44.57429" lon="-0.19144">
        <ele>25</ele>
        <time>2015-02-16T11:40:15Z</time>
      </trkpt>
      <trkpt lat="44.57439" lon="-0.19149">
        <ele>26</ele>
        <time>2015-02-16T11:40:23Z</time>
      </trkpt>
      <trkpt lat="44.57448" lon="-0.19151">
        <ele>28</ele>
        <time>2015-02-16T11:40:31Z</time>
      </trkpt>
      <trkpt lat="44.57458" lon="-0.19152">
        <ele>28</ele>
        <time>2015-02-16T11:40:37Z</time>
      </trkpt>
      <trkpt lat="44.57476" lon="-0.19154">
        <ele>29</ele>
        <time>2015-02-16T11:40:50Z</time>
      </trkpt>
      <trkpt lat="44.57486" lon="-0.1915">
        <ele>31</ele>
        <time>2015-02-16T11:41:01Z</time>
      </trkpt>
      <trkpt lat="44.57493" lon="-0.19141">
        <ele>29</ele>
        <time>2015-02-16T11:41:10Z</time>
      </trkpt>
      <trkpt lat="44.57499" lon="-0.19131">
        <ele>29</ele>
        <time>2015-02-16T11:41:18Z</time>
      </trkpt>
      <trkpt lat="44.57502" lon="-0.19117">
        <ele>29</ele>
        <time>2015-02-16T11:41:25Z</time>
      </trkpt>
      <trkpt lat="44.57512" lon="-0.19102">
        <ele>29</ele>
        <time>2015-02-16T11:41:35Z</time>
      </trkpt>
      <trkpt lat="44.5752" lon="-0.19096">
        <ele>31</ele>
        <time>2015-02-16T11:41:42Z</time>
      </trkpt>
      <trkpt lat="44.5753" lon="-0.19092">
        <ele>30</ele>
        <time>2015-02-16T11:41:50Z</time>
      </trkpt>
      <trkpt lat="44.57539" lon="-0.1909">
        <ele>30</ele>
        <time>2015-02-16T11:41:58Z</time>
      </trkpt>
      <trkpt lat="44.57549" lon="-0.19087">
        <ele>31</ele>
        <time>2015-02-16T11:42:06Z</time>
      </trkpt>
      <trkpt lat="44.57558" lon="-0.19083">
        <ele>31</ele>
        <time>2015-02-16T11:42:14Z</time>
      </trkpt>
      <trkpt lat="44.57567" lon="-0.19081">
        <ele>31</ele>
        <time>2015-02-16T11:42:22Z</time>
      </trkpt>
      <trkpt lat="44.57577" lon="-0.19077">
        <ele>30</ele>
        <time>2015-02-16T11:42:31Z</time>
      </trkpt>
      <trkpt lat="44.57586" lon="-0.19074">
        <ele>30</ele>
        <time>2015-02-16T11:42:37Z</time>
      </trkpt>
      <trkpt lat="44.5761" lon="-0.19065">
        <ele>32</ele>
        <time>2015-02-16T11:42:54Z</time>
      </trkpt>
      <trkpt lat="44.57619" lon="-0.19061">
        <ele>31</ele>
        <time>2015-02-16T11:43:01Z</time>
      </trkpt>
      <trkpt lat="44.57629" lon="-0.19059">
        <ele>29</ele>
        <time>2015-02-16T11:43:09Z</time>
      </trkpt>
      <trkpt lat="44.57639" lon="-0.19056">
        <ele>27</ele>
        <time>2015-02-16T11:43:16Z</time>
      </trkpt>
      <trkpt lat="44.57648" lon="-0.19054">
        <ele>29</ele>
        <time>2015-02-16T11:43:31Z</time>
      </trkpt>
      <trkpt lat="44.57657" lon="-0.1905">
        <ele>26</ele>
        <time>2015-02-16T11:43:38Z</time>
      </trkpt>
      <trkpt lat="44.57667" lon="-0.19048">
        <ele>26</ele>
        <time>2015-02-16T11:43:48Z</time>
      </trkpt>
      <trkpt lat="44.57677" lon="-0.19044">
        <ele>26</ele>
        <time>2015-02-16T11:43:54Z</time>
      </trkpt>
      <trkpt lat="44.57686" lon="-0.1904">
        <ele>27</ele>
        <time>2015-02-16T11:44:00Z</time>
      </trkpt>
      <trkpt lat="44.57695" lon="-0.19036">
        <ele>25</ele>
        <time>2015-02-16T11:44:07Z</time>
      </trkpt>
      <trkpt lat="44.57704" lon="-0.19034">
        <ele>24</ele>
        <time>2015-02-16T11:44:14Z</time>
      </trkpt>
      <trkpt lat="44.57713" lon="-0.19031">
        <ele>23</ele>
        <time>2015-02-16T11:44:22Z</time>
      </trkpt>
      <trkpt lat="44.57735" lon="-0.19028">
        <ele>25</ele>
        <time>2015-02-16T11:44:41Z</time>
      </trkpt>
      <trkpt lat="44.57759" lon="-0.19025">
        <ele>25</ele>
        <time>2015-02-16T11:44:58Z</time>
      </trkpt>
      <trkpt lat="44.57769" lon="-0.19024">
        <ele>24</ele>
        <time>2015-02-16T11:45:04Z</time>
      </trkpt>
      <trkpt lat="44.5778" lon="-0.19024">
        <ele>24</ele>
        <time>2015-02-16T11:45:14Z</time>
      </trkpt>
      <trkpt lat="44.57789" lon="-0.19025">
        <ele>26</ele>
        <time>2015-02-16T11:45:20Z</time>
      </trkpt>
      <trkpt lat="44.5782" lon="-0.19029">
        <ele>30</ele>
        <time>2015-02-16T11:45:44Z</time>
      </trkpt>
      <trkpt lat="44.57839" lon="-0.1903">
        <ele>30</ele>
        <time>2015-02-16T11:45:59Z</time>
      </trkpt>
      <trkpt lat="44.57849" lon="-0.1903">
        <ele>30</ele>
        <time>2015-02-16T11:46:08Z</time>
      </trkpt>
      <trkpt lat="44.57859" lon="-0.19031">
        <ele>28</ele>
        <time>2015-02-16T11:46:15Z</time>
      </trkpt>
      <trkpt lat="44.57869" lon="-0.19032">
        <ele>28</ele>
        <time>2015-02-16T11:46:24Z</time>
      </trkpt>
      <trkpt lat="44.57879" lon="-0.19032">
        <ele>30</ele>
        <time>2015-02-16T11:46:33Z</time>
      </trkpt>
      <trkpt lat="44.57888" lon="-0.19032">
        <ele>31</ele>
        <time>2015-02-16T11:46:43Z</time>
      </trkpt>
      <trkpt lat="44.57897" lon="-0.19033">
        <ele>35</ele>
        <time>2015-02-16T11:46:51Z</time>
      </trkpt>
      <trkpt lat="44.579" lon="-0.19033">
        <ele>36</ele>
        <time>2015-02-16T11:47:21Z</time>
      </trkpt>
      <trkpt lat="44.57907" lon="-0.19034">
        <ele>35</ele>
        <time>2015-02-16T11:47:37Z</time>
      </trkpt>
      <trkpt lat="44.57916" lon="-0.19037">
        <ele>34</ele>
        <time>2015-02-16T11:47:43Z</time>
      </trkpt>
      <trkpt lat="44.57925" lon="-0.19035">
        <ele>34</ele>
        <time>2015-02-16T11:47:51Z</time>
      </trkpt>
      <trkpt lat="44.57935" lon="-0.19034">
        <ele>34</ele>
        <time>2015-02-16T11:48:07Z</time>
      </trkpt>
      <trkpt lat="44.57946" lon="-0.19034">
        <ele>35</ele>
        <time>2015-02-16T11:48:13Z</time>
      </trkpt>
      <trkpt lat="44.57955" lon="-0.19035">
        <ele>35</ele>
        <time>2015-02-16T11:48:18Z</time>
      </trkpt>
      <trkpt lat="44.57965" lon="-0.19035">
        <ele>37</ele>
        <time>2015-02-16T11:48:26Z</time>
      </trkpt>
      <trkpt lat="44.57975" lon="-0.19036">
        <ele>37</ele>
        <time>2015-02-16T11:48:33Z</time>
      </trkpt>
      <trkpt lat="44.57984" lon="-0.19037">
        <ele>38</ele>
        <time>2015-02-16T11:48:42Z</time>
      </trkpt>
      <trkpt lat="44.58004" lon="-0.1904">
        <ele>43</ele>
        <time>2015-02-16T11:48:53Z</time>
      </trkpt>
      <trkpt lat="44.58015" lon="-0.19042">
        <ele>40</ele>
        <time>2015-02-16T11:49:00Z</time>
      </trkpt>
      <trkpt lat="44.58023" lon="-0.19047">
        <ele>40</ele>
        <time>2015-02-16T11:49:06Z</time>
      </trkpt>
      <trkpt lat="44.58033" lon="-0.19051">
        <ele>41</ele>
        <time>2015-02-16T11:49:12Z</time>
      </trkpt>
      <trkpt lat="44.58042" lon="-0.19051">
        <ele>42</ele>
        <time>2015-02-16T11:49:19Z</time>
      </trkpt>
      <trkpt lat="44.58052" lon="-0.1905">
        <ele>44</ele>
        <time>2015-02-16T11:49:27Z</time>
      </trkpt>
      <trkpt lat="44.58061" lon="-0.19046">
        <ele>43</ele>
        <time>2015-02-16T11:49:35Z</time>
      </trkpt>
      <trkpt lat="44.58066" lon="-0.19034">
        <ele>43</ele>
        <time>2015-02-16T11:49:43Z</time>
      </trkpt>
      <trkpt lat="44.58066" lon="-0.1902">
        <ele>44</ele>
        <time>2015-02-16T11:49:53Z</time>
      </trkpt>
      <trkpt lat="44.58069" lon="-0.19007">
        <ele>42</ele>
        <time>2015-02-16T11:50:01Z</time>
      </trkpt>
      <trkpt lat="44.58076" lon="-0.18997">
        <ele>39</ele>
        <time>2015-02-16T11:50:08Z</time>
      </trkpt>
      <trkpt lat="44.58085" lon="-0.18993">
        <ele>43</ele>
        <time>2015-02-16T11:50:15Z</time>
      </trkpt>
      <trkpt lat="44.58095" lon="-0.18995">
        <ele>43</ele>
        <time>2015-02-16T11:50:23Z</time>
      </trkpt>
      <trkpt lat="44.58105" lon="-0.18995">
        <ele>41</ele>
        <time>2015-02-16T11:50:31Z</time>
      </trkpt>
      <trkpt lat="44.58114" lon="-0.18996">
        <ele>41</ele>
        <time>2015-02-16T11:50:39Z</time>
      </trkpt>
      <trkpt lat="44.58134" lon="-0.18999">
        <ele>43</ele>
        <time>2015-02-16T11:50:54Z</time>
      </trkpt>
      <trkpt lat="44.58143" lon="-0.18998">
        <ele>42</ele>
        <time>2015-02-16T11:51:01Z</time>
      </trkpt>
      <trkpt lat="44.58162" lon="-0.19002">
        <ele>44</ele>
        <time>2015-02-16T11:51:16Z</time>
      </trkpt>
      <trkpt lat="44.58182" lon="-0.19001">
        <ele>47</ele>
        <time>2015-02-16T11:51:31Z</time>
      </trkpt>
      <trkpt lat="44.58202" lon="-0.19002">
        <ele>52</ele>
        <time>2015-02-16T11:51:46Z</time>
      </trkpt>
      <trkpt lat="44.58212" lon="-0.19001">
        <ele>50</ele>
        <time>2015-02-16T11:51:53Z</time>
      </trkpt>
      <trkpt lat="44.58222" lon="-0.19">
        <ele>50</ele>
        <time>2015-02-16T11:52:03Z</time>
      </trkpt>
      <trkpt lat="44.58231" lon="-0.19">
        <ele>52</ele>
        <time>2015-02-16T11:52:09Z</time>
      </trkpt>
      <trkpt lat="44.5825" lon="-0.19001">
        <ele>55</ele>
        <time>2015-02-16T11:52:22Z</time>
      </trkpt>
      <trkpt lat="44.5826" lon="-0.19002">
        <ele>54</ele>
        <time>2015-02-16T11:52:29Z</time>
      </trkpt>
      <trkpt lat="44.5827" lon="-0.19003">
        <ele>55</ele>
        <time>2015-02-16T11:52:36Z</time>
      </trkpt>
      <trkpt lat="44.5828" lon="-0.19005">
        <ele>52</ele>
        <time>2015-02-16T11:52:43Z</time>
      </trkpt>
      <trkpt lat="44.5829" lon="-0.19005">
        <ele>52</ele>
        <time>2015-02-16T11:52:51Z</time>
      </trkpt>
      <trkpt lat="44.58299" lon="-0.19005">
        <ele>50</ele>
        <time>2015-02-16T11:52:58Z</time>
      </trkpt>
      <trkpt lat="44.58307" lon="-0.18996">
        <ele>49</ele>
        <time>2015-02-16T11:53:06Z</time>
      </trkpt>
      <trkpt lat="44.58308" lon="-0.18984">
        <ele>47</ele>
        <time>2015-02-16T11:53:15Z</time>
      </trkpt>
      <trkpt lat="44.58313" lon="-0.18958">
        <ele>45</ele>
        <time>2015-02-16T11:53:38Z</time>
      </trkpt>
      <trkpt lat="44.58317" lon="-0.18942">
        <ele>44</ele>
        <time>2015-02-16T11:53:47Z</time>
      </trkpt>
      <trkpt lat="44.58321" lon="-0.18929">
        <ele>44</ele>
        <time>2015-02-16T11:53:54Z</time>
      </trkpt>
      <trkpt lat="44.58325" lon="-0.18916">
        <ele>41</ele>
        <time>2015-02-16T11:54:01Z</time>
      </trkpt>
      <trkpt lat="44.58329" lon="-0.18904">
        <ele>45</ele>
        <time>2015-02-16T11:54:09Z</time>
      </trkpt>
      <trkpt lat="44.58331" lon="-0.18891">
        <ele>47</ele>
        <time>2015-02-16T11:54:16Z</time>
      </trkpt>
      <trkpt lat="44.58334" lon="-0.18879">
        <ele>48</ele>
        <time>2015-02-16T11:54:22Z</time>
      </trkpt>
      <trkpt lat="44.58339" lon="-0.18868">
        <ele>50</ele>
        <time>2015-02-16T11:54:28Z</time>
      </trkpt>
      <trkpt lat="44.58344" lon="-0.18843">
        <ele>51</ele>
        <time>2015-02-16T11:54:43Z</time>
      </trkpt>
      <trkpt lat="44.58343" lon="-0.18829">
        <ele>52</ele>
        <time>2015-02-16T11:54:50Z</time>
      </trkpt>
      <trkpt lat="44.58345" lon="-0.18815">
        <ele>52</ele>
        <time>2015-02-16T11:54:57Z</time>
      </trkpt>
      <trkpt lat="44.58345" lon="-0.18801">
        <ele>54</ele>
        <time>2015-02-16T11:55:04Z</time>
      </trkpt>
      <trkpt lat="44.58346" lon="-0.18786">
        <ele>55</ele>
        <time>2015-02-16T11:55:11Z</time>
      </trkpt>
      <trkpt lat="44.58347" lon="-0.18773">
        <ele>55</ele>
        <time>2015-02-16T11:55:18Z</time>
      </trkpt>
      <trkpt lat="44.58349" lon="-0.1876">
        <ele>55</ele>
        <time>2015-02-16T11:55:25Z</time>
      </trkpt>
      <trkpt lat="44.5835" lon="-0.18746">
        <ele>56</ele>
        <time>2015-02-16T11:55:32Z</time>
      </trkpt>
      <trkpt lat="44.58359" lon="-0.18741">
        <ele>52</ele>
        <time>2015-02-16T11:55:43Z</time>
      </trkpt>
      <trkpt lat="44.58369" lon="-0.18742">
        <ele>51</ele>
        <time>2015-02-16T11:55:50Z</time>
      </trkpt>
      <trkpt lat="44.58378" lon="-0.18744">
        <ele>50</ele>
        <time>2015-02-16T11:56:01Z</time>
      </trkpt>
      <trkpt lat="44.58388" lon="-0.18745">
        <ele>49</ele>
        <time>2015-02-16T11:56:09Z</time>
      </trkpt>
      <trkpt lat="44.58397" lon="-0.18746">
        <ele>50</ele>
        <time>2015-02-16T11:56:18Z</time>
      </trkpt>
      <trkpt lat="44.58416" lon="-0.1875">
        <ele>49</ele>
        <time>2015-02-16T11:56:33Z</time>
      </trkpt>
      <trkpt lat="44.58426" lon="-0.18753">
        <ele>51</ele>
        <time>2015-02-16T11:56:41Z</time>
      </trkpt>
      <trkpt lat="44.58444" lon="-0.18761">
        <ele>54</ele>
        <time>2015-02-16T11:56:56Z</time>
      </trkpt>
      <trkpt lat="44.58453" lon="-0.18765">
        <ele>55</ele>
        <time>2015-02-16T11:57:04Z</time>
      </trkpt>
      <trkpt lat="44.58463" lon="-0.18771">
        <ele>55</ele>
        <time>2015-02-16T11:57:12Z</time>
      </trkpt>
      <trkpt lat="44.5847" lon="-0.18778">
        <ele>57</ele>
        <time>2015-02-16T11:57:19Z</time>
      </trkpt>
      <trkpt lat="44.58479" lon="-0.18784">
        <ele>57</ele>
        <time>2015-02-16T11:57:26Z</time>
      </trkpt>
      <trkpt lat="44.58487" lon="-0.18787">
        <ele>57</ele>
        <time>2015-02-16T11:57:33Z</time>
      </trkpt>
      <trkpt lat="44.58497" lon="-0.18789">
        <ele>58</ele>
        <time>2015-02-16T11:57:41Z</time>
      </trkpt>
      <trkpt lat="44.58507" lon="-0.18791">
        <ele>58</ele>
        <time>2015-02-16T11:57:48Z</time>
      </trkpt>
      <trkpt lat="44.58516" lon="-0.18791">
        <ele>58</ele>
        <time>2015-02-16T11:57:55Z</time>
      </trkpt>
      <trkpt lat="44.58526" lon="-0.18791">
        <ele>57</ele>
        <time>2015-02-16T11:58:02Z</time>
      </trkpt>
      <trkpt lat="44.58535" lon="-0.18792">
        <ele>57</ele>
        <time>2015-02-16T11:58:09Z</time>
      </trkpt>
      <trkpt lat="44.58545" lon="-0.18791">
        <ele>56</ele>
        <time>2015-02-16T11:58:16Z</time>
      </trkpt>
      <trkpt lat="44.58555" lon="-0.1879">
        <ele>57</ele>
        <time>2015-02-16T11:58:23Z</time>
      </trkpt>
      <trkpt lat="44.58564" lon="-0.18789">
        <ele>59</ele>
        <time>2015-02-16T11:58:30Z</time>
      </trkpt>
      <trkpt lat="44.58574" lon="-0.18788">
        <ele>60</ele>
        <time>2015-02-16T11:58:38Z</time>
      </trkpt>
      <trkpt lat="44.58583" lon="-0.18791">
        <ele>60</ele>
        <time>2015-02-16T11:58:45Z</time>
      </trkpt>
      <trkpt lat="44.58593" lon="-0.18792">
        <ele>63</ele>
        <time>2015-02-16T11:58:53Z</time>
      </trkpt>
      <trkpt lat="44.58602" lon="-0.18788">
        <ele>63</ele>
        <time>2015-02-16T11:59:02Z</time>
      </trkpt>
      <trkpt lat="44.5862" lon="-0.18781">
        <ele>65</ele>
        <time>2015-02-16T11:59:22Z</time>
      </trkpt>
      <trkpt lat="44.5863" lon="-0.18779">
        <ele>70</ele>
        <time>2015-02-16T11:59:31Z</time>
      </trkpt>
      <trkpt lat="44.5864" lon="-0.18775">
        <ele>73</ele>
        <time>2015-02-16T11:59:42Z</time>
      </trkpt>
      <trkpt lat="44.58649" lon="-0.18775">
        <ele>72</ele>
        <time>2015-02-16T11:59:54Z</time>
      </trkpt>
      <trkpt lat="44.58659" lon="-0.18773">
        <ele>72</ele>
        <time>2015-02-16T12:00:04Z</time>
      </trkpt>
      <trkpt lat="44.58669" lon="-0.18772">
        <ele>73</ele>
        <time>2015-02-16T12:00:13Z</time>
      </trkpt>
      <trkpt lat="44.58678" lon="-0.18772">
        <ele>69</ele>
        <time>2015-02-16T12:00:21Z</time>
      </trkpt>
      <trkpt lat="44.58688" lon="-0.1877">
        <ele>69</ele>
        <time>2015-02-16T12:00:30Z</time>
      </trkpt>
      <trkpt lat="44.58696" lon="-0.1877">
        <ele>74</ele>
        <time>2015-02-16T12:01:00Z</time>
      </trkpt>
      <trkpt lat="44.58697" lon="-0.18769">
        <ele>74</ele>
        <time>2015-02-16T12:01:30Z</time>
      </trkpt>
      <trkpt lat="44.58697" lon="-0.18769">
        <ele>75</ele>
        <time>2015-02-16T12:01:47Z</time>
      </trkpt>
      <trkpt lat="44.58701" lon="-0.18756">
        <ele>77</ele>
        <time>2015-02-16T12:02:05Z</time>
      </trkpt>
      <trkpt lat="44.587" lon="-0.18755">
        <ele>76</ele>
        <time>2015-02-16T12:02:35Z</time>
      </trkpt>
      <trkpt lat="44.58709" lon="-0.18762">
        <ele>73</ele>
        <time>2015-02-16T12:02:55Z</time>
      </trkpt>
      <trkpt lat="44.58718" lon="-0.1876">
        <ele>75</ele>
        <time>2015-02-16T12:03:03Z</time>
      </trkpt>
      <trkpt lat="44.58729" lon="-0.18758">
        <ele>77</ele>
        <time>2015-02-16T12:03:13Z</time>
      </trkpt>
      <trkpt lat="44.58739" lon="-0.18758">
        <ele>77</ele>
        <time>2015-02-16T12:03:21Z</time>
      </trkpt>
      <trkpt lat="44.58748" lon="-0.18756">
        <ele>78</ele>
        <time>2015-02-16T12:03:29Z</time>
      </trkpt>
      <trkpt lat="44.58758" lon="-0.18754">
        <ele>78</ele>
        <time>2015-02-16T12:03:38Z</time>
      </trkpt>
      <trkpt lat="44.58767" lon="-0.18751">
        <ele>76</ele>
        <time>2015-02-16T12:03:46Z</time>
      </trkpt>
      <trkpt lat="44.58776" lon="-0.18747">
        <ele>77</ele>
        <time>2015-02-16T12:03:54Z</time>
      </trkpt>
      <trkpt lat="44.58786" lon="-0.18746">
        <ele>75</ele>
        <time>2015-02-16T12:04:02Z</time>
      </trkpt>
      <trkpt lat="44.58795" lon="-0.18748">
        <ele>75</ele>
        <time>2015-02-16T12:04:09Z</time>
      </trkpt>
      <trkpt lat="44.58805" lon="-0.18751">
        <ele>75</ele>
        <time>2015-02-16T12:04:16Z</time>
      </trkpt>
      <trkpt lat="44.58815" lon="-0.18754">
        <ele>75</ele>
        <time>2015-02-16T12:04:23Z</time>
      </trkpt>
      <trkpt lat="44.58824" lon="-0.18759">
        <ele>74</ele>
        <time>2015-02-16T12:04:30Z</time>
      </trkpt>
      <trkpt lat="44.58833" lon="-0.18764">
        <ele>74</ele>
        <time>2015-02-16T12:04:37Z</time>
      </trkpt>
      <trkpt lat="44.58853" lon="-0.18772">
        <ele>72</ele>
        <time>2015-02-16T12:04:51Z</time>
      </trkpt>
      <trkpt lat="44.58871" lon="-0.18779">
        <ele>71</ele>
        <time>2015-02-16T12:05:05Z</time>
      </trkpt>
      <trkpt lat="44.5888" lon="-0.18781">
        <ele>70</ele>
        <time>2015-02-16T12:05:12Z</time>
      </trkpt>
      <trkpt lat="44.5889" lon="-0.18784">
        <ele>71</ele>
        <time>2015-02-16T12:05:19Z</time>
      </trkpt>
      <trkpt lat="44.58899" lon="-0.18785">
        <ele>69</ele>
        <time>2015-02-16T12:05:27Z</time>
      </trkpt>
      <trkpt lat="44.58909" lon="-0.18787">
        <ele>70</ele>
        <time>2015-02-16T12:05:34Z</time>
      </trkpt>
      <trkpt lat="44.58929" lon="-0.18788">
        <ele>69</ele>
        <time>2015-02-16T12:05:48Z</time>
      </trkpt>
      <trkpt lat="44.58938" lon="-0.18789">
        <ele>69</ele>
        <time>2015-02-16T12:05:55Z</time>
      </trkpt>
      <trkpt lat="44.58948" lon="-0.18791">
        <ele>71</ele>
        <time>2015-02-16T12:06:03Z</time>
      </trkpt>
      <trkpt lat="44.58958" lon="-0.18793">
        <ele>71</ele>
        <time>2015-02-16T12:06:11Z</time>
      </trkpt>
      <trkpt lat="44.58967" lon="-0.18795">
        <ele>70</ele>
        <time>2015-02-16T12:06:19Z</time>
      </trkpt>
      <trkpt lat="44.58976" lon="-0.18798">
        <ele>68</ele>
        <time>2015-02-16T12:06:29Z</time>
      </trkpt>
      <trkpt lat="44.58985" lon="-0.18799">
        <ele>70</ele>
        <time>2015-02-16T12:06:37Z</time>
      </trkpt>
      <trkpt lat="44.58995" lon="-0.18804">
        <ele>64</ele>
        <time>2015-02-16T12:06:45Z</time>
      </trkpt>
      <trkpt lat="44.59004" lon="-0.18808">
        <ele>71</ele>
        <time>2015-02-16T12:06:53Z</time>
      </trkpt>
      <trkpt lat="44.59013" lon="-0.18813">
        <ele>73</ele>
        <time>2015-02-16T12:07:01Z</time>
      </trkpt>
      <trkpt lat="44.59023" lon="-0.18815">
        <ele>74</ele>
        <time>2015-02-16T12:07:09Z</time>
      </trkpt>
      <trkpt lat="44.59033" lon="-0.18814">
        <ele>76</ele>
        <time>2015-02-16T12:07:18Z</time>
      </trkpt>
      <trkpt lat="44.59042" lon="-0.18816">
        <ele>75</ele>
        <time>2015-02-16T12:07:27Z</time>
      </trkpt>
      <trkpt lat="44.59043" lon="-0.18817">
        <ele>73</ele>
        <time>2015-02-16T12:07:57Z</time>
      </trkpt>
      <trkpt lat="44.59051" lon="-0.18819">
        <ele>74</ele>
        <time>2015-02-16T12:08:57Z</time>
      </trkpt>
      <trkpt lat="44.5906" lon="-0.18813">
        <ele>72</ele>
        <time>2015-02-16T12:09:04Z</time>
      </trkpt>
      <trkpt lat="44.59067" lon="-0.18805">
        <ele>71</ele>
        <time>2015-02-16T12:09:11Z</time>
      </trkpt>
      <trkpt lat="44.59072" lon="-0.18793">
        <ele>72</ele>
        <time>2015-02-16T12:09:19Z</time>
      </trkpt>
      <trkpt lat="44.59081" lon="-0.18789">
        <ele>70</ele>
        <time>2015-02-16T12:09:48Z</time>
      </trkpt>
      <trkpt lat="44.59091" lon="-0.18791">
        <ele>70</ele>
        <time>2015-02-16T12:09:55Z</time>
      </trkpt>
      <trkpt lat="44.591" lon="-0.18789">
        <ele>67</ele>
        <time>2015-02-16T12:10:09Z</time>
      </trkpt>
      <trkpt lat="44.5911" lon="-0.1879">
        <ele>66</ele>
        <time>2015-02-16T12:10:20Z</time>
      </trkpt>
      <trkpt lat="44.59119" lon="-0.18792">
        <ele>66</ele>
        <time>2015-02-16T12:10:28Z</time>
      </trkpt>
      <trkpt lat="44.59128" lon="-0.18792">
        <ele>66</ele>
        <time>2015-02-16T12:10:35Z</time>
      </trkpt>
      <trkpt lat="44.59138" lon="-0.18789">
        <ele>63</ele>
        <time>2015-02-16T12:10:44Z</time>
      </trkpt>
      <trkpt lat="44.59147" lon="-0.18784">
        <ele>62</ele>
        <time>2015-02-16T12:10:52Z</time>
      </trkpt>
      <trkpt lat="44.59154" lon="-0.18774">
        <ele>60</ele>
        <time>2015-02-16T12:11:02Z</time>
      </trkpt>
      <trkpt lat="44.59148" lon="-0.1877">
        <ele>60</ele>
        <time>2015-02-16T12:11:32Z</time>
      </trkpt>
      <trkpt lat="44.59148" lon="-0.18766">
        <ele>61</ele>
        <time>2015-02-16T12:11:38Z</time>
      </trkpt>
      <trkpt lat="44.59148" lon="-0.18753">
        <ele>61</ele>
        <time>2015-02-16T12:11:53Z</time>
      </trkpt>
      <trkpt lat="44.59153" lon="-0.18742">
        <ele>61</ele>
        <time>2015-02-16T12:12:07Z</time>
      </trkpt>
      <trkpt lat="44.59161" lon="-0.18734">
        <ele>59</ele>
        <time>2015-02-16T12:12:24Z</time>
      </trkpt>
      <trkpt lat="44.5917" lon="-0.18733">
        <ele>61</ele>
        <time>2015-02-16T12:12:40Z</time>
      </trkpt>
      <trkpt lat="44.59179" lon="-0.1873">
        <ele>60</ele>
        <time>2015-02-16T12:12:57Z</time>
      </trkpt>
      <trkpt lat="44.59188" lon="-0.18735">
        <ele>59</ele>
        <time>2015-02-16T12:13:10Z</time>
      </trkpt>
      <trkpt lat="44.59186" lon="-0.18748">
        <ele>56</ele>
        <time>2015-02-16T12:13:24Z</time>
      </trkpt>
      <trkpt lat="44.59187" lon="-0.18762">
        <ele>54</ele>
        <time>2015-02-16T12:13:38Z</time>
      </trkpt>
      <trkpt lat="44.59191" lon="-0.18773">
        <ele>53</ele>
        <time>2015-02-16T12:13:47Z</time>
      </trkpt>
      <trkpt lat="44.59197" lon="-0.18783">
        <ele>53</ele>
        <time>2015-02-16T12:13:54Z</time>
      </trkpt>
      <trkpt lat="44.59199" lon="-0.18796">
        <ele>55</ele>
        <time>2015-02-16T12:14:04Z</time>
      </trkpt>
      <trkpt lat="44.59204" lon="-0.18804">
        <ele>60</ele>
        <time>2015-02-16T12:14:34Z</time>
      </trkpt>
      <trkpt lat="44.59205" lon="-0.18807">
        <ele>62</ele>
        <time>2015-02-16T12:14:55Z</time>
      </trkpt>
      <trkpt lat="44.59209" lon="-0.18819">
        <ele>63</ele>
        <time>2015-02-16T12:15:03Z</time>
      </trkpt>
      <trkpt lat="44.59213" lon="-0.18831">
        <ele>63</ele>
        <time>2015-02-16T12:15:19Z</time>
      </trkpt>
      <trkpt lat="44.59215" lon="-0.18844">
        <ele>61</ele>
        <time>2015-02-16T12:15:28Z</time>
      </trkpt>
      <trkpt lat="44.59214" lon="-0.18844">
        <ele>59</ele>
        <time>2015-02-16T12:15:58Z</time>
      </trkpt>
      <trkpt lat="44.59211" lon="-0.18833">
        <ele>60</ele>
        <time>2015-02-16T12:16:07Z</time>
      </trkpt>
      <trkpt lat="44.59208" lon="-0.1882">
        <ele>58</ele>
        <time>2015-02-16T12:16:17Z</time>
      </trkpt>
      <trkpt lat="44.59217" lon="-0.1882">
        <ele>56</ele>
        <time>2015-02-16T12:16:32Z</time>
      </trkpt>
      <trkpt lat="44.59227" lon="-0.18818">
        <ele>56</ele>
        <time>2015-02-16T12:16:46Z</time>
      </trkpt>
      <trkpt lat="44.59236" lon="-0.18813">
        <ele>53</ele>
        <time>2015-02-16T12:16:57Z</time>
      </trkpt>
      <trkpt lat="44.59245" lon="-0.18811">
        <ele>53</ele>
        <time>2015-02-16T12:17:09Z</time>
      </trkpt>
      <trkpt lat="44.59253" lon="-0.18804">
        <ele>52</ele>
        <time>2015-02-16T12:17:19Z</time>
      </trkpt>
      <trkpt lat="44.5926" lon="-0.18797">
        <ele>52</ele>
        <time>2015-02-16T12:17:49Z</time>
      </trkpt>
      <trkpt lat="44.5926" lon="-0.18798">
        <ele>52</ele>
        <time>2015-02-16T12:17:52Z</time>
      </trkpt>
      <trkpt lat="44.59252" lon="-0.18806">
        <ele>56</ele>
        <time>2015-02-16T12:18:07Z</time>
      </trkpt>
      <trkpt lat="44.59257" lon="-0.18817">
        <ele>55</ele>
        <time>2015-02-16T12:18:16Z</time>
      </trkpt>
      <trkpt lat="44.59257" lon="-0.18808">
        <ele>52</ele>
        <time>2015-02-16T12:18:46Z</time>
      </trkpt>
      <trkpt lat="44.59259" lon="-0.18805">
        <ele>50</ele>
        <time>2015-02-16T12:19:06Z</time>
      </trkpt>
      <trkpt lat="44.59262" lon="-0.18793">
        <ele>49</ele>
        <time>2015-02-16T12:19:19Z</time>
      </trkpt>
      <trkpt lat="44.59266" lon="-0.18782">
        <ele>47</ele>
        <time>2015-02-16T12:19:39Z</time>
      </trkpt>
      <trkpt lat="44.59263" lon="-0.18769">
        <ele>49</ele>
        <time>2015-02-16T12:19:51Z</time>
      </trkpt>
      <trkpt lat="44.59261" lon="-0.18756">
        <ele>50</ele>
        <time>2015-02-16T12:20:12Z</time>
      </trkpt>
      <trkpt lat="44.59266" lon="-0.18745">
        <ele>48</ele>
        <time>2015-02-16T12:20:28Z</time>
      </trkpt>
      <trkpt lat="44.5927" lon="-0.18741">
        <ele>49</ele>
        <time>2015-02-16T12:20:58Z</time>
      </trkpt>
      <trkpt lat="44.59266" lon="-0.18737">
        <ele>49</ele>
        <time>2015-02-16T12:21:04Z</time>
      </trkpt>
      <trkpt lat="44.59265" lon="-0.18729">
        <ele>50</ele>
        <time>2015-02-16T12:21:34Z</time>
      </trkpt>
      <trkpt lat="44.59264" lon="-0.18728">
        <ele>51</ele>
        <time>2015-02-16T12:22:04Z</time>
      </trkpt>
      <trkpt lat="44.59265" lon="-0.18731">
        <ele>49</ele>
        <time>2015-02-16T12:22:18Z</time>
      </trkpt>
      <trkpt lat="44.59265" lon="-0.18731">
        <ele>48</ele>
        <time>2015-02-16T12:22:48Z</time>
      </trkpt>
      <trkpt lat="44.59248" lon="-0.18741">
        <ele>44</ele>
        <time>2015-02-16T12:23:25Z</time>
      </trkpt>
      <trkpt lat="44.59239" lon="-0.18746">
        <ele>44</ele>
        <time>2015-02-16T12:23:36Z</time>
      </trkpt>
      <trkpt lat="44.59231" lon="-0.18752">
        <ele>48</ele>
        <time>2015-02-16T12:23:47Z</time>
      </trkpt>
      <trkpt lat="44.59222" lon="-0.18754">
        <ele>47</ele>
        <time>2015-02-16T12:24:01Z</time>
      </trkpt>
      <trkpt lat="44.59213" lon="-0.1876">
        <ele>49</ele>
        <time>2015-02-16T12:24:14Z</time>
      </trkpt>
      <trkpt lat="44.59206" lon="-0.18767">
        <ele>51</ele>
        <time>2015-02-16T12:24:29Z</time>
      </trkpt>
      <trkpt lat="44.59198" lon="-0.18775">
        <ele>50</ele>
        <time>2015-02-16T12:24:41Z</time>
      </trkpt>
      <trkpt lat="44.59191" lon="-0.18765">
        <ele>51</ele>
        <time>2015-02-16T12:24:55Z</time>
      </trkpt>
      <trkpt lat="44.59192" lon="-0.18752">
        <ele>55</ele>
        <time>2015-02-16T12:25:05Z</time>
      </trkpt>
      <trkpt lat="44.59189" lon="-0.1874">
        <ele>53</ele>
        <time>2015-02-16T12:25:25Z</time>
      </trkpt>
      <trkpt lat="44.59185" lon="-0.18728">
        <ele>53</ele>
        <time>2015-02-16T12:25:41Z</time>
      </trkpt>
      <trkpt lat="44.59185" lon="-0.18714">
        <ele>55</ele>
        <time>2015-02-16T12:26:00Z</time>
      </trkpt>
      <trkpt lat="44.59183" lon="-0.18702">
        <ele>55</ele>
        <time>2015-02-16T12:26:08Z</time>
      </trkpt>
      <trkpt lat="44.5918" lon="-0.18689">
        <ele>59</ele>
        <time>2015-02-16T12:26:59Z</time>
      </trkpt>
      <trkpt lat="44.5918" lon="-0.18686">
        <ele>58</ele>
        <time>2015-02-16T12:27:29Z</time>
      </trkpt>
      <trkpt lat="44.59179" lon="-0.18695">
        <ele>61</ele>
        <time>2015-02-16T12:27:48Z</time>
      </trkpt>
      <trkpt lat="44.59182" lon="-0.18708">
        <ele>58</ele>
        <time>2015-02-16T12:28:02Z</time>
      </trkpt>
      <trkpt lat="44.59185" lon="-0.1872">
        <ele>60</ele>
        <time>2015-02-16T12:28:16Z</time>
      </trkpt>
      <trkpt lat="44.59189" lon="-0.18733">
        <ele>56</ele>
        <time>2015-02-16T12:28:39Z</time>
      </trkpt>
      <trkpt lat="44.59187" lon="-0.18745">
        <ele>57</ele>
        <time>2015-02-16T12:28:59Z</time>
      </trkpt>
      <trkpt lat="44.5919" lon="-0.18741">
        <ele>60</ele>
        <time>2015-02-16T12:29:29Z</time>
      </trkpt>
      <trkpt lat="44.59186" lon="-0.18735">
        <ele>57</ele>
        <time>2015-02-16T12:29:44Z</time>
      </trkpt>
      <trkpt lat="44.59181" lon="-0.18729">
        <ele>55</ele>
        <time>2015-02-16T12:30:14Z</time>
      </trkpt>
      <trkpt lat="44.59181" lon="-0.18726">
        <ele>57</ele>
        <time>2015-02-16T12:30:19Z</time>
      </trkpt>
      <trkpt lat="44.59181" lon="-0.18724">
        <ele>57</ele>
        <time>2015-02-16T12:30:49Z</time>
      </trkpt>
      <trkpt lat="44.59179" lon="-0.18727">
        <ele>59</ele>
        <time>2015-02-16T12:31:19Z</time>
      </trkpt>
      <trkpt lat="44.59173" lon="-0.18727">
        <ele>61</ele>
        <time>2015-02-16T12:31:26Z</time>
      </trkpt>
      <trkpt lat="44.59164" lon="-0.18734">
        <ele>63</ele>
        <time>2015-02-16T12:31:39Z</time>
      </trkpt>
      <trkpt lat="44.59156" lon="-0.18738">
        <ele>64</ele>
        <time>2015-02-16T12:31:59Z</time>
      </trkpt>
      <trkpt lat="44.59147" lon="-0.18739">
        <ele>67</ele>
        <time>2015-02-16T12:32:17Z</time>
      </trkpt>
      <trkpt lat="44.59139" lon="-0.18746">
        <ele>68</ele>
        <time>2015-02-16T12:32:35Z</time>
      </trkpt>
      <trkpt lat="44.5913" lon="-0.18753">
        <ele>72</ele>
        <time>2015-02-16T12:32:55Z</time>
      </trkpt>
      <trkpt lat="44.59124" lon="-0.18761">
        <ele>68</ele>
        <time>2015-02-16T12:33:05Z</time>
      </trkpt>
      <trkpt lat="44.59118" lon="-0.18772">
        <ele>72</ele>
        <time>2015-02-16T12:33:24Z</time>
      </trkpt>
      <trkpt lat="44.59115" lon="-0.18784">
        <ele>70</ele>
        <time>2015-02-16T12:33:46Z</time>
      </trkpt>
      <trkpt lat="44.59123" lon="-0.18792">
        <ele>65</ele>
        <time>2015-02-16T12:33:59Z</time>
      </trkpt>
      <trkpt lat="44.59132" lon="-0.18793">
        <ele>65</ele>
        <time>2015-02-16T12:34:11Z</time>
      </trkpt>
      <trkpt lat="44.59142" lon="-0.18792">
        <ele>63</ele>
        <time>2015-02-16T12:34:19Z</time>
      </trkpt>
      <trkpt lat="44.59151" lon="-0.18785">
        <ele>61</ele>
        <time>2015-02-16T12:34:28Z</time>
      </trkpt>
      <trkpt lat="44.5915" lon="-0.18772">
        <ele>64</ele>
        <time>2015-02-16T12:34:55Z</time>
      </trkpt>
      <trkpt lat="44.59147" lon="-0.18759">
        <ele>62</ele>
        <time>2015-02-16T12:35:06Z</time>
      </trkpt>
      <trkpt lat="44.5915" lon="-0.1875">
        <ele>66</ele>
        <time>2015-02-16T12:35:36Z</time>
      </trkpt>
      <trkpt lat="44.5916" lon="-0.18741">
        <ele>67</ele>
        <time>2015-02-16T12:35:49Z</time>
      </trkpt>
      <trkpt lat="44.59168" lon="-0.18734">
        <ele>64</ele>
        <time>2015-02-16T12:36:15Z</time>
      </trkpt>
      <trkpt lat="44.59177" lon="-0.18729">
        <ele>63</ele>
        <time>2015-02-16T12:36:26Z</time>
      </trkpt>
      <trkpt lat="44.59184" lon="-0.1872">
        <ele>62</ele>
        <time>2015-02-16T12:36:43Z</time>
      </trkpt>
      <trkpt lat="44.59184" lon="-0.18707">
        <ele>60</ele>
        <time>2015-02-16T12:36:58Z</time>
      </trkpt>
      <trkpt lat="44.59182" lon="-0.18694">
        <ele>62</ele>
        <time>2015-02-16T12:37:08Z</time>
      </trkpt>
      <trkpt lat="44.59181" lon="-0.18681">
        <ele>59</ele>
        <time>2015-02-16T12:37:27Z</time>
      </trkpt>
      <trkpt lat="44.59179" lon="-0.18668">
        <ele>63</ele>
        <time>2015-02-16T12:37:44Z</time>
      </trkpt>
      <trkpt lat="44.59175" lon="-0.18641">
        <ele>60</ele>
        <time>2015-02-16T12:38:10Z</time>
      </trkpt>
      <trkpt lat="44.59173" lon="-0.18628">
        <ele>59</ele>
        <time>2015-02-16T12:38:21Z</time>
      </trkpt>
      <trkpt lat="44.59171" lon="-0.18615">
        <ele>59</ele>
        <time>2015-02-16T12:38:28Z</time>
      </trkpt>
      <trkpt lat="44.59166" lon="-0.18603">
        <ele>59</ele>
        <time>2015-02-16T12:38:34Z</time>
      </trkpt>
      <trkpt lat="44.59163" lon="-0.18591">
        <ele>59</ele>
        <time>2015-02-16T12:38:41Z</time>
      </trkpt>
      <trkpt lat="44.59161" lon="-0.18578">
        <ele>59</ele>
        <time>2015-02-16T12:38:47Z</time>
      </trkpt>
      <trkpt lat="44.59158" lon="-0.18565">
        <ele>60</ele>
        <time>2015-02-16T12:38:54Z</time>
      </trkpt>
      <trkpt lat="44.59156" lon="-0.18551">
        <ele>58</ele>
        <time>2015-02-16T12:39:01Z</time>
      </trkpt>
      <trkpt lat="44.59157" lon="-0.18538">
        <ele>58</ele>
        <time>2015-02-16T12:39:12Z</time>
      </trkpt>
      <trkpt lat="44.59164" lon="-0.18531">
        <ele>57</ele>
        <time>2015-02-16T12:39:20Z</time>
      </trkpt>
      <trkpt lat="44.59173" lon="-0.18524">
        <ele>55</ele>
        <time>2015-02-16T12:39:29Z</time>
      </trkpt>
      <trkpt lat="44.59177" lon="-0.18511">
        <ele>54</ele>
        <time>2015-02-16T12:39:38Z</time>
      </trkpt>
      <trkpt lat="44.59176" lon="-0.18497">
        <ele>53</ele>
        <time>2015-02-16T12:39:46Z</time>
      </trkpt>
      <trkpt lat="44.59173" lon="-0.1847">
        <ele>54</ele>
        <time>2015-02-16T12:40:01Z</time>
      </trkpt>
      <trkpt lat="44.59171" lon="-0.18456">
        <ele>54</ele>
        <time>2015-02-16T12:40:09Z</time>
      </trkpt>
      <trkpt lat="44.59169" lon="-0.18443">
        <ele>54</ele>
        <time>2015-02-16T12:40:16Z</time>
      </trkpt>
      <trkpt lat="44.59167" lon="-0.1843">
        <ele>54</ele>
        <time>2015-02-16T12:40:23Z</time>
      </trkpt>
      <trkpt lat="44.59167" lon="-0.18416">
        <ele>54</ele>
        <time>2015-02-16T12:40:31Z</time>
      </trkpt>
      <trkpt lat="44.59165" lon="-0.18403">
        <ele>53</ele>
        <time>2015-02-16T12:40:39Z</time>
      </trkpt>
      <trkpt lat="44.59161" lon="-0.18377">
        <ele>54</ele>
        <time>2015-02-16T12:40:57Z</time>
      </trkpt>
      <trkpt lat="44.59164" lon="-0.18365">
        <ele>51</ele>
        <time>2015-02-16T12:41:20Z</time>
      </trkpt>
      <trkpt lat="44.59173" lon="-0.18363">
        <ele>48</ele>
        <time>2015-02-16T12:41:30Z</time>
      </trkpt>
      <trkpt lat="44.59176" lon="-0.18354">
        <ele>48</ele>
        <time>2015-02-16T12:42:00Z</time>
      </trkpt>
      <trkpt lat="44.59175" lon="-0.18352">
        <ele>48</ele>
        <time>2015-02-16T12:42:11Z</time>
      </trkpt>
      <trkpt lat="44.59182" lon="-0.18342">
        <ele>47</ele>
        <time>2015-02-16T12:42:23Z</time>
      </trkpt>
      <trkpt lat="44.5919" lon="-0.18336">
        <ele>46</ele>
        <time>2015-02-16T12:42:31Z</time>
      </trkpt>
      <trkpt lat="44.59198" lon="-0.18328">
        <ele>46</ele>
        <time>2015-02-16T12:42:43Z</time>
      </trkpt>
      <trkpt lat="44.59205" lon="-0.18319">
        <ele>46</ele>
        <time>2015-02-16T12:42:52Z</time>
      </trkpt>
      <trkpt lat="44.59212" lon="-0.18328">
        <ele>45</ele>
        <time>2015-02-16T12:43:13Z</time>
      </trkpt>
      <trkpt lat="44.59216" lon="-0.1834">
        <ele>45</ele>
        <time>2015-02-16T12:43:26Z</time>
      </trkpt>
      <trkpt lat="44.5922" lon="-0.18352">
        <ele>43</ele>
        <time>2015-02-16T12:43:36Z</time>
      </trkpt>
      <trkpt lat="44.59223" lon="-0.18364">
        <ele>45</ele>
        <time>2015-02-16T12:44:05Z</time>
      </trkpt>
      <trkpt lat="44.59226" lon="-0.18377">
        <ele>45</ele>
        <time>2015-02-16T12:44:17Z</time>
      </trkpt>
      <trkpt lat="44.59231" lon="-0.18388">
        <ele>43</ele>
        <time>2015-02-16T12:44:27Z</time>
      </trkpt>
      <trkpt lat="44.59237" lon="-0.18397">
        <ele>42</ele>
        <time>2015-02-16T12:44:39Z</time>
      </trkpt>
      <trkpt lat="44.59241" lon="-0.18399">
        <ele>43</ele>
        <time>2015-02-16T12:45:09Z</time>
      </trkpt>
      <trkpt lat="44.59247" lon="-0.18398">
        <ele>45</ele>
        <time>2015-02-16T12:45:15Z</time>
      </trkpt>
      <trkpt lat="44.59255" lon="-0.18392">
        <ele>51</ele>
        <time>2015-02-16T12:45:34Z</time>
      </trkpt>
      <trkpt lat="44.5926" lon="-0.18381">
        <ele>53</ele>
        <time>2015-02-16T12:45:48Z</time>
      </trkpt>
      <trkpt lat="44.59266" lon="-0.18372">
        <ele>51</ele>
        <time>2015-02-16T12:46:05Z</time>
      </trkpt>
      <trkpt lat="44.59273" lon="-0.18363">
        <ele>47</ele>
        <time>2015-02-16T12:46:14Z</time>
      </trkpt>
      <trkpt lat="44.59282" lon="-0.18358">
        <ele>48</ele>
        <time>2015-02-16T12:46:27Z</time>
      </trkpt>
      <trkpt lat="44.5929" lon="-0.18351">
        <ele>48</ele>
        <time>2015-02-16T12:46:47Z</time>
      </trkpt>
      <trkpt lat="44.59299" lon="-0.18347">
        <ele>50</ele>
        <time>2015-02-16T12:47:00Z</time>
      </trkpt>
      <trkpt lat="44.59307" lon="-0.18339">
        <ele>52</ele>
        <time>2015-02-16T12:47:10Z</time>
      </trkpt>
      <trkpt lat="44.59311" lon="-0.18314">
        <ele>56</ele>
        <time>2015-02-16T12:47:28Z</time>
      </trkpt>
      <trkpt lat="44.59317" lon="-0.18303">
        <ele>55</ele>
        <time>2015-02-16T12:47:36Z</time>
      </trkpt>
      <trkpt lat="44.59326" lon="-0.18299">
        <ele>53</ele>
        <time>2015-02-16T12:47:45Z</time>
      </trkpt>
      <trkpt lat="44.59336" lon="-0.18295">
        <ele>50</ele>
        <time>2015-02-16T12:47:54Z</time>
      </trkpt>
      <trkpt lat="44.59346" lon="-0.18293">
        <ele>51</ele>
        <time>2015-02-16T12:48:02Z</time>
      </trkpt>
      <trkpt lat="44.59355" lon="-0.18293">
        <ele>51</ele>
        <time>2015-02-16T12:48:11Z</time>
      </trkpt>
      <trkpt lat="44.59364" lon="-0.18291">
        <ele>51</ele>
        <time>2015-02-16T12:48:19Z</time>
      </trkpt>
      <trkpt lat="44.59375" lon="-0.1829">
        <ele>56</ele>
        <time>2015-02-16T12:48:28Z</time>
      </trkpt>
      <trkpt lat="44.59385" lon="-0.18292">
        <ele>58</ele>
        <time>2015-02-16T12:48:37Z</time>
      </trkpt>
      <trkpt lat="44.59394" lon="-0.1829">
        <ele>60</ele>
        <time>2015-02-16T12:48:47Z</time>
      </trkpt>
      <trkpt lat="44.59404" lon="-0.1829">
        <ele>62</ele>
        <time>2015-02-16T12:48:57Z</time>
      </trkpt>
      <trkpt lat="44.59413" lon="-0.1829">
        <ele>62</ele>
        <time>2015-02-16T12:49:06Z</time>
      </trkpt>
      <trkpt lat="44.59422" lon="-0.18294">
        <ele>61</ele>
        <time>2015-02-16T12:49:14Z</time>
      </trkpt>
      <trkpt lat="44.5943" lon="-0.18302">
        <ele>64</ele>
        <time>2015-02-16T12:49:21Z</time>
      </trkpt>
      <trkpt lat="44.59436" lon="-0.18312">
        <ele>67</ele>
        <time>2015-02-16T12:49:30Z</time>
      </trkpt>
      <trkpt lat="44.59443" lon="-0.18321">
        <ele>67</ele>
        <time>2015-02-16T12:49:40Z</time>
      </trkpt>
      <trkpt lat="44.59448" lon="-0.18332">
        <ele>65</ele>
        <time>2015-02-16T12:49:52Z</time>
      </trkpt>
      <trkpt lat="44.59453" lon="-0.18344">
        <ele>66</ele>
        <time>2015-02-16T12:50:05Z</time>
      </trkpt>
      <trkpt lat="44.59459" lon="-0.18355">
        <ele>62</ele>
        <time>2015-02-16T12:50:19Z</time>
      </trkpt>
      <trkpt lat="44.59465" lon="-0.18365">
        <ele>59</ele>
        <time>2015-02-16T12:50:32Z</time>
      </trkpt>
      <trkpt lat="44.59468" lon="-0.18364">
        <ele>58</ele>
        <time>2015-02-16T12:51:02Z</time>
      </trkpt>
      <trkpt lat="44.59471" lon="-0.18365">
        <ele>59</ele>
        <time>2015-02-16T12:52:02Z</time>
      </trkpt>
      <trkpt lat="44.59472" lon="-0.18365">
        <ele>59</ele>
        <time>2015-02-16T12:52:32Z</time>
      </trkpt>
      <trkpt lat="44.59472" lon="-0.18365">
        <ele>60</ele>
        <time>2015-02-16T12:53:32Z</time>
      </trkpt>
      <trkpt lat="44.59471" lon="-0.18364">
        <ele>60</ele>
        <time>2015-02-16T12:54:02Z</time>
      </trkpt>
      <trkpt lat="44.59472" lon="-0.18366">
        <ele>62</ele>
        <time>2015-02-16T12:57:32Z</time>
      </trkpt>
      <trkpt lat="44.59472" lon="-0.18366">
        <ele>62</ele>
        <time>2015-02-16T13:03:02Z</time>
      </trkpt>
      <trkpt lat="44.59472" lon="-0.18366">
        <ele>63</ele>
        <time>2015-02-16T13:08:32Z</time>
      </trkpt>
      <trkpt lat="44.59472" lon="-0.18366">
        <ele>63</ele>
        <time>2015-02-16T13:16:33Z</time>
      </trkpt>
      <trkpt lat="44.59472" lon="-0.18367">
        <ele>64</ele>
        <time>2015-02-16T13:17:03Z</time>
      </trkpt>
      <trkpt lat="44.59472" lon="-0.18367">
        <ele>62</ele>
        <time>2015-02-16T13:17:33Z</time>
      </trkpt>
      <trkpt lat="44.59472" lon="-0.18367">
        <ele>63</ele>
        <time>2015-02-16T13:18:03Z</time>
      </trkpt>
      <trkpt lat="44.59472" lon="-0.18367">
        <ele>62</ele>
        <time>2015-02-16T13:18:33Z</time>
      </trkpt>
      <trkpt lat="44.59476" lon="-0.18375">
        <ele>68</ele>
        <time>2015-02-16T13:19:02Z</time>
      </trkpt>
      <trkpt lat="44.59481" lon="-0.18387">
        <ele>71</ele>
        <time>2015-02-16T13:19:12Z</time>
      </trkpt>
      <trkpt lat="44.59485" lon="-0.18399">
        <ele>72</ele>
        <time>2015-02-16T13:19:23Z</time>
      </trkpt>
      <trkpt lat="44.59484" lon="-0.18406">
        <ele>70</ele>
        <time>2015-02-16T13:19:53Z</time>
      </trkpt>
      <trkpt lat="44.59486" lon="-0.18412">
        <ele>71</ele>
        <time>2015-02-16T13:19:59Z</time>
      </trkpt>
      <trkpt lat="44.59488" lon="-0.18426">
        <ele>72</ele>
        <time>2015-02-16T13:20:10Z</time>
      </trkpt>
      <trkpt lat="44.59492" lon="-0.18438">
        <ele>72</ele>
        <time>2015-02-16T13:20:20Z</time>
      </trkpt>
      <trkpt lat="44.59498" lon="-0.18447">
        <ele>73</ele>
        <time>2015-02-16T13:20:30Z</time>
      </trkpt>
      <trkpt lat="44.59503" lon="-0.18459">
        <ele>74</ele>
        <time>2015-02-16T13:20:39Z</time>
      </trkpt>
      <trkpt lat="44.59506" lon="-0.18471">
        <ele>74</ele>
        <time>2015-02-16T13:20:50Z</time>
      </trkpt>
      <trkpt lat="44.5951" lon="-0.18482">
        <ele>73</ele>
        <time>2015-02-16T13:21:00Z</time>
      </trkpt>
      <trkpt lat="44.5952" lon="-0.18506">
        <ele>72</ele>
        <time>2015-02-16T13:21:21Z</time>
      </trkpt>
      <trkpt lat="44.59524" lon="-0.18518">
        <ele>74</ele>
        <time>2015-02-16T13:21:31Z</time>
      </trkpt>
      <trkpt lat="44.59529" lon="-0.18529">
        <ele>75</ele>
        <time>2015-02-16T13:21:59Z</time>
      </trkpt>
      <trkpt lat="44.59521" lon="-0.18539">
        <ele>73</ele>
        <time>2015-02-16T13:22:15Z</time>
      </trkpt>
      <trkpt lat="44.59512" lon="-0.18545">
        <ele>70</ele>
        <time>2015-02-16T13:22:43Z</time>
      </trkpt>
      <trkpt lat="44.59495" lon="-0.18558">
        <ele>69</ele>
        <time>2015-02-16T13:23:01Z</time>
      </trkpt>
      <trkpt lat="44.59487" lon="-0.18564">
        <ele>69</ele>
        <time>2015-02-16T13:23:10Z</time>
      </trkpt>
      <trkpt lat="44.59478" lon="-0.1857">
        <ele>68</ele>
        <time>2015-02-16T13:23:19Z</time>
      </trkpt>
      <trkpt lat="44.59483" lon="-0.18596">
        <ele>70</ele>
        <time>2015-02-16T13:23:42Z</time>
      </trkpt>
      <trkpt lat="44.59488" lon="-0.18608">
        <ele>70</ele>
        <time>2015-02-16T13:23:50Z</time>
      </trkpt>
      <trkpt lat="44.59498" lon="-0.1863">
        <ele>72</ele>
        <time>2015-02-16T13:24:06Z</time>
      </trkpt>
      <trkpt lat="44.59505" lon="-0.1864">
        <ele>73</ele>
        <time>2015-02-16T13:24:32Z</time>
      </trkpt>
      <trkpt lat="44.5951" lon="-0.18652">
        <ele>71</ele>
        <time>2015-02-16T13:24:41Z</time>
      </trkpt>
      <trkpt lat="44.59515" lon="-0.18664">
        <ele>72</ele>
        <time>2015-02-16T13:24:49Z</time>
      </trkpt>
      <trkpt lat="44.59524" lon="-0.18687">
        <ele>72</ele>
        <time>2015-02-16T13:25:05Z</time>
      </trkpt>
      <trkpt lat="44.5953" lon="-0.18697">
        <ele>74</ele>
        <time>2015-02-16T13:25:13Z</time>
      </trkpt>
      <trkpt lat="44.59535" lon="-0.18708">
        <ele>72</ele>
        <time>2015-02-16T13:25:21Z</time>
      </trkpt>
      <trkpt lat="44.59539" lon="-0.18721">
        <ele>74</ele>
        <time>2015-02-16T13:25:30Z</time>
      </trkpt>
      <trkpt lat="44.59545" lon="-0.18731">
        <ele>76</ele>
        <time>2015-02-16T13:25:37Z</time>
      </trkpt>
      <trkpt lat="44.59551" lon="-0.18741">
        <ele>77</ele>
        <time>2015-02-16T13:25:46Z</time>
      </trkpt>
      <trkpt lat="44.59556" lon="-0.18752">
        <ele>79</ele>
        <time>2015-02-16T13:25:56Z</time>
      </trkpt>
      <trkpt lat="44.59563" lon="-0.18756">
        <ele>81</ele>
        <time>2015-02-16T13:26:26Z</time>
      </trkpt>
      <trkpt lat="44.59565" lon="-0.18755">
        <ele>82</ele>
        <time>2015-02-16T13:26:45Z</time>
      </trkpt>
      <trkpt lat="44.59573" lon="-0.18749">
        <ele>82</ele>
        <time>2015-02-16T13:26:56Z</time>
      </trkpt>
      <trkpt lat="44.59579" lon="-0.18742">
        <ele>84</ele>
        <time>2015-02-16T13:27:26Z</time>
      </trkpt>
      <trkpt lat="44.59579" lon="-0.18742">
        <ele>84</ele>
        <time>2015-02-16T13:27:56Z</time>
      </trkpt>
      <trkpt lat="44.59579" lon="-0.18742">
        <ele>84</ele>
        <time>2015-02-16T13:28:03Z</time>
      </trkpt>
      <trkpt lat="44.59579" lon="-0.18742">
        <ele>85</ele>
        <time>2015-02-16T13:28:33Z</time>
      </trkpt>
      <trkpt lat="44.59575" lon="-0.18747">
        <ele>82</ele>
        <time>2015-02-16T13:29:03Z</time>
      </trkpt>
      <trkpt lat="44.59566" lon="-0.1876">
        <ele>79</ele>
        <time>2015-02-16T13:29:24Z</time>
      </trkpt>
      <trkpt lat="44.59563" lon="-0.18773">
        <ele>80</ele>
        <time>2015-02-16T13:29:52Z</time>
      </trkpt>
      <trkpt lat="44.59568" lon="-0.18783">
        <ele>80</ele>
        <time>2015-02-16T13:29:59Z</time>
      </trkpt>
      <trkpt lat="44.59573" lon="-0.18794">
        <ele>81</ele>
        <time>2015-02-16T13:30:06Z</time>
      </trkpt>
      <trkpt lat="44.59577" lon="-0.18806">
        <ele>79</ele>
        <time>2015-02-16T13:30:14Z</time>
      </trkpt>
      <trkpt lat="44.59579" lon="-0.18813">
        <ele>77</ele>
        <time>2015-02-16T13:30:44Z</time>
      </trkpt>
      <trkpt lat="44.59582" lon="-0.18817">
        <ele>78</ele>
        <time>2015-02-16T13:31:05Z</time>
      </trkpt>
      <trkpt lat="44.59589" lon="-0.18825">
        <ele>76</ele>
        <time>2015-02-16T13:31:14Z</time>
      </trkpt>
      <trkpt lat="44.59595" lon="-0.18836">
        <ele>72</ele>
        <time>2015-02-16T13:31:23Z</time>
      </trkpt>
      <trkpt lat="44.59599" lon="-0.18848">
        <ele>71</ele>
        <time>2015-02-16T13:31:31Z</time>
      </trkpt>
      <trkpt lat="44.59603" lon="-0.1886">
        <ele>71</ele>
        <time>2015-02-16T13:31:39Z</time>
      </trkpt>
      <trkpt lat="44.59607" lon="-0.18872">
        <ele>69</ele>
        <time>2015-02-16T13:31:46Z</time>
      </trkpt>
      <trkpt lat="44.59612" lon="-0.18882">
        <ele>70</ele>
        <time>2015-02-16T13:31:53Z</time>
      </trkpt>
      <trkpt lat="44.59621" lon="-0.18905">
        <ele>65</ele>
        <time>2015-02-16T13:32:10Z</time>
      </trkpt>
      <trkpt lat="44.59627" lon="-0.18917">
        <ele>65</ele>
        <time>2015-02-16T13:32:19Z</time>
      </trkpt>
      <trkpt lat="44.59631" lon="-0.18929">
        <ele>66</ele>
        <time>2015-02-16T13:32:27Z</time>
      </trkpt>
      <trkpt lat="44.59631" lon="-0.18956">
        <ele>73</ele>
        <time>2015-02-16T13:33:05Z</time>
      </trkpt>
      <trkpt lat="44.59634" lon="-0.18968">
        <ele>74</ele>
        <time>2015-02-16T13:33:15Z</time>
      </trkpt>
      <trkpt lat="44.59643" lon="-0.1897">
        <ele>74</ele>
        <time>2015-02-16T13:33:25Z</time>
      </trkpt>
      <trkpt lat="44.59653" lon="-0.18969">
        <ele>75</ele>
        <time>2015-02-16T13:33:35Z</time>
      </trkpt>
      <trkpt lat="44.59662" lon="-0.18969">
        <ele>77</ele>
        <time>2015-02-16T13:33:45Z</time>
      </trkpt>
      <trkpt lat="44.5967" lon="-0.18965">
        <ele>75</ele>
        <time>2015-02-16T13:33:59Z</time>
      </trkpt>
      <trkpt lat="44.59679" lon="-0.18958">
        <ele>75</ele>
        <time>2015-02-16T13:34:08Z</time>
      </trkpt>
      <trkpt lat="44.59687" lon="-0.18952">
        <ele>76</ele>
        <time>2015-02-16T13:34:17Z</time>
      </trkpt>
      <trkpt lat="44.59695" lon="-0.18959">
        <ele>76</ele>
        <time>2015-02-16T13:34:32Z</time>
      </trkpt>
      <trkpt lat="44.59704" lon="-0.18983">
        <ele>77</ele>
        <time>2015-02-16T13:34:52Z</time>
      </trkpt>
      <trkpt lat="44.59708" lon="-0.18995">
        <ele>77</ele>
        <time>2015-02-16T13:35:00Z</time>
      </trkpt>
      <trkpt lat="44.59714" lon="-0.19021">
        <ele>76</ele>
        <time>2015-02-16T13:35:15Z</time>
      </trkpt>
      <trkpt lat="44.59717" lon="-0.19033">
        <ele>76</ele>
        <time>2015-02-16T13:35:23Z</time>
      </trkpt>
      <trkpt lat="44.5972" lon="-0.19046">
        <ele>74</ele>
        <time>2015-02-16T13:35:31Z</time>
      </trkpt>
      <trkpt lat="44.59724" lon="-0.19059">
        <ele>73</ele>
        <time>2015-02-16T13:35:39Z</time>
      </trkpt>
      <trkpt lat="44.59728" lon="-0.19086">
        <ele>74</ele>
        <time>2015-02-16T13:35:56Z</time>
      </trkpt>
      <trkpt lat="44.59731" lon="-0.19099">
        <ele>73</ele>
        <time>2015-02-16T13:36:04Z</time>
      </trkpt>
      <trkpt lat="44.59734" lon="-0.19112">
        <ele>76</ele>
        <time>2015-02-16T13:36:12Z</time>
      </trkpt>
      <trkpt lat="44.59739" lon="-0.19124">
        <ele>76</ele>
        <time>2015-02-16T13:36:20Z</time>
      </trkpt>
      <trkpt lat="44.59742" lon="-0.19136">
        <ele>76</ele>
        <time>2015-02-16T13:36:28Z</time>
      </trkpt>
      <trkpt lat="44.59751" lon="-0.19141">
        <ele>78</ele>
        <time>2015-02-16T13:36:40Z</time>
      </trkpt>
      <trkpt lat="44.5976" lon="-0.19136">
        <ele>79</ele>
        <time>2015-02-16T13:36:49Z</time>
      </trkpt>
      <trkpt lat="44.59769" lon="-0.19133">
        <ele>80</ele>
        <time>2015-02-16T13:36:59Z</time>
      </trkpt>
      <trkpt lat="44.59788" lon="-0.19129">
        <ele>81</ele>
        <time>2015-02-16T13:37:24Z</time>
      </trkpt>
      <trkpt lat="44.59795" lon="-0.19137">
        <ele>83</ele>
        <time>2015-02-16T13:37:40Z</time>
      </trkpt>
      <trkpt lat="44.59797" lon="-0.1915">
        <ele>83</ele>
        <time>2015-02-16T13:37:53Z</time>
      </trkpt>
      <trkpt lat="44.59801" lon="-0.19162">
        <ele>83</ele>
        <time>2015-02-16T13:38:06Z</time>
      </trkpt>
      <trkpt lat="44.59806" lon="-0.19189">
        <ele>84</ele>
        <time>2015-02-16T13:38:25Z</time>
      </trkpt>
      <trkpt lat="44.59809" lon="-0.19201">
        <ele>84</ele>
        <time>2015-02-16T13:38:35Z</time>
      </trkpt>
      <trkpt lat="44.5981" lon="-0.19215">
        <ele>85</ele>
        <time>2015-02-16T13:38:46Z</time>
      </trkpt>
      <trkpt lat="44.59812" lon="-0.19227">
        <ele>85</ele>
        <time>2015-02-16T13:39:02Z</time>
      </trkpt>
      <trkpt lat="44.59814" lon="-0.1924">
        <ele>85</ele>
        <time>2015-02-16T13:39:12Z</time>
      </trkpt>
      <trkpt lat="44.59815" lon="-0.19253">
        <ele>87</ele>
        <time>2015-02-16T13:39:23Z</time>
      </trkpt>
      <trkpt lat="44.59818" lon="-0.19266">
        <ele>88</ele>
        <time>2015-02-16T13:39:38Z</time>
      </trkpt>
      <trkpt lat="44.5982" lon="-0.19278">
        <ele>90</ele>
        <time>2015-02-16T13:39:57Z</time>
      </trkpt>
      <trkpt lat="44.59826" lon="-0.19289">
        <ele>92</ele>
        <time>2015-02-16T13:40:07Z</time>
      </trkpt>
      <trkpt lat="44.59826" lon="-0.19302">
        <ele>93</ele>
        <time>2015-02-16T13:40:37Z</time>
      </trkpt>
      <trkpt lat="44.59825" lon="-0.19308">
        <ele>91</ele>
        <time>2015-02-16T13:41:07Z</time>
      </trkpt>
      <trkpt lat="44.59825" lon="-0.19315">
        <ele>93</ele>
        <time>2015-02-16T13:41:28Z</time>
      </trkpt>
      <trkpt lat="44.59827" lon="-0.19327">
        <ele>94</ele>
        <time>2015-02-16T13:41:38Z</time>
      </trkpt>
      <trkpt lat="44.59829" lon="-0.19341">
        <ele>96</ele>
        <time>2015-02-16T13:41:49Z</time>
      </trkpt>
      <trkpt lat="44.59832" lon="-0.19354">
        <ele>96</ele>
        <time>2015-02-16T13:41:59Z</time>
      </trkpt>
      <trkpt lat="44.59833" lon="-0.19366">
        <ele>96</ele>
        <time>2015-02-16T13:42:08Z</time>
      </trkpt>
      <trkpt lat="44.59839" lon="-0.19377">
        <ele>96</ele>
        <time>2015-02-16T13:42:34Z</time>
      </trkpt>
      <trkpt lat="44.59848" lon="-0.19383">
        <ele>98</ele>
        <time>2015-02-16T13:42:46Z</time>
      </trkpt>
      <trkpt lat="44.59852" lon="-0.19396">
        <ele>97</ele>
        <time>2015-02-16T13:42:55Z</time>
      </trkpt>
      <trkpt lat="44.59858" lon="-0.19408">
        <ele>98</ele>
        <time>2015-02-16T13:43:04Z</time>
      </trkpt>
      <trkpt lat="44.59864" lon="-0.19417">
        <ele>98</ele>
        <time>2015-02-16T13:43:12Z</time>
      </trkpt>
      <trkpt lat="44.59867" lon="-0.19429">
        <ele>99</ele>
        <time>2015-02-16T13:43:21Z</time>
      </trkpt>
      <trkpt lat="44.59861" lon="-0.19439">
        <ele>98</ele>
        <time>2015-02-16T13:43:32Z</time>
      </trkpt>
      <trkpt lat="44.59852" lon="-0.19441">
        <ele>98</ele>
        <time>2015-02-16T13:43:42Z</time>
      </trkpt>
      <trkpt lat="44.59843" lon="-0.19447">
        <ele>96</ele>
        <time>2015-02-16T13:43:53Z</time>
      </trkpt>
      <trkpt lat="44.59836" lon="-0.19454">
        <ele>95</ele>
        <time>2015-02-16T13:44:01Z</time>
      </trkpt>
      <trkpt lat="44.59838" lon="-0.19467">
        <ele>92</ele>
        <time>2015-02-16T13:44:12Z</time>
      </trkpt>
      <trkpt lat="44.5984" lon="-0.1948">
        <ele>93</ele>
        <time>2015-02-16T13:44:22Z</time>
      </trkpt>
      <trkpt lat="44.59844" lon="-0.19494">
        <ele>97</ele>
        <time>2015-02-16T13:44:39Z</time>
      </trkpt>
      <trkpt lat="44.59846" lon="-0.19507">
        <ele>95</ele>
        <time>2015-02-16T13:44:46Z</time>
      </trkpt>
      <trkpt lat="44.59854" lon="-0.19532">
        <ele>92</ele>
        <time>2015-02-16T13:45:05Z</time>
      </trkpt>
      <trkpt lat="44.59857" lon="-0.19544">
        <ele>92</ele>
        <time>2015-02-16T13:45:22Z</time>
      </trkpt>
      <trkpt lat="44.59862" lon="-0.19556">
        <ele>89</ele>
        <time>2015-02-16T13:45:30Z</time>
      </trkpt>
      <trkpt lat="44.59866" lon="-0.19568">
        <ele>89</ele>
        <time>2015-02-16T13:45:38Z</time>
      </trkpt>
      <trkpt lat="44.59873" lon="-0.19579">
        <ele>92</ele>
        <time>2015-02-16T13:45:46Z</time>
      </trkpt>
      <trkpt lat="44.59875" lon="-0.19591">
        <ele>92</ele>
        <time>2015-02-16T13:45:54Z</time>
      </trkpt>
      <trkpt lat="44.59882" lon="-0.19601">
        <ele>95</ele>
        <time>2015-02-16T13:46:05Z</time>
      </trkpt>
      <trkpt lat="44.59886" lon="-0.19612">
        <ele>97</ele>
        <time>2015-02-16T13:46:18Z</time>
      </trkpt>
      <trkpt lat="44.59885" lon="-0.19626">
        <ele>97</ele>
        <time>2015-02-16T13:46:30Z</time>
      </trkpt>
      <trkpt lat="44.59882" lon="-0.19638">
        <ele>96</ele>
        <time>2015-02-16T13:46:39Z</time>
      </trkpt>
      <trkpt lat="44.59885" lon="-0.19625">
        <ele>92</ele>
        <time>2015-02-16T13:46:57Z</time>
      </trkpt>
      <trkpt lat="44.59892" lon="-0.19632">
        <ele>95</ele>
        <time>2015-02-16T13:47:25Z</time>
      </trkpt>
      <trkpt lat="44.59897" lon="-0.19644">
        <ele>95</ele>
        <time>2015-02-16T13:47:54Z</time>
      </trkpt>
      <trkpt lat="44.59897" lon="-0.19657">
        <ele>93</ele>
        <time>2015-02-16T13:48:02Z</time>
      </trkpt>
      <trkpt lat="44.59896" lon="-0.19669">
        <ele>93</ele>
        <time>2015-02-16T13:48:10Z</time>
      </trkpt>
      <trkpt lat="44.59895" lon="-0.19672">
        <ele>89</ele>
        <time>2015-02-16T13:48:40Z</time>
      </trkpt>
      <trkpt lat="44.59894" lon="-0.19681">
        <ele>91</ele>
        <time>2015-02-16T13:49:10Z</time>
      </trkpt>
      <trkpt lat="44.59894" lon="-0.19682">
        <ele>91</ele>
        <time>2015-02-16T13:49:58Z</time>
      </trkpt>
      <trkpt lat="44.59892" lon="-0.19694">
        <ele>90</ele>
        <time>2015-02-16T13:50:07Z</time>
      </trkpt>
      <trkpt lat="44.59886" lon="-0.19706">
        <ele>91</ele>
        <time>2015-02-16T13:50:15Z</time>
      </trkpt>
      <trkpt lat="44.59882" lon="-0.19717">
        <ele>91</ele>
        <time>2015-02-16T13:50:23Z</time>
      </trkpt>
      <trkpt lat="44.59877" lon="-0.1973">
        <ele>93</ele>
        <time>2015-02-16T13:50:32Z</time>
      </trkpt>
      <trkpt lat="44.59874" lon="-0.19743">
        <ele>94</ele>
        <time>2015-02-16T13:50:42Z</time>
      </trkpt>
      <trkpt lat="44.59873" lon="-0.19756">
        <ele>95</ele>
        <time>2015-02-16T13:50:57Z</time>
      </trkpt>
      <trkpt lat="44.59873" lon="-0.19769">
        <ele>98</ele>
        <time>2015-02-16T13:51:09Z</time>
      </trkpt>
      <trkpt lat="44.59872" lon="-0.19782">
        <ele>102</ele>
        <time>2015-02-16T13:51:28Z</time>
      </trkpt>
      <trkpt lat="44.59871" lon="-0.19795">
        <ele>103</ele>
        <time>2015-02-16T13:51:41Z</time>
      </trkpt>
      <trkpt lat="44.59872" lon="-0.19808">
        <ele>104</ele>
        <time>2015-02-16T13:51:57Z</time>
      </trkpt>
      <trkpt lat="44.59873" lon="-0.19795">
        <ele>102</ele>
        <time>2015-02-16T13:52:15Z</time>
      </trkpt>
      <trkpt lat="44.59865" lon="-0.19788">
        <ele>101</ele>
        <time>2015-02-16T13:52:23Z</time>
      </trkpt>
      <trkpt lat="44.59856" lon="-0.19795">
        <ele>103</ele>
        <time>2015-02-16T13:52:32Z</time>
      </trkpt>
      <trkpt lat="44.59854" lon="-0.19808">
        <ele>107</ele>
        <time>2015-02-16T13:52:44Z</time>
      </trkpt>
      <trkpt lat="44.59849" lon="-0.19818">
        <ele>110</ele>
        <time>2015-02-16T13:52:56Z</time>
      </trkpt>
      <trkpt lat="44.59848" lon="-0.19831">
        <ele>113</ele>
        <time>2015-02-16T13:53:09Z</time>
      </trkpt>
      <trkpt lat="44.59857" lon="-0.19837">
        <ele>112</ele>
        <time>2015-02-16T13:53:26Z</time>
      </trkpt>
      <trkpt lat="44.59865" lon="-0.19843">
        <ele>113</ele>
        <time>2015-02-16T13:53:38Z</time>
      </trkpt>
      <trkpt lat="44.59874" lon="-0.19845">
        <ele>112</ele>
        <time>2015-02-16T13:53:57Z</time>
      </trkpt>
      <trkpt lat="44.59882" lon="-0.19837">
        <ele>113</ele>
        <time>2015-02-16T13:54:06Z</time>
      </trkpt>
      <trkpt lat="44.59889" lon="-0.19829">
        <ele>114</ele>
        <time>2015-02-16T13:54:35Z</time>
      </trkpt>
      <trkpt lat="44.59898" lon="-0.19827">
        <ele>114</ele>
        <time>2015-02-16T13:54:55Z</time>
      </trkpt>
      <trkpt lat="44.59904" lon="-0.19836">
        <ele>114</ele>
        <time>2015-02-16T13:55:04Z</time>
      </trkpt>
      <trkpt lat="44.5991" lon="-0.19846">
        <ele>116</ele>
        <time>2015-02-16T13:55:14Z</time>
      </trkpt>
      <trkpt lat="44.59916" lon="-0.19855">
        <ele>117</ele>
        <time>2015-02-16T13:55:24Z</time>
      </trkpt>
      <trkpt lat="44.5992" lon="-0.19867">
        <ele>115</ele>
        <time>2015-02-16T13:55:35Z</time>
      </trkpt>
      <trkpt lat="44.59929" lon="-0.19873">
        <ele>116</ele>
        <time>2015-02-16T13:55:49Z</time>
      </trkpt>
      <trkpt lat="44.59937" lon="-0.19867">
        <ele>115</ele>
        <time>2015-02-16T13:55:56Z</time>
      </trkpt>
      <trkpt lat="44.59953" lon="-0.1985">
        <ele>115</ele>
        <time>2015-02-16T13:56:16Z</time>
      </trkpt>
      <trkpt lat="44.59953" lon="-0.19851">
        <ele>116</ele>
        <time>2015-02-16T13:56:46Z</time>
      </trkpt>
      <trkpt lat="44.59957" lon="-0.19858">
        <ele>118</ele>
        <time>2015-02-16T13:57:16Z</time>
      </trkpt>
      <trkpt lat="44.59957" lon="-0.19862">
        <ele>119</ele>
        <time>2015-02-16T13:57:19Z</time>
      </trkpt>
      <trkpt lat="44.5996" lon="-0.19874">
        <ele>118</ele>
        <time>2015-02-16T13:57:30Z</time>
      </trkpt>
      <trkpt lat="44.59965" lon="-0.19886">
        <ele>119</ele>
        <time>2015-02-16T13:57:40Z</time>
      </trkpt>
      <trkpt lat="44.59969" lon="-0.19898">
        <ele>120</ele>
        <time>2015-02-16T13:57:50Z</time>
      </trkpt>
      <trkpt lat="44.59977" lon="-0.19922">
        <ele>117</ele>
        <time>2015-02-16T13:58:11Z</time>
      </trkpt>
      <trkpt lat="44.59982" lon="-0.19934">
        <ele>117</ele>
        <time>2015-02-16T13:58:20Z</time>
      </trkpt>
      <trkpt lat="44.59986" lon="-0.19945">
        <ele>117</ele>
        <time>2015-02-16T13:58:30Z</time>
      </trkpt>
      <trkpt lat="44.59986" lon="-0.19945">
        <ele>118</ele>
        <time>2015-02-16T13:59:00Z</time>
      </trkpt>
      <trkpt lat="44.59989" lon="-0.19957">
        <ele>121</ele>
        <time>2015-02-16T13:59:41Z</time>
      </trkpt>
      <trkpt lat="44.59993" lon="-0.1997">
        <ele>115</ele>
        <time>2015-02-16T13:59:49Z</time>
      </trkpt>
      <trkpt lat="44.59995" lon="-0.19982">
        <ele>118</ele>
        <time>2015-02-16T13:59:57Z</time>
      </trkpt>
      <trkpt lat="44.59999" lon="-0.19994">
        <ele>116</ele>
        <time>2015-02-16T14:00:05Z</time>
      </trkpt>
      <trkpt lat="44.60003" lon="-0.20007">
        <ele>119</ele>
        <time>2015-02-16T14:00:15Z</time>
      </trkpt>
      <trkpt lat="44.60007" lon="-0.20019">
        <ele>120</ele>
        <time>2015-02-16T14:00:24Z</time>
      </trkpt>
      <trkpt lat="44.6001" lon="-0.20033">
        <ele>116</ele>
        <time>2015-02-16T14:00:31Z</time>
      </trkpt>
      <trkpt lat="44.60013" lon="-0.20046">
        <ele>115</ele>
        <time>2015-02-16T14:00:38Z</time>
      </trkpt>
      <trkpt lat="44.60016" lon="-0.2006">
        <ele>114</ele>
        <time>2015-02-16T14:00:46Z</time>
      </trkpt>
      <trkpt lat="44.60019" lon="-0.20073">
        <ele>114</ele>
        <time>2015-02-16T14:00:53Z</time>
      </trkpt>
      <trkpt lat="44.60023" lon="-0.20086">
        <ele>114</ele>
        <time>2015-02-16T14:01:01Z</time>
      </trkpt>
      <trkpt lat="44.60028" lon="-0.20098">
        <ele>113</ele>
        <time>2015-02-16T14:01:08Z</time>
      </trkpt>
      <trkpt lat="44.60031" lon="-0.2011">
        <ele>112</ele>
        <time>2015-02-16T14:01:15Z</time>
      </trkpt>
      <trkpt lat="44.60034" lon="-0.20123">
        <ele>108</ele>
        <time>2015-02-16T14:01:22Z</time>
      </trkpt>
      <trkpt lat="44.60037" lon="-0.20135">
        <ele>109</ele>
        <time>2015-02-16T14:01:29Z</time>
      </trkpt>
      <trkpt lat="44.6004" lon="-0.20149">
        <ele>109</ele>
        <time>2015-02-16T14:01:38Z</time>
      </trkpt>
      <trkpt lat="44.60043" lon="-0.20161">
        <ele>110</ele>
        <time>2015-02-16T14:01:46Z</time>
      </trkpt>
      <trkpt lat="44.60046" lon="-0.20173">
        <ele>111</ele>
        <time>2015-02-16T14:01:53Z</time>
      </trkpt>
      <trkpt lat="44.60051" lon="-0.20185">
        <ele>111</ele>
        <time>2015-02-16T14:02:00Z</time>
      </trkpt>
      <trkpt lat="44.60059" lon="-0.20209">
        <ele>113</ele>
        <time>2015-02-16T14:02:15Z</time>
      </trkpt>
      <trkpt lat="44.60062" lon="-0.20221">
        <ele>113</ele>
        <time>2015-02-16T14:02:23Z</time>
      </trkpt>
      <trkpt lat="44.60065" lon="-0.20235">
        <ele>111</ele>
        <time>2015-02-16T14:02:32Z</time>
      </trkpt>
      <trkpt lat="44.60068" lon="-0.20248">
        <ele>113</ele>
        <time>2015-02-16T14:02:40Z</time>
      </trkpt>
      <trkpt lat="44.60072" lon="-0.20261">
        <ele>113</ele>
        <time>2015-02-16T14:02:47Z</time>
      </trkpt>
      <trkpt lat="44.60076" lon="-0.20274">
        <ele>114</ele>
        <time>2015-02-16T14:02:54Z</time>
      </trkpt>
      <trkpt lat="44.60079" lon="-0.20287">
        <ele>115</ele>
        <time>2015-02-16T14:03:01Z</time>
      </trkpt>
      <trkpt lat="44.60083" lon="-0.20299">
        <ele>115</ele>
        <time>2015-02-16T14:03:08Z</time>
      </trkpt>
      <trkpt lat="44.60087" lon="-0.20312">
        <ele>114</ele>
        <time>2015-02-16T14:03:16Z</time>
      </trkpt>
      <trkpt lat="44.6009" lon="-0.20324">
        <ele>116</ele>
        <time>2015-02-16T14:03:24Z</time>
      </trkpt>
      <trkpt lat="44.60094" lon="-0.20335">
        <ele>115</ele>
        <time>2015-02-16T14:03:32Z</time>
      </trkpt>
      <trkpt lat="44.60095" lon="-0.20349">
        <ele>116</ele>
        <time>2015-02-16T14:03:42Z</time>
      </trkpt>
      <trkpt lat="44.60086" lon="-0.20353">
        <ele>114</ele>
        <time>2015-02-16T14:03:51Z</time>
      </trkpt>
      <trkpt lat="44.60078" lon="-0.2036">
        <ele>113</ele>
        <time>2015-02-16T14:04:01Z</time>
      </trkpt>
      <trkpt lat="44.60073" lon="-0.20361">
        <ele>113</ele>
        <time>2015-02-16T14:04:31Z</time>
      </trkpt>
      <trkpt lat="44.60076" lon="-0.20358">
        <ele>116</ele>
        <time>2015-02-16T14:04:49Z</time>
      </trkpt>
      <trkpt lat="44.60085" lon="-0.20353">
        <ele>115</ele>
        <time>2015-02-16T14:04:58Z</time>
      </trkpt>
      <trkpt lat="44.60094" lon="-0.2035">
        <ele>115</ele>
        <time>2015-02-16T14:05:08Z</time>
      </trkpt>
      <trkpt lat="44.60103" lon="-0.20355">
        <ele>114</ele>
        <time>2015-02-16T14:05:17Z</time>
      </trkpt>
      <trkpt lat="44.6011" lon="-0.20364">
        <ele>113</ele>
        <time>2015-02-16T14:05:25Z</time>
      </trkpt>
      <trkpt lat="44.60119" lon="-0.20369">
        <ele>113</ele>
        <time>2015-02-16T14:05:33Z</time>
      </trkpt>
      <trkpt lat="44.60127" lon="-0.20363">
        <ele>114</ele>
        <time>2015-02-16T14:05:42Z</time>
      </trkpt>
      <trkpt lat="44.60133" lon="-0.20373">
        <ele>113</ele>
        <time>2015-02-16T14:05:50Z</time>
      </trkpt>
      <trkpt lat="44.60139" lon="-0.20399">
        <ele>111</ele>
        <time>2015-02-16T14:06:07Z</time>
      </trkpt>
      <trkpt lat="44.60143" lon="-0.20411">
        <ele>112</ele>
        <time>2015-02-16T14:06:15Z</time>
      </trkpt>
      <trkpt lat="44.60146" lon="-0.20425">
        <ele>110</ele>
        <time>2015-02-16T14:06:23Z</time>
      </trkpt>
      <trkpt lat="44.60149" lon="-0.20439">
        <ele>110</ele>
        <time>2015-02-16T14:06:31Z</time>
      </trkpt>
      <trkpt lat="44.60149" lon="-0.20452">
        <ele>111</ele>
        <time>2015-02-16T14:06:38Z</time>
      </trkpt>
      <trkpt lat="44.6015" lon="-0.20465">
        <ele>108</ele>
        <time>2015-02-16T14:06:46Z</time>
      </trkpt>
      <trkpt lat="44.6015" lon="-0.20478">
        <ele>111</ele>
        <time>2015-02-16T14:06:53Z</time>
      </trkpt>
      <trkpt lat="44.60149" lon="-0.20491">
        <ele>111</ele>
        <time>2015-02-16T14:07:01Z</time>
      </trkpt>
      <trkpt lat="44.60154" lon="-0.20502">
        <ele>108</ele>
        <time>2015-02-16T14:07:09Z</time>
      </trkpt>
      <trkpt lat="44.60159" lon="-0.20514">
        <ele>110</ele>
        <time>2015-02-16T14:07:19Z</time>
      </trkpt>
      <trkpt lat="44.60164" lon="-0.20526">
        <ele>108</ele>
        <time>2015-02-16T14:07:27Z</time>
      </trkpt>
      <trkpt lat="44.60167" lon="-0.20539">
        <ele>108</ele>
        <time>2015-02-16T14:07:35Z</time>
      </trkpt>
      <trkpt lat="44.60169" lon="-0.20552">
        <ele>107</ele>
        <time>2015-02-16T14:07:44Z</time>
      </trkpt>
      <trkpt lat="44.60168" lon="-0.20566">
        <ele>109</ele>
        <time>2015-02-16T14:07:52Z</time>
      </trkpt>
      <trkpt lat="44.60167" lon="-0.20579">
        <ele>109</ele>
        <time>2015-02-16T14:08:00Z</time>
      </trkpt>
      <trkpt lat="44.60168" lon="-0.20593">
        <ele>108</ele>
        <time>2015-02-16T14:08:09Z</time>
      </trkpt>
      <trkpt lat="44.60168" lon="-0.20606">
        <ele>111</ele>
        <time>2015-02-16T14:08:18Z</time>
      </trkpt>
      <trkpt lat="44.60171" lon="-0.20622">
        <ele>114</ele>
        <time>2015-02-16T14:08:28Z</time>
      </trkpt>
      <trkpt lat="44.60174" lon="-0.20634">
        <ele>116</ele>
        <time>2015-02-16T14:08:36Z</time>
      </trkpt>
      <trkpt lat="44.60184" lon="-0.20659">
        <ele>110</ele>
        <time>2015-02-16T14:08:51Z</time>
      </trkpt>
      <trkpt lat="44.60189" lon="-0.2067">
        <ele>110</ele>
        <time>2015-02-16T14:09:00Z</time>
      </trkpt>
      <trkpt lat="44.60194" lon="-0.20683">
        <ele>111</ele>
        <time>2015-02-16T14:09:09Z</time>
      </trkpt>
      <trkpt lat="44.60199" lon="-0.20693">
        <ele>111</ele>
        <time>2015-02-16T14:09:17Z</time>
      </trkpt>
      <trkpt lat="44.60196" lon="-0.20699">
        <ele>109</ele>
        <time>2015-02-16T14:09:48Z</time>
      </trkpt>
      <trkpt lat="44.60198" lon="-0.20705">
        <ele>110</ele>
        <time>2015-02-16T14:09:57Z</time>
      </trkpt>
      <trkpt lat="44.60201" lon="-0.2071">
        <ele>107</ele>
        <time>2015-02-16T14:10:27Z</time>
      </trkpt>
      <trkpt lat="44.602" lon="-0.2071">
        <ele>107</ele>
        <time>2015-02-16T14:10:57Z</time>
      </trkpt>
      <trkpt lat="44.60201" lon="-0.20717">
        <ele>111</ele>
        <time>2015-02-16T14:11:10Z</time>
      </trkpt>
      <trkpt lat="44.60205" lon="-0.20728">
        <ele>112</ele>
        <time>2015-02-16T14:11:35Z</time>
      </trkpt>
      <trkpt lat="44.60214" lon="-0.20735">
        <ele>111</ele>
        <time>2015-02-16T14:12:01Z</time>
      </trkpt>
      <trkpt lat="44.60216" lon="-0.20747">
        <ele>112</ele>
        <time>2015-02-16T14:12:08Z</time>
      </trkpt>
      <trkpt lat="44.60209" lon="-0.20754">
        <ele>113</ele>
        <time>2015-02-16T14:12:16Z</time>
      </trkpt>
      <trkpt lat="44.602" lon="-0.20759">
        <ele>112</ele>
        <time>2015-02-16T14:12:24Z</time>
      </trkpt>
      <trkpt lat="44.60192" lon="-0.20764">
        <ele>113</ele>
        <time>2015-02-16T14:12:32Z</time>
      </trkpt>
      <trkpt lat="44.60183" lon="-0.20771">
        <ele>112</ele>
        <time>2015-02-16T14:12:42Z</time>
      </trkpt>
      <trkpt lat="44.60176" lon="-0.20779">
        <ele>112</ele>
        <time>2015-02-16T14:12:52Z</time>
      </trkpt>
      <trkpt lat="44.60175" lon="-0.20793">
        <ele>112</ele>
        <time>2015-02-16T14:13:13Z</time>
      </trkpt>
      <trkpt lat="44.60177" lon="-0.20805">
        <ele>113</ele>
        <time>2015-02-16T14:13:21Z</time>
      </trkpt>
      <trkpt lat="44.6018" lon="-0.20818">
        <ele>113</ele>
        <time>2015-02-16T14:13:30Z</time>
      </trkpt>
      <trkpt lat="44.60184" lon="-0.20831">
        <ele>113</ele>
        <time>2015-02-16T14:13:39Z</time>
      </trkpt>
      <trkpt lat="44.60187" lon="-0.20843">
        <ele>112</ele>
        <time>2015-02-16T14:13:48Z</time>
      </trkpt>
      <trkpt lat="44.60191" lon="-0.20855">
        <ele>109</ele>
        <time>2015-02-16T14:13:56Z</time>
      </trkpt>
      <trkpt lat="44.60198" lon="-0.2088">
        <ele>108</ele>
        <time>2015-02-16T14:14:12Z</time>
      </trkpt>
      <trkpt lat="44.60202" lon="-0.20892">
        <ele>107</ele>
        <time>2015-02-16T14:14:21Z</time>
      </trkpt>
      <trkpt lat="44.60205" lon="-0.20905">
        <ele>106</ele>
        <time>2015-02-16T14:14:30Z</time>
      </trkpt>
      <trkpt lat="44.60209" lon="-0.20917">
        <ele>107</ele>
        <time>2015-02-16T14:15:03Z</time>
      </trkpt>
      <trkpt lat="44.60213" lon="-0.20929">
        <ele>106</ele>
        <time>2015-02-16T14:15:11Z</time>
      </trkpt>
      <trkpt lat="44.60217" lon="-0.20941">
        <ele>105</ele>
        <time>2015-02-16T14:15:21Z</time>
      </trkpt>
      <trkpt lat="44.60217" lon="-0.20942">
        <ele>106</ele>
        <time>2015-02-16T14:15:51Z</time>
      </trkpt>
      <trkpt lat="44.60219" lon="-0.20947">
        <ele>106</ele>
        <time>2015-02-16T14:17:21Z</time>
      </trkpt>
      <trkpt lat="44.60222" lon="-0.20952">
        <ele>107</ele>
        <time>2015-02-16T14:17:39Z</time>
      </trkpt>
      <trkpt lat="44.60225" lon="-0.20965">
        <ele>108</ele>
        <time>2015-02-16T14:17:46Z</time>
      </trkpt>
      <trkpt lat="44.60229" lon="-0.20976">
        <ele>109</ele>
        <time>2015-02-16T14:17:53Z</time>
      </trkpt>
      <trkpt lat="44.60237" lon="-0.21">
        <ele>107</ele>
        <time>2015-02-16T14:18:08Z</time>
      </trkpt>
      <trkpt lat="44.6024" lon="-0.21014">
        <ele>107</ele>
        <time>2015-02-16T14:18:17Z</time>
      </trkpt>
      <trkpt lat="44.60242" lon="-0.21027">
        <ele>107</ele>
        <time>2015-02-16T14:18:24Z</time>
      </trkpt>
      <trkpt lat="44.60246" lon="-0.21039">
        <ele>108</ele>
        <time>2015-02-16T14:18:31Z</time>
      </trkpt>
      <trkpt lat="44.6025" lon="-0.21051">
        <ele>107</ele>
        <time>2015-02-16T14:18:38Z</time>
      </trkpt>
      <trkpt lat="44.60254" lon="-0.21063">
        <ele>107</ele>
        <time>2015-02-16T14:18:46Z</time>
      </trkpt>
      <trkpt lat="44.60257" lon="-0.21075">
        <ele>109</ele>
        <time>2015-02-16T14:19:09Z</time>
      </trkpt>
      <trkpt lat="44.60261" lon="-0.21087">
        <ele>109</ele>
        <time>2015-02-16T14:19:17Z</time>
      </trkpt>
      <trkpt lat="44.60264" lon="-0.211">
        <ele>109</ele>
        <time>2015-02-16T14:19:25Z</time>
      </trkpt>
      <trkpt lat="44.60268" lon="-0.21112">
        <ele>106</ele>
        <time>2015-02-16T14:19:33Z</time>
      </trkpt>
      <trkpt lat="44.60271" lon="-0.21125">
        <ele>104</ele>
        <time>2015-02-16T14:19:42Z</time>
      </trkpt>
      <trkpt lat="44.60274" lon="-0.21138">
        <ele>101</ele>
        <time>2015-02-16T14:19:52Z</time>
      </trkpt>
      <trkpt lat="44.60279" lon="-0.21149">
        <ele>97</ele>
        <time>2015-02-16T14:20:01Z</time>
      </trkpt>
      <trkpt lat="44.60282" lon="-0.21161">
        <ele>93</ele>
        <time>2015-02-16T14:20:09Z</time>
      </trkpt>
      <trkpt lat="44.60285" lon="-0.21174">
        <ele>92</ele>
        <time>2015-02-16T14:20:18Z</time>
      </trkpt>
      <trkpt lat="44.60286" lon="-0.21187">
        <ele>91</ele>
        <time>2015-02-16T14:20:27Z</time>
      </trkpt>
      <trkpt lat="44.60285" lon="-0.212">
        <ele>90</ele>
        <time>2015-02-16T14:20:36Z</time>
      </trkpt>
      <trkpt lat="44.60283" lon="-0.21213">
        <ele>86</ele>
        <time>2015-02-16T14:20:57Z</time>
      </trkpt>
      <trkpt lat="44.6028" lon="-0.21226">
        <ele>84</ele>
        <time>2015-02-16T14:21:06Z</time>
      </trkpt>
      <trkpt lat="44.60275" lon="-0.21238">
        <ele>84</ele>
        <time>2015-02-16T14:21:15Z</time>
      </trkpt>
      <trkpt lat="44.60269" lon="-0.21249">
        <ele>84</ele>
        <time>2015-02-16T14:21:24Z</time>
      </trkpt>
      <trkpt lat="44.60263" lon="-0.21258">
        <ele>84</ele>
        <time>2015-02-16T14:21:32Z</time>
      </trkpt>
      <trkpt lat="44.60254" lon="-0.21265">
        <ele>84</ele>
        <time>2015-02-16T14:21:40Z</time>
      </trkpt>
      <trkpt lat="44.60246" lon="-0.2127">
        <ele>84</ele>
        <time>2015-02-16T14:21:48Z</time>
      </trkpt>
      <trkpt lat="44.60237" lon="-0.21273">
        <ele>84</ele>
        <time>2015-02-16T14:21:57Z</time>
      </trkpt>
      <trkpt lat="44.60229" lon="-0.21277">
        <ele>84</ele>
        <time>2015-02-16T14:22:05Z</time>
      </trkpt>
      <trkpt lat="44.60219" lon="-0.21279">
        <ele>84</ele>
        <time>2015-02-16T14:22:13Z</time>
      </trkpt>
      <trkpt lat="44.6021" lon="-0.21283">
        <ele>83</ele>
        <time>2015-02-16T14:22:22Z</time>
      </trkpt>
      <trkpt lat="44.60202" lon="-0.21292">
        <ele>82</ele>
        <time>2015-02-16T14:22:37Z</time>
      </trkpt>
      <trkpt lat="44.60193" lon="-0.21294">
        <ele>82</ele>
        <time>2015-02-16T14:22:47Z</time>
      </trkpt>
      <trkpt lat="44.60175" lon="-0.213">
        <ele>78</ele>
        <time>2015-02-16T14:23:04Z</time>
      </trkpt>
      <trkpt lat="44.60157" lon="-0.21306">
        <ele>75</ele>
        <time>2015-02-16T14:23:21Z</time>
      </trkpt>
      <trkpt lat="44.60148" lon="-0.21312">
        <ele>75</ele>
        <time>2015-02-16T14:23:29Z</time>
      </trkpt>
      <trkpt lat="44.6014" lon="-0.21318">
        <ele>70</ele>
        <time>2015-02-16T14:23:58Z</time>
      </trkpt>
      <trkpt lat="44.6013" lon="-0.21315">
        <ele>69</ele>
        <time>2015-02-16T14:24:18Z</time>
      </trkpt>
      <trkpt lat="44.60121" lon="-0.21316">
        <ele>68</ele>
        <time>2015-02-16T14:24:35Z</time>
      </trkpt>
      <trkpt lat="44.60117" lon="-0.21314">
        <ele>67</ele>
        <time>2015-02-16T14:25:05Z</time>
      </trkpt>
      <trkpt lat="44.60111" lon="-0.21313">
        <ele>67</ele>
        <time>2015-02-16T14:25:10Z</time>
      </trkpt>
      <trkpt lat="44.60102" lon="-0.2131">
        <ele>68</ele>
        <time>2015-02-16T14:25:18Z</time>
      </trkpt>
      <trkpt lat="44.60092" lon="-0.21309">
        <ele>66</ele>
        <time>2015-02-16T14:25:31Z</time>
      </trkpt>
      <trkpt lat="44.60083" lon="-0.21313">
        <ele>63</ele>
        <time>2015-02-16T14:25:41Z</time>
      </trkpt>
      <trkpt lat="44.60076" lon="-0.21323">
        <ele>61</ele>
        <time>2015-02-16T14:25:50Z</time>
      </trkpt>
      <trkpt lat="44.60074" lon="-0.21335">
        <ele>60</ele>
        <time>2015-02-16T14:25:57Z</time>
      </trkpt>
      <trkpt lat="44.60074" lon="-0.21349">
        <ele>60</ele>
        <time>2015-02-16T14:26:05Z</time>
      </trkpt>
      <trkpt lat="44.60073" lon="-0.21362">
        <ele>59</ele>
        <time>2015-02-16T14:26:13Z</time>
      </trkpt>
      <trkpt lat="44.60072" lon="-0.21376">
        <ele>59</ele>
        <time>2015-02-16T14:26:21Z</time>
      </trkpt>
      <trkpt lat="44.60068" lon="-0.21389">
        <ele>59</ele>
        <time>2015-02-16T14:26:29Z</time>
      </trkpt>
      <trkpt lat="44.60066" lon="-0.21403">
        <ele>59</ele>
        <time>2015-02-16T14:26:37Z</time>
      </trkpt>
      <trkpt lat="44.60065" lon="-0.21417">
        <ele>58</ele>
        <time>2015-02-16T14:26:46Z</time>
      </trkpt>
      <trkpt lat="44.60063" lon="-0.2143">
        <ele>58</ele>
        <time>2015-02-16T14:26:54Z</time>
      </trkpt>
      <trkpt lat="44.6006" lon="-0.21474">
        <ele>57</ele>
        <time>2015-02-16T14:27:21Z</time>
      </trkpt>
      <trkpt lat="44.60058" lon="-0.21487">
        <ele>57</ele>
        <time>2015-02-16T14:27:29Z</time>
      </trkpt>
      <trkpt lat="44.60057" lon="-0.21502">
        <ele>58</ele>
        <time>2015-02-16T14:27:38Z</time>
      </trkpt>
      <trkpt lat="44.60055" lon="-0.21516">
        <ele>58</ele>
        <time>2015-02-16T14:27:47Z</time>
      </trkpt>
      <trkpt lat="44.60055" lon="-0.2153">
        <ele>56</ele>
        <time>2015-02-16T14:27:57Z</time>
      </trkpt>
      <trkpt lat="44.60059" lon="-0.21538">
        <ele>60</ele>
        <time>2015-02-16T14:28:27Z</time>
      </trkpt>
      <trkpt lat="44.60063" lon="-0.21538">
        <ele>61</ele>
        <time>2015-02-16T14:28:31Z</time>
      </trkpt>
      <trkpt lat="44.60073" lon="-0.21536">
        <ele>62</ele>
        <time>2015-02-16T14:28:40Z</time>
      </trkpt>
      <trkpt lat="44.60083" lon="-0.21535">
        <ele>63</ele>
        <time>2015-02-16T14:28:48Z</time>
      </trkpt>
      <trkpt lat="44.60092" lon="-0.21532">
        <ele>63</ele>
        <time>2015-02-16T14:28:57Z</time>
      </trkpt>
      <trkpt lat="44.60107" lon="-0.2153">
        <ele>66</ele>
        <time>2015-02-16T14:29:14Z</time>
      </trkpt>
      <trkpt lat="44.60117" lon="-0.21529">
        <ele>67</ele>
        <time>2015-02-16T14:29:23Z</time>
      </trkpt>
      <trkpt lat="44.60127" lon="-0.21528">
        <ele>68</ele>
        <time>2015-02-16T14:29:31Z</time>
      </trkpt>
      <trkpt lat="44.6015" lon="-0.21524">
        <ele>71</ele>
        <time>2015-02-16T14:29:55Z</time>
      </trkpt>
      <trkpt lat="44.60161" lon="-0.21523">
        <ele>71</ele>
        <time>2015-02-16T14:30:08Z</time>
      </trkpt>
      <trkpt lat="44.60171" lon="-0.21523">
        <ele>72</ele>
        <time>2015-02-16T14:30:17Z</time>
      </trkpt>
      <trkpt lat="44.60181" lon="-0.21521">
        <ele>71</ele>
        <time>2015-02-16T14:30:25Z</time>
      </trkpt>
      <trkpt lat="44.60184" lon="-0.21521">
        <ele>71</ele>
        <time>2015-02-16T14:30:55Z</time>
      </trkpt>
      <trkpt lat="44.60183" lon="-0.21522">
        <ele>69</ele>
        <time>2015-02-16T14:31:27Z</time>
      </trkpt>
      <trkpt lat="44.60183" lon="-0.21528">
        <ele>68</ele>
        <time>2015-02-16T14:31:37Z</time>
      </trkpt>
      <trkpt lat="44.60184" lon="-0.21542">
        <ele>70</ele>
        <time>2015-02-16T14:31:43Z</time>
      </trkpt>
      <trkpt lat="44.60186" lon="-0.21555">
        <ele>69</ele>
        <time>2015-02-16T14:31:49Z</time>
      </trkpt>
      <trkpt lat="44.60188" lon="-0.21581">
        <ele>68</ele>
        <time>2015-02-16T14:32:04Z</time>
      </trkpt>
      <trkpt lat="44.60189" lon="-0.21595">
        <ele>71</ele>
        <time>2015-02-16T14:32:11Z</time>
      </trkpt>
      <trkpt lat="44.60192" lon="-0.21615">
        <ele>72</ele>
        <time>2015-02-16T14:32:22Z</time>
      </trkpt>
      <trkpt lat="44.60193" lon="-0.21628">
        <ele>72</ele>
        <time>2015-02-16T14:32:30Z</time>
      </trkpt>
      <trkpt lat="44.60195" lon="-0.21651">
        <ele>71</ele>
        <time>2015-02-16T14:32:45Z</time>
      </trkpt>
      <trkpt lat="44.60198" lon="-0.21678">
        <ele>71</ele>
        <time>2015-02-16T14:33:00Z</time>
      </trkpt>
      <trkpt lat="44.602" lon="-0.21691">
        <ele>71</ele>
        <time>2015-02-16T14:33:07Z</time>
      </trkpt>
      <trkpt lat="44.602" lon="-0.21705">
        <ele>70</ele>
        <time>2015-02-16T14:33:17Z</time>
      </trkpt>
      <trkpt lat="44.60202" lon="-0.21718">
        <ele>71</ele>
        <time>2015-02-16T14:33:25Z</time>
      </trkpt>
      <trkpt lat="44.60205" lon="-0.21739">
        <ele>71</ele>
        <time>2015-02-16T14:33:37Z</time>
      </trkpt>
      <trkpt lat="44.60205" lon="-0.21753">
        <ele>70</ele>
        <time>2015-02-16T14:33:45Z</time>
      </trkpt>
      <trkpt lat="44.60207" lon="-0.21767">
        <ele>69</ele>
        <time>2015-02-16T14:33:53Z</time>
      </trkpt>
      <trkpt lat="44.60211" lon="-0.2178">
        <ele>70</ele>
        <time>2015-02-16T14:34:01Z</time>
      </trkpt>
      <trkpt lat="44.60211" lon="-0.21793">
        <ele>70</ele>
        <time>2015-02-16T14:34:09Z</time>
      </trkpt>
      <trkpt lat="44.60214" lon="-0.21808">
        <ele>69</ele>
        <time>2015-02-16T14:34:18Z</time>
      </trkpt>
      <trkpt lat="44.60218" lon="-0.2182">
        <ele>70</ele>
        <time>2015-02-16T14:34:28Z</time>
      </trkpt>
      <trkpt lat="44.6022" lon="-0.21854">
        <ele>65</ele>
        <time>2015-02-16T14:34:50Z</time>
      </trkpt>
      <trkpt lat="44.60225" lon="-0.21858">
        <ele>65</ele>
        <time>2015-02-16T14:35:20Z</time>
      </trkpt>
      <trkpt lat="44.60223" lon="-0.21857">
        <ele>64</ele>
        <time>2015-02-16T14:35:42Z</time>
      </trkpt>
      <trkpt lat="44.60218" lon="-0.21868">
        <ele>60</ele>
        <time>2015-02-16T14:36:03Z</time>
      </trkpt>
      <trkpt lat="44.60214" lon="-0.21882">
        <ele>60</ele>
        <time>2015-02-16T14:36:11Z</time>
      </trkpt>
      <trkpt lat="44.60214" lon="-0.21896">
        <ele>60</ele>
        <time>2015-02-16T14:36:18Z</time>
      </trkpt>
      <trkpt lat="44.60214" lon="-0.21922">
        <ele>57</ele>
        <time>2015-02-16T14:36:32Z</time>
      </trkpt>
      <trkpt lat="44.60217" lon="-0.21936">
        <ele>57</ele>
        <time>2015-02-16T14:36:40Z</time>
      </trkpt>
      <trkpt lat="44.60219" lon="-0.21948">
        <ele>55</ele>
        <time>2015-02-16T14:36:48Z</time>
      </trkpt>
      <trkpt lat="44.60222" lon="-0.21961">
        <ele>55</ele>
        <time>2015-02-16T14:36:57Z</time>
      </trkpt>
      <trkpt lat="44.60224" lon="-0.21974">
        <ele>54</ele>
        <time>2015-02-16T14:37:04Z</time>
      </trkpt>
      <trkpt lat="44.60224" lon="-0.21987">
        <ele>53</ele>
        <time>2015-02-16T14:37:11Z</time>
      </trkpt>
      <trkpt lat="44.60225" lon="-0.22014">
        <ele>51</ele>
        <time>2015-02-16T14:37:26Z</time>
      </trkpt>
      <trkpt lat="44.60226" lon="-0.22027">
        <ele>52</ele>
        <time>2015-02-16T14:37:33Z</time>
      </trkpt>
      <trkpt lat="44.60226" lon="-0.2204">
        <ele>50</ele>
        <time>2015-02-16T14:37:40Z</time>
      </trkpt>
      <trkpt lat="44.60229" lon="-0.22052">
        <ele>47</ele>
        <time>2015-02-16T14:37:46Z</time>
      </trkpt>
      <trkpt lat="44.60227" lon="-0.22066">
        <ele>48</ele>
        <time>2015-02-16T14:37:53Z</time>
      </trkpt>
      <trkpt lat="44.60228" lon="-0.22079">
        <ele>47</ele>
        <time>2015-02-16T14:38:00Z</time>
      </trkpt>
      <trkpt lat="44.60227" lon="-0.22094">
        <ele>48</ele>
        <time>2015-02-16T14:38:08Z</time>
      </trkpt>
      <trkpt lat="44.60228" lon="-0.22108">
        <ele>46</ele>
        <time>2015-02-16T14:38:15Z</time>
      </trkpt>
      <trkpt lat="44.60226" lon="-0.22121">
        <ele>47</ele>
        <time>2015-02-16T14:38:22Z</time>
      </trkpt>
      <trkpt lat="44.60228" lon="-0.22135">
        <ele>43</ele>
        <time>2015-02-16T14:38:30Z</time>
      </trkpt>
      <trkpt lat="44.60228" lon="-0.22148">
        <ele>46</ele>
        <time>2015-02-16T14:38:38Z</time>
      </trkpt>
      <trkpt lat="44.60229" lon="-0.22161">
        <ele>47</ele>
        <time>2015-02-16T14:38:46Z</time>
      </trkpt>
      <trkpt lat="44.60224" lon="-0.22172">
        <ele>48</ele>
        <time>2015-02-16T14:39:11Z</time>
      </trkpt>
      <trkpt lat="44.60227" lon="-0.22184">
        <ele>49</ele>
        <time>2015-02-16T14:39:20Z</time>
      </trkpt>
      <trkpt lat="44.60226" lon="-0.22197">
        <ele>51</ele>
        <time>2015-02-16T14:39:31Z</time>
      </trkpt>
      <trkpt lat="44.60218" lon="-0.22207">
        <ele>48</ele>
        <time>2015-02-16T14:39:45Z</time>
      </trkpt>
      <trkpt lat="44.60209" lon="-0.22214">
        <ele>49</ele>
        <time>2015-02-16T14:39:50Z</time>
      </trkpt>
      <trkpt lat="44.60201" lon="-0.22223">
        <ele>46</ele>
        <time>2015-02-16T14:39:55Z</time>
      </trkpt>
      <trkpt lat="44.60194" lon="-0.22233">
        <ele>46</ele>
        <time>2015-02-16T14:40:01Z</time>
      </trkpt>
      <trkpt lat="44.60187" lon="-0.22244">
        <ele>43</ele>
        <time>2015-02-16T14:40:08Z</time>
      </trkpt>
      <trkpt lat="44.6018" lon="-0.22253">
        <ele>46</ele>
        <time>2015-02-16T14:40:16Z</time>
      </trkpt>
      <trkpt lat="44.60175" lon="-0.22263">
        <ele>41</ele>
        <time>2015-02-16T14:40:25Z</time>
      </trkpt>
      <trkpt lat="44.60166" lon="-0.22269">
        <ele>43</ele>
        <time>2015-02-16T14:40:36Z</time>
      </trkpt>
      <trkpt lat="44.60158" lon="-0.22277">
        <ele>46</ele>
        <time>2015-02-16T14:40:45Z</time>
      </trkpt>
      <trkpt lat="44.60156" lon="-0.2229">
        <ele>46</ele>
        <time>2015-02-16T14:41:10Z</time>
      </trkpt>
      <trkpt lat="44.60158" lon="-0.22303">
        <ele>44</ele>
        <time>2015-02-16T14:41:18Z</time>
      </trkpt>
      <trkpt lat="44.60162" lon="-0.22315">
        <ele>44</ele>
        <time>2015-02-16T14:41:26Z</time>
      </trkpt>
      <trkpt lat="44.60173" lon="-0.22352">
        <ele>46</ele>
        <time>2015-02-16T14:41:56Z</time>
      </trkpt>
      <trkpt lat="44.60181" lon="-0.22378">
        <ele>37</ele>
        <time>2015-02-16T14:42:12Z</time>
      </trkpt>
      <trkpt lat="44.60186" lon="-0.22389">
        <ele>36</ele>
        <time>2015-02-16T14:42:19Z</time>
      </trkpt>
      <trkpt lat="44.60191" lon="-0.224">
        <ele>36</ele>
        <time>2015-02-16T14:42:29Z</time>
      </trkpt>
      <trkpt lat="44.60197" lon="-0.22411">
        <ele>38</ele>
        <time>2015-02-16T14:42:37Z</time>
      </trkpt>
      <trkpt lat="44.60201" lon="-0.22423">
        <ele>37</ele>
        <time>2015-02-16T14:42:45Z</time>
      </trkpt>
      <trkpt lat="44.60205" lon="-0.22435">
        <ele>39</ele>
        <time>2015-02-16T14:42:52Z</time>
      </trkpt>
      <trkpt lat="44.60209" lon="-0.22447">
        <ele>37</ele>
        <time>2015-02-16T14:43:00Z</time>
      </trkpt>
      <trkpt lat="44.60201" lon="-0.22452">
        <ele>36</ele>
        <time>2015-02-16T14:43:12Z</time>
      </trkpt>
      <trkpt lat="44.60194" lon="-0.22446">
        <ele>38</ele>
        <time>2015-02-16T14:43:42Z</time>
      </trkpt>
      <trkpt lat="44.60193" lon="-0.22446">
        <ele>39</ele>
        <time>2015-02-16T14:43:45Z</time>
      </trkpt>
      <trkpt lat="44.60184" lon="-0.2244">
        <ele>40</ele>
        <time>2015-02-16T14:43:54Z</time>
      </trkpt>
      <trkpt lat="44.60182" lon="-0.22437">
        <ele>41</ele>
        <time>2015-02-16T14:44:54Z</time>
      </trkpt>
      <trkpt lat="44.60178" lon="-0.2243">
        <ele>43</ele>
        <time>2015-02-16T14:45:15Z</time>
      </trkpt>
      <trkpt lat="44.60174" lon="-0.22418">
        <ele>42</ele>
        <time>2015-02-16T14:45:23Z</time>
      </trkpt>
      <trkpt lat="44.60169" lon="-0.22406">
        <ele>41</ele>
        <time>2015-02-16T14:45:31Z</time>
      </trkpt>
      <trkpt lat="44.60166" lon="-0.22394">
        <ele>44</ele>
        <time>2015-02-16T14:45:43Z</time>
      </trkpt>
      <trkpt lat="44.60159" lon="-0.22383">
        <ele>44</ele>
        <time>2015-02-16T14:45:52Z</time>
      </trkpt>
      <trkpt lat="44.60154" lon="-0.2237">
        <ele>44</ele>
        <time>2015-02-16T14:45:59Z</time>
      </trkpt>
      <trkpt lat="44.60149" lon="-0.2236">
        <ele>42</ele>
        <time>2015-02-16T14:46:07Z</time>
      </trkpt>
      <trkpt lat="44.60143" lon="-0.2235">
        <ele>44</ele>
        <time>2015-02-16T14:46:16Z</time>
      </trkpt>
      <trkpt lat="44.60136" lon="-0.2234">
        <ele>46</ele>
        <time>2015-02-16T14:46:25Z</time>
      </trkpt>
      <trkpt lat="44.60129" lon="-0.22334">
        <ele>44</ele>
        <time>2015-02-16T14:46:33Z</time>
      </trkpt>
      <trkpt lat="44.60119" lon="-0.22336">
        <ele>45</ele>
        <time>2015-02-16T14:46:44Z</time>
      </trkpt>
      <trkpt lat="44.6011" lon="-0.22342">
        <ele>44</ele>
        <time>2015-02-16T14:46:55Z</time>
      </trkpt>
      <trkpt lat="44.60102" lon="-0.22346">
        <ele>46</ele>
        <time>2015-02-16T14:47:04Z</time>
      </trkpt>
      <trkpt lat="44.60086" lon="-0.22334">
        <ele>49</ele>
        <time>2015-02-16T14:47:44Z</time>
      </trkpt>
      <trkpt lat="44.60085" lon="-0.22333">
        <ele>49</ele>
        <time>2015-02-16T14:47:45Z</time>
      </trkpt>
      <trkpt lat="44.60078" lon="-0.22324">
        <ele>48</ele>
        <time>2015-02-16T14:47:53Z</time>
      </trkpt>
      <trkpt lat="44.6007" lon="-0.22316">
        <ele>47</ele>
        <time>2015-02-16T14:47:59Z</time>
      </trkpt>
      <trkpt lat="44.60064" lon="-0.22306">
        <ele>49</ele>
        <time>2015-02-16T14:48:08Z</time>
      </trkpt>
      <trkpt lat="44.60058" lon="-0.22295">
        <ele>50</ele>
        <time>2015-02-16T14:48:17Z</time>
      </trkpt>
      <trkpt lat="44.60052" lon="-0.22285">
        <ele>49</ele>
        <time>2015-02-16T14:48:28Z</time>
      </trkpt>
      <trkpt lat="44.6005" lon="-0.22272">
        <ele>46</ele>
        <time>2015-02-16T14:48:36Z</time>
      </trkpt>
      <trkpt lat="44.60044" lon="-0.22261">
        <ele>47</ele>
        <time>2015-02-16T14:48:59Z</time>
      </trkpt>
      <trkpt lat="44.60038" lon="-0.22251">
        <ele>49</ele>
        <time>2015-02-16T14:49:08Z</time>
      </trkpt>
      <trkpt lat="44.60032" lon="-0.22242">
        <ele>51</ele>
        <time>2015-02-16T14:49:14Z</time>
      </trkpt>
      <trkpt lat="44.60024" lon="-0.22233">
        <ele>51</ele>
        <time>2015-02-16T14:49:21Z</time>
      </trkpt>
      <trkpt lat="44.60016" lon="-0.22225">
        <ele>49</ele>
        <time>2015-02-16T14:49:28Z</time>
      </trkpt>
      <trkpt lat="44.60007" lon="-0.22218">
        <ele>53</ele>
        <time>2015-02-16T14:49:36Z</time>
      </trkpt>
      <trkpt lat="44.60001" lon="-0.22208">
        <ele>57</ele>
        <time>2015-02-16T14:49:43Z</time>
      </trkpt>
      <trkpt lat="44.59996" lon="-0.22196">
        <ele>54</ele>
        <time>2015-02-16T14:49:51Z</time>
      </trkpt>
      <trkpt lat="44.5999" lon="-0.22189">
        <ele>56</ele>
        <time>2015-02-16T14:50:21Z</time>
      </trkpt>
      <trkpt lat="44.59989" lon="-0.22186">
        <ele>56</ele>
        <time>2015-02-16T14:50:27Z</time>
      </trkpt>
      <trkpt lat="44.59984" lon="-0.22183">
        <ele>57</ele>
        <time>2015-02-16T14:50:57Z</time>
      </trkpt>
      <trkpt lat="44.59985" lon="-0.22182">
        <ele>55</ele>
        <time>2015-02-16T14:51:27Z</time>
      </trkpt>
      <trkpt lat="44.59985" lon="-0.22185">
        <ele>53</ele>
        <time>2015-02-16T14:52:27Z</time>
      </trkpt>
      <trkpt lat="44.59985" lon="-0.22187">
        <ele>52</ele>
        <time>2015-02-16T14:52:39Z</time>
      </trkpt>
      <trkpt lat="44.59978" lon="-0.22197">
        <ele>53</ele>
        <time>2015-02-16T14:52:54Z</time>
      </trkpt>
      <trkpt lat="44.59971" lon="-0.22204">
        <ele>54</ele>
        <time>2015-02-16T14:53:04Z</time>
      </trkpt>
      <trkpt lat="44.59955" lon="-0.22219">
        <ele>57</ele>
        <time>2015-02-16T14:53:24Z</time>
      </trkpt>
      <trkpt lat="44.59947" lon="-0.22226">
        <ele>58</ele>
        <time>2015-02-16T14:53:33Z</time>
      </trkpt>
      <trkpt lat="44.5994" lon="-0.22233">
        <ele>59</ele>
        <time>2015-02-16T14:53:44Z</time>
      </trkpt>
      <trkpt lat="44.59931" lon="-0.22229">
        <ele>61</ele>
        <time>2015-02-16T14:53:57Z</time>
      </trkpt>
      <trkpt lat="44.59924" lon="-0.2222">
        <ele>62</ele>
        <time>2015-02-16T14:54:07Z</time>
      </trkpt>
      <trkpt lat="44.59918" lon="-0.2223">
        <ele>62</ele>
        <time>2015-02-16T14:54:16Z</time>
      </trkpt>
      <trkpt lat="44.59911" lon="-0.22239">
        <ele>62</ele>
        <time>2015-02-16T14:54:25Z</time>
      </trkpt>
      <trkpt lat="44.59903" lon="-0.22247">
        <ele>60</ele>
        <time>2015-02-16T14:54:41Z</time>
      </trkpt>
      <trkpt lat="44.59896" lon="-0.22255">
        <ele>62</ele>
        <time>2015-02-16T14:54:49Z</time>
      </trkpt>
      <trkpt lat="44.5989" lon="-0.22264">
        <ele>62</ele>
        <time>2015-02-16T14:54:56Z</time>
      </trkpt>
      <trkpt lat="44.59882" lon="-0.22272">
        <ele>62</ele>
        <time>2015-02-16T14:55:03Z</time>
      </trkpt>
      <trkpt lat="44.59875" lon="-0.22282">
        <ele>63</ele>
        <time>2015-02-16T14:55:11Z</time>
      </trkpt>
      <trkpt lat="44.59866" lon="-0.22289">
        <ele>62</ele>
        <time>2015-02-16T14:55:19Z</time>
      </trkpt>
      <trkpt lat="44.59857" lon="-0.22293">
        <ele>63</ele>
        <time>2015-02-16T14:55:28Z</time>
      </trkpt>
      <trkpt lat="44.59852" lon="-0.22282">
        <ele>64</ele>
        <time>2015-02-16T14:55:35Z</time>
      </trkpt>
      <trkpt lat="44.59834" lon="-0.22249">
        <ele>70</ele>
        <time>2015-02-16T14:55:59Z</time>
      </trkpt>
      <trkpt lat="44.59828" lon="-0.22239">
        <ele>69</ele>
        <time>2015-02-16T14:56:11Z</time>
      </trkpt>
      <trkpt lat="44.59821" lon="-0.2223">
        <ele>67</ele>
        <time>2015-02-16T14:56:21Z</time>
      </trkpt>
      <trkpt lat="44.59815" lon="-0.22219">
        <ele>68</ele>
        <time>2015-02-16T14:56:31Z</time>
      </trkpt>
      <trkpt lat="44.59809" lon="-0.22208">
        <ele>68</ele>
        <time>2015-02-16T14:56:40Z</time>
      </trkpt>
      <trkpt lat="44.59804" lon="-0.22197">
        <ele>69</ele>
        <time>2015-02-16T14:56:49Z</time>
      </trkpt>
      <trkpt lat="44.59798" lon="-0.22187">
        <ele>70</ele>
        <time>2015-02-16T14:56:57Z</time>
      </trkpt>
      <trkpt lat="44.59793" lon="-0.22173">
        <ele>71</ele>
        <time>2015-02-16T14:57:06Z</time>
      </trkpt>
      <trkpt lat="44.59788" lon="-0.22162">
        <ele>71</ele>
        <time>2015-02-16T14:57:15Z</time>
      </trkpt>
      <trkpt lat="44.59782" lon="-0.22147">
        <ele>72</ele>
        <time>2015-02-16T14:57:26Z</time>
      </trkpt>
      <trkpt lat="44.59777" lon="-0.22137">
        <ele>73</ele>
        <time>2015-02-16T14:57:34Z</time>
      </trkpt>
      <trkpt lat="44.5977" lon="-0.22127">
        <ele>70</ele>
        <time>2015-02-16T14:57:44Z</time>
      </trkpt>
      <trkpt lat="44.59763" lon="-0.22119">
        <ele>71</ele>
        <time>2015-02-16T14:57:53Z</time>
      </trkpt>
      <trkpt lat="44.59755" lon="-0.22111">
        <ele>72</ele>
        <time>2015-02-16T14:58:03Z</time>
      </trkpt>
      <trkpt lat="44.59748" lon="-0.22101">
        <ele>70</ele>
        <time>2015-02-16T14:58:28Z</time>
      </trkpt>
      <trkpt lat="44.5974" lon="-0.22094">
        <ele>72</ele>
        <time>2015-02-16T14:58:37Z</time>
      </trkpt>
      <trkpt lat="44.59732" lon="-0.22087">
        <ele>72</ele>
        <time>2015-02-16T14:58:47Z</time>
      </trkpt>
      <trkpt lat="44.59723" lon="-0.22083">
        <ele>74</ele>
        <time>2015-02-16T14:59:01Z</time>
      </trkpt>
      <trkpt lat="44.59713" lon="-0.22081">
        <ele>75</ele>
        <time>2015-02-16T14:59:11Z</time>
      </trkpt>
      <trkpt lat="44.59704" lon="-0.22077">
        <ele>76</ele>
        <time>2015-02-16T14:59:22Z</time>
      </trkpt>
      <trkpt lat="44.59695" lon="-0.22074">
        <ele>80</ele>
        <time>2015-02-16T14:59:32Z</time>
      </trkpt>
      <trkpt lat="44.59685" lon="-0.22072">
        <ele>82</ele>
        <time>2015-02-16T14:59:45Z</time>
      </trkpt>
      <trkpt lat="44.59679" lon="-0.22068">
        <ele>81</ele>
        <time>2015-02-16T15:00:15Z</time>
      </trkpt>
      <trkpt lat="44.59677" lon="-0.22065">
        <ele>81</ele>
        <time>2015-02-16T15:00:17Z</time>
      </trkpt>
      <trkpt lat="44.59669" lon="-0.22059">
        <ele>77</ele>
        <time>2015-02-16T15:00:27Z</time>
      </trkpt>
      <trkpt lat="44.59665" lon="-0.22048">
        <ele>80</ele>
        <time>2015-02-16T15:00:36Z</time>
      </trkpt>
      <trkpt lat="44.59663" lon="-0.22034">
        <ele>80</ele>
        <time>2015-02-16T15:00:55Z</time>
      </trkpt>
      <trkpt lat="44.59662" lon="-0.22021">
        <ele>81</ele>
        <time>2015-02-16T15:01:02Z</time>
      </trkpt>
      <trkpt lat="44.5966" lon="-0.22014">
        <ele>85</ele>
        <time>2015-02-16T15:01:32Z</time>
      </trkpt>
      <trkpt lat="44.59657" lon="-0.2201">
        <ele>84</ele>
        <time>2015-02-16T15:01:38Z</time>
      </trkpt>
      <trkpt lat="44.59649" lon="-0.22005">
        <ele>82</ele>
        <time>2015-02-16T15:01:47Z</time>
      </trkpt>
      <trkpt lat="44.59639" lon="-0.22002">
        <ele>82</ele>
        <time>2015-02-16T15:01:55Z</time>
      </trkpt>
      <trkpt lat="44.5963" lon="-0.21997">
        <ele>80</ele>
        <time>2015-02-16T15:02:03Z</time>
      </trkpt>
      <trkpt lat="44.59622" lon="-0.2199">
        <ele>77</ele>
        <time>2015-02-16T15:02:11Z</time>
      </trkpt>
      <trkpt lat="44.59613" lon="-0.21987">
        <ele>78</ele>
        <time>2015-02-16T15:02:19Z</time>
      </trkpt>
      <trkpt lat="44.59603" lon="-0.21983">
        <ele>77</ele>
        <time>2015-02-16T15:02:28Z</time>
      </trkpt>
      <trkpt lat="44.59594" lon="-0.2198">
        <ele>75</ele>
        <time>2015-02-16T15:02:36Z</time>
      </trkpt>
      <trkpt lat="44.59585" lon="-0.21982">
        <ele>73</ele>
        <time>2015-02-16T15:02:44Z</time>
      </trkpt>
      <trkpt lat="44.59576" lon="-0.21985">
        <ele>71</ele>
        <time>2015-02-16T15:02:52Z</time>
      </trkpt>
      <trkpt lat="44.59567" lon="-0.21987">
        <ele>71</ele>
        <time>2015-02-16T15:02:59Z</time>
      </trkpt>
      <trkpt lat="44.59557" lon="-0.21989">
        <ele>70</ele>
        <time>2015-02-16T15:03:07Z</time>
      </trkpt>
      <trkpt lat="44.59549" lon="-0.21982">
        <ele>71</ele>
        <time>2015-02-16T15:03:15Z</time>
      </trkpt>
      <trkpt lat="44.5954" lon="-0.21982">
        <ele>68</ele>
        <time>2015-02-16T15:03:25Z</time>
      </trkpt>
      <trkpt lat="44.5953" lon="-0.21985">
        <ele>71</ele>
        <time>2015-02-16T15:03:34Z</time>
      </trkpt>
      <trkpt lat="44.59522" lon="-0.21989">
        <ele>72</ele>
        <time>2015-02-16T15:03:46Z</time>
      </trkpt>
      <trkpt lat="44.59503" lon="-0.21991">
        <ele>75</ele>
        <time>2015-02-16T15:04:05Z</time>
      </trkpt>
      <trkpt lat="44.59484" lon="-0.21995">
        <ele>77</ele>
        <time>2015-02-16T15:04:24Z</time>
      </trkpt>
      <trkpt lat="44.59474" lon="-0.21994">
        <ele>77</ele>
        <time>2015-02-16T15:04:38Z</time>
      </trkpt>
      <trkpt lat="44.59465" lon="-0.21997">
        <ele>78</ele>
        <time>2015-02-16T15:04:57Z</time>
      </trkpt>
      <trkpt lat="44.59459" lon="-0.21999">
        <ele>77</ele>
        <time>2015-02-16T15:05:27Z</time>
      </trkpt>
      <trkpt lat="44.59455" lon="-0.22">
        <ele>77</ele>
        <time>2015-02-16T15:05:31Z</time>
      </trkpt>
      <trkpt lat="44.59437" lon="-0.22003">
        <ele>76</ele>
        <time>2015-02-16T15:05:45Z</time>
      </trkpt>
      <trkpt lat="44.59435" lon="-0.22005">
        <ele>73</ele>
        <time>2015-02-16T15:06:15Z</time>
      </trkpt>
      <trkpt lat="44.59434" lon="-0.22006">
        <ele>73</ele>
        <time>2015-02-16T15:06:45Z</time>
      </trkpt>
      <trkpt lat="44.59428" lon="-0.22009">
        <ele>71</ele>
        <time>2015-02-16T15:08:04Z</time>
      </trkpt>
      <trkpt lat="44.59419" lon="-0.2201">
        <ele>70</ele>
        <time>2015-02-16T15:08:12Z</time>
      </trkpt>
      <trkpt lat="44.59409" lon="-0.22012">
        <ele>70</ele>
        <time>2015-02-16T15:08:20Z</time>
      </trkpt>
      <trkpt lat="44.594" lon="-0.22006">
        <ele>70</ele>
        <time>2015-02-16T15:08:40Z</time>
      </trkpt>
      <trkpt lat="44.5939" lon="-0.22003">
        <ele>69</ele>
        <time>2015-02-16T15:08:50Z</time>
      </trkpt>
      <trkpt lat="44.59381" lon="-0.22006">
        <ele>67</ele>
        <time>2015-02-16T15:09:00Z</time>
      </trkpt>
      <trkpt lat="44.59371" lon="-0.22008">
        <ele>65</ele>
        <time>2015-02-16T15:09:09Z</time>
      </trkpt>
      <trkpt lat="44.59362" lon="-0.22007">
        <ele>64</ele>
        <time>2015-02-16T15:09:18Z</time>
      </trkpt>
      <trkpt lat="44.59354" lon="-0.21999">
        <ele>64</ele>
        <time>2015-02-16T15:09:27Z</time>
      </trkpt>
      <trkpt lat="44.59344" lon="-0.21998">
        <ele>63</ele>
        <time>2015-02-16T15:09:36Z</time>
      </trkpt>
      <trkpt lat="44.59326" lon="-0.22004">
        <ele>61</ele>
        <time>2015-02-16T15:09:52Z</time>
      </trkpt>
      <trkpt lat="44.59306" lon="-0.22012">
        <ele>58</ele>
        <time>2015-02-16T15:10:10Z</time>
      </trkpt>
      <trkpt lat="44.59298" lon="-0.22016">
        <ele>56</ele>
        <time>2015-02-16T15:10:16Z</time>
      </trkpt>
      <trkpt lat="44.59288" lon="-0.22021">
        <ele>55</ele>
        <time>2015-02-16T15:10:31Z</time>
      </trkpt>
      <trkpt lat="44.59279" lon="-0.22023">
        <ele>52</ele>
        <time>2015-02-16T15:10:39Z</time>
      </trkpt>
      <trkpt lat="44.5927" lon="-0.22026">
        <ele>48</ele>
        <time>2015-02-16T15:10:47Z</time>
      </trkpt>
      <trkpt lat="44.59262" lon="-0.22017">
        <ele>48</ele>
        <time>2015-02-16T15:10:54Z</time>
      </trkpt>
      <trkpt lat="44.59257" lon="-0.22006">
        <ele>50</ele>
        <time>2015-02-16T15:11:01Z</time>
      </trkpt>
      <trkpt lat="44.59245" lon="-0.21997">
        <ele>49</ele>
        <time>2015-02-16T15:11:12Z</time>
      </trkpt>
      <trkpt lat="44.59236" lon="-0.21994">
        <ele>49</ele>
        <time>2015-02-16T15:11:21Z</time>
      </trkpt>
      <trkpt lat="44.59228" lon="-0.22002">
        <ele>50</ele>
        <time>2015-02-16T15:11:29Z</time>
      </trkpt>
      <trkpt lat="44.59221" lon="-0.22011">
        <ele>52</ele>
        <time>2015-02-16T15:11:37Z</time>
      </trkpt>
      <trkpt lat="44.59217" lon="-0.22022">
        <ele>57</ele>
        <time>2015-02-16T15:11:48Z</time>
      </trkpt>
      <trkpt lat="44.59216" lon="-0.22035">
        <ele>61</ele>
        <time>2015-02-16T15:12:02Z</time>
      </trkpt>
      <trkpt lat="44.59213" lon="-0.22048">
        <ele>64</ele>
        <time>2015-02-16T15:12:13Z</time>
      </trkpt>
      <trkpt lat="44.5921" lon="-0.2206">
        <ele>62</ele>
        <time>2015-02-16T15:12:23Z</time>
      </trkpt>
      <trkpt lat="44.59209" lon="-0.22074">
        <ele>61</ele>
        <time>2015-02-16T15:12:33Z</time>
      </trkpt>
      <trkpt lat="44.59204" lon="-0.22085">
        <ele>63</ele>
        <time>2015-02-16T15:12:45Z</time>
      </trkpt>
      <trkpt lat="44.59199" lon="-0.22095">
        <ele>62</ele>
        <time>2015-02-16T15:12:54Z</time>
      </trkpt>
      <trkpt lat="44.59192" lon="-0.22104">
        <ele>64</ele>
        <time>2015-02-16T15:13:04Z</time>
      </trkpt>
      <trkpt lat="44.59181" lon="-0.22104">
        <ele>65</ele>
        <time>2015-02-16T15:13:13Z</time>
      </trkpt>
      <trkpt lat="44.59173" lon="-0.22096">
        <ele>67</ele>
        <time>2015-02-16T15:13:22Z</time>
      </trkpt>
      <trkpt lat="44.59166" lon="-0.22088">
        <ele>69</ele>
        <time>2015-02-16T15:13:32Z</time>
      </trkpt>
      <trkpt lat="44.59158" lon="-0.22082">
        <ele>69</ele>
        <time>2015-02-16T15:13:42Z</time>
      </trkpt>
      <trkpt lat="44.59151" lon="-0.22073">
        <ele>72</ele>
        <time>2015-02-16T15:13:53Z</time>
      </trkpt>
      <trkpt lat="44.59144" lon="-0.22064">
        <ele>73</ele>
        <time>2015-02-16T15:14:02Z</time>
      </trkpt>
      <trkpt lat="44.59137" lon="-0.22055">
        <ele>71</ele>
        <time>2015-02-16T15:14:11Z</time>
      </trkpt>
      <trkpt lat="44.59125" lon="-0.22032">
        <ele>71</ele>
        <time>2015-02-16T15:14:28Z</time>
      </trkpt>
      <trkpt lat="44.59113" lon="-0.22021">
        <ele>77</ele>
        <time>2015-02-16T15:14:39Z</time>
      </trkpt>
      <trkpt lat="44.59105" lon="-0.22014">
        <ele>76</ele>
        <time>2015-02-16T15:14:49Z</time>
      </trkpt>
      <trkpt lat="44.59095" lon="-0.22004">
        <ele>74</ele>
        <time>2015-02-16T15:15:00Z</time>
      </trkpt>
      <trkpt lat="44.59085" lon="-0.22">
        <ele>76</ele>
        <time>2015-02-16T15:15:09Z</time>
      </trkpt>
      <trkpt lat="44.59073" lon="-0.22002">
        <ele>74</ele>
        <time>2015-02-16T15:15:21Z</time>
      </trkpt>
      <trkpt lat="44.59063" lon="-0.22003">
        <ele>74</ele>
        <time>2015-02-16T15:15:33Z</time>
      </trkpt>
      <trkpt lat="44.59053" lon="-0.22006">
        <ele>75</ele>
        <time>2015-02-16T15:15:42Z</time>
      </trkpt>
      <trkpt lat="44.59041" lon="-0.22009">
        <ele>79</ele>
        <time>2015-02-16T15:15:58Z</time>
      </trkpt>
      <trkpt lat="44.59022" lon="-0.21996">
        <ele>80</ele>
        <time>2015-02-16T15:16:17Z</time>
      </trkpt>
      <trkpt lat="44.59013" lon="-0.21993">
        <ele>77</ele>
        <time>2015-02-16T15:16:25Z</time>
      </trkpt>
      <trkpt lat="44.59001" lon="-0.21999">
        <ele>84</ele>
        <time>2015-02-16T15:16:33Z</time>
      </trkpt>
      <trkpt lat="44.58992" lon="-0.21999">
        <ele>87</ele>
        <time>2015-02-16T15:16:40Z</time>
      </trkpt>
      <trkpt lat="44.58973" lon="-0.21988">
        <ele>87</ele>
        <time>2015-02-16T15:16:58Z</time>
      </trkpt>
      <trkpt lat="44.58963" lon="-0.21988">
        <ele>92</ele>
        <time>2015-02-16T15:17:05Z</time>
      </trkpt>
      <trkpt lat="44.58946" lon="-0.21993">
        <ele>87</ele>
        <time>2015-02-16T15:17:19Z</time>
      </trkpt>
      <trkpt lat="44.58939" lon="-0.21983">
        <ele>83</ele>
        <time>2015-02-16T15:17:33Z</time>
      </trkpt>
      <trkpt lat="44.58929" lon="-0.21977">
        <ele>82</ele>
        <time>2015-02-16T15:17:40Z</time>
      </trkpt>
      <trkpt lat="44.58919" lon="-0.21981">
        <ele>95</ele>
        <time>2015-02-16T15:17:56Z</time>
      </trkpt>
      <trkpt lat="44.58911" lon="-0.21975">
        <ele>90</ele>
        <time>2015-02-16T15:18:01Z</time>
      </trkpt>
      <trkpt lat="44.58908" lon="-0.21963">
        <ele>85</ele>
        <time>2015-02-16T15:18:07Z</time>
      </trkpt>
      <trkpt lat="44.589" lon="-0.21955">
        <ele>90</ele>
        <time>2015-02-16T15:18:18Z</time>
      </trkpt>
      <trkpt lat="44.589" lon="-0.21953">
        <ele>88</ele>
        <time>2015-02-16T15:18:48Z</time>
      </trkpt>
      <trkpt lat="44.589" lon="-0.21954">
        <ele>88</ele>
        <time>2015-02-16T15:19:18Z</time>
      </trkpt>
      <trkpt lat="44.58892" lon="-0.2195">
        <ele>91</ele>
        <time>2015-02-16T15:20:29Z</time>
      </trkpt>
      <trkpt lat="44.58885" lon="-0.21941">
        <ele>92</ele>
        <time>2015-02-16T15:20:35Z</time>
      </trkpt>
      <trkpt lat="44.58877" lon="-0.21935">
        <ele>91</ele>
        <time>2015-02-16T15:20:42Z</time>
      </trkpt>
      <trkpt lat="44.58869" lon="-0.2193">
        <ele>92</ele>
        <time>2015-02-16T15:20:52Z</time>
      </trkpt>
      <trkpt lat="44.58864" lon="-0.21926">
        <ele>92</ele>
        <time>2015-02-16T15:21:22Z</time>
      </trkpt>
      <trkpt lat="44.5886" lon="-0.21922">
        <ele>90</ele>
        <time>2015-02-16T15:21:44Z</time>
      </trkpt>
      <trkpt lat="44.58852" lon="-0.21916">
        <ele>95</ele>
        <time>2015-02-16T15:22:13Z</time>
      </trkpt>
      <trkpt lat="44.58844" lon="-0.21909">
        <ele>95</ele>
        <time>2015-02-16T15:22:18Z</time>
      </trkpt>
      <trkpt lat="44.58838" lon="-0.21897">
        <ele>99</ele>
        <time>2015-02-16T15:22:27Z</time>
      </trkpt>
      <trkpt lat="44.5883" lon="-0.21891">
        <ele>102</ele>
        <time>2015-02-16T15:22:35Z</time>
      </trkpt>
      <trkpt lat="44.5882" lon="-0.21893">
        <ele>104</ele>
        <time>2015-02-16T15:22:42Z</time>
      </trkpt>
      <trkpt lat="44.58811" lon="-0.21887">
        <ele>106</ele>
        <time>2015-02-16T15:23:11Z</time>
      </trkpt>
      <trkpt lat="44.58802" lon="-0.21887">
        <ele>110</ele>
        <time>2015-02-16T15:23:18Z</time>
      </trkpt>
      <trkpt lat="44.58793" lon="-0.21891">
        <ele>108</ele>
        <time>2015-02-16T15:23:24Z</time>
      </trkpt>
      <trkpt lat="44.58783" lon="-0.21888">
        <ele>102</ele>
        <time>2015-02-16T15:23:32Z</time>
      </trkpt>
      <trkpt lat="44.58774" lon="-0.21884">
        <ele>103</ele>
        <time>2015-02-16T15:23:39Z</time>
      </trkpt>
      <trkpt lat="44.58767" lon="-0.21875">
        <ele>101</ele>
        <time>2015-02-16T15:23:48Z</time>
      </trkpt>
      <trkpt lat="44.58756" lon="-0.21876">
        <ele>102</ele>
        <time>2015-02-16T15:23:54Z</time>
      </trkpt>
      <trkpt lat="44.58746" lon="-0.21881">
        <ele>102</ele>
        <time>2015-02-16T15:24:02Z</time>
      </trkpt>
      <trkpt lat="44.58738" lon="-0.21886">
        <ele>105</ele>
        <time>2015-02-16T15:24:08Z</time>
      </trkpt>
      <trkpt lat="44.58729" lon="-0.21891">
        <ele>99</ele>
        <time>2015-02-16T15:24:14Z</time>
      </trkpt>
      <trkpt lat="44.5872" lon="-0.21895">
        <ele>101</ele>
        <time>2015-02-16T15:24:25Z</time>
      </trkpt>
      <trkpt lat="44.58711" lon="-0.219">
        <ele>97</ele>
        <time>2015-02-16T15:24:32Z</time>
      </trkpt>
      <trkpt lat="44.58701" lon="-0.21903">
        <ele>94</ele>
        <time>2015-02-16T15:24:40Z</time>
      </trkpt>
      <trkpt lat="44.58692" lon="-0.21908">
        <ele>93</ele>
        <time>2015-02-16T15:24:48Z</time>
      </trkpt>
      <trkpt lat="44.58682" lon="-0.2191">
        <ele>92</ele>
        <time>2015-02-16T15:24:56Z</time>
      </trkpt>
      <trkpt lat="44.58674" lon="-0.21914">
        <ele>91</ele>
        <time>2015-02-16T15:25:05Z</time>
      </trkpt>
      <trkpt lat="44.58664" lon="-0.21915">
        <ele>88</ele>
        <time>2015-02-16T15:25:15Z</time>
      </trkpt>
      <trkpt lat="44.58655" lon="-0.21918">
        <ele>85</ele>
        <time>2015-02-16T15:25:23Z</time>
      </trkpt>
      <trkpt lat="44.58645" lon="-0.21919">
        <ele>85</ele>
        <time>2015-02-16T15:25:33Z</time>
      </trkpt>
      <trkpt lat="44.58636" lon="-0.21923">
        <ele>84</ele>
        <time>2015-02-16T15:25:41Z</time>
      </trkpt>
      <trkpt lat="44.58626" lon="-0.21925">
        <ele>83</ele>
        <time>2015-02-16T15:25:50Z</time>
      </trkpt>
      <trkpt lat="44.58616" lon="-0.21928">
        <ele>80</ele>
        <time>2015-02-16T15:25:57Z</time>
      </trkpt>
      <trkpt lat="44.58607" lon="-0.21932">
        <ele>78</ele>
        <time>2015-02-16T15:26:05Z</time>
      </trkpt>
      <trkpt lat="44.58589" lon="-0.21938">
        <ele>76</ele>
        <time>2015-02-16T15:26:19Z</time>
      </trkpt>
      <trkpt lat="44.58579" lon="-0.21939">
        <ele>74</ele>
        <time>2015-02-16T15:26:26Z</time>
      </trkpt>
      <trkpt lat="44.5857" lon="-0.21943">
        <ele>74</ele>
        <time>2015-02-16T15:26:33Z</time>
      </trkpt>
      <trkpt lat="44.58561" lon="-0.21947">
        <ele>74</ele>
        <time>2015-02-16T15:26:40Z</time>
      </trkpt>
      <trkpt lat="44.58552" lon="-0.21949">
        <ele>75</ele>
        <time>2015-02-16T15:26:47Z</time>
      </trkpt>
      <trkpt lat="44.58533" lon="-0.21955">
        <ele>72</ele>
        <time>2015-02-16T15:27:07Z</time>
      </trkpt>
      <trkpt lat="44.58524" lon="-0.21958">
        <ele>70</ele>
        <time>2015-02-16T15:27:16Z</time>
      </trkpt>
      <trkpt lat="44.58514" lon="-0.2196">
        <ele>69</ele>
        <time>2015-02-16T15:27:26Z</time>
      </trkpt>
      <trkpt lat="44.5851" lon="-0.21963">
        <ele>67</ele>
        <time>2015-02-16T15:27:56Z</time>
      </trkpt>
      <trkpt lat="44.58506" lon="-0.2196">
        <ele>68</ele>
        <time>2015-02-16T15:28:47Z</time>
      </trkpt>
      <trkpt lat="44.58497" lon="-0.21963">
        <ele>68</ele>
        <time>2015-02-16T15:29:00Z</time>
      </trkpt>
      <trkpt lat="44.58488" lon="-0.21967">
        <ele>67</ele>
        <time>2015-02-16T15:29:09Z</time>
      </trkpt>
      <trkpt lat="44.58469" lon="-0.21973">
        <ele>67</ele>
        <time>2015-02-16T15:29:23Z</time>
      </trkpt>
      <trkpt lat="44.58459" lon="-0.21975">
        <ele>67</ele>
        <time>2015-02-16T15:29:30Z</time>
      </trkpt>
      <trkpt lat="44.5845" lon="-0.21974">
        <ele>69</ele>
        <time>2015-02-16T15:29:38Z</time>
      </trkpt>
      <trkpt lat="44.58441" lon="-0.21972">
        <ele>70</ele>
        <time>2015-02-16T15:29:47Z</time>
      </trkpt>
      <trkpt lat="44.58431" lon="-0.21977">
        <ele>68</ele>
        <time>2015-02-16T15:29:52Z</time>
      </trkpt>
      <trkpt lat="44.58421" lon="-0.2198">
        <ele>68</ele>
        <time>2015-02-16T15:30:00Z</time>
      </trkpt>
      <trkpt lat="44.58412" lon="-0.21984">
        <ele>69</ele>
        <time>2015-02-16T15:30:08Z</time>
      </trkpt>
      <trkpt lat="44.58395" lon="-0.21997">
        <ele>70</ele>
        <time>2015-02-16T15:30:22Z</time>
      </trkpt>
      <trkpt lat="44.58388" lon="-0.22007">
        <ele>69</ele>
        <time>2015-02-16T15:30:32Z</time>
      </trkpt>
      <trkpt lat="44.58387" lon="-0.2202">
        <ele>68</ele>
        <time>2015-02-16T15:30:42Z</time>
      </trkpt>
      <trkpt lat="44.58387" lon="-0.22033">
        <ele>68</ele>
        <time>2015-02-16T15:30:52Z</time>
      </trkpt>
      <trkpt lat="44.5839" lon="-0.2206">
        <ele>67</ele>
        <time>2015-02-16T15:31:08Z</time>
      </trkpt>
      <trkpt lat="44.58393" lon="-0.22074">
        <ele>67</ele>
        <time>2015-02-16T15:31:16Z</time>
      </trkpt>
      <trkpt lat="44.58397" lon="-0.22086">
        <ele>70</ele>
        <time>2015-02-16T15:31:23Z</time>
      </trkpt>
      <trkpt lat="44.58399" lon="-0.22098">
        <ele>69</ele>
        <time>2015-02-16T15:31:32Z</time>
      </trkpt>
      <trkpt lat="44.58402" lon="-0.22111">
        <ele>72</ele>
        <time>2015-02-16T15:31:41Z</time>
      </trkpt>
      <trkpt lat="44.58411" lon="-0.22119">
        <ele>73</ele>
        <time>2015-02-16T15:31:46Z</time>
      </trkpt>
      <trkpt lat="44.58417" lon="-0.2213">
        <ele>73</ele>
        <time>2015-02-16T15:31:52Z</time>
      </trkpt>
      <trkpt lat="44.58421" lon="-0.22143">
        <ele>75</ele>
        <time>2015-02-16T15:31:59Z</time>
      </trkpt>
      <trkpt lat="44.58418" lon="-0.22156">
        <ele>72</ele>
        <time>2015-02-16T15:32:06Z</time>
      </trkpt>
      <trkpt lat="44.58417" lon="-0.22169">
        <ele>73</ele>
        <time>2015-02-16T15:32:14Z</time>
      </trkpt>
      <trkpt lat="44.5842" lon="-0.22182">
        <ele>74</ele>
        <time>2015-02-16T15:32:22Z</time>
      </trkpt>
      <trkpt lat="44.58423" lon="-0.22194">
        <ele>75</ele>
        <time>2015-02-16T15:32:29Z</time>
      </trkpt>
      <trkpt lat="44.58423" lon="-0.22208">
        <ele>75</ele>
        <time>2015-02-16T15:32:37Z</time>
      </trkpt>
      <trkpt lat="44.58424" lon="-0.22221">
        <ele>75</ele>
        <time>2015-02-16T15:32:44Z</time>
      </trkpt>
      <trkpt lat="44.58421" lon="-0.22249">
        <ele>76</ele>
        <time>2015-02-16T15:32:58Z</time>
      </trkpt>
      <trkpt lat="44.58419" lon="-0.22263">
        <ele>78</ele>
        <time>2015-02-16T15:33:05Z</time>
      </trkpt>
      <trkpt lat="44.58416" lon="-0.22275">
        <ele>77</ele>
        <time>2015-02-16T15:33:12Z</time>
      </trkpt>
      <trkpt lat="44.58412" lon="-0.22288">
        <ele>76</ele>
        <time>2015-02-16T15:33:19Z</time>
      </trkpt>
      <trkpt lat="44.5841" lon="-0.22301">
        <ele>76</ele>
        <time>2015-02-16T15:33:27Z</time>
      </trkpt>
      <trkpt lat="44.58407" lon="-0.22314">
        <ele>74</ele>
        <time>2015-02-16T15:33:35Z</time>
      </trkpt>
      <trkpt lat="44.58405" lon="-0.22328">
        <ele>74</ele>
        <time>2015-02-16T15:33:44Z</time>
      </trkpt>
      <trkpt lat="44.58401" lon="-0.2234">
        <ele>70</ele>
        <time>2015-02-16T15:33:51Z</time>
      </trkpt>
      <trkpt lat="44.58398" lon="-0.22352">
        <ele>71</ele>
        <time>2015-02-16T15:33:58Z</time>
      </trkpt>
      <trkpt lat="44.58393" lon="-0.22364">
        <ele>72</ele>
        <time>2015-02-16T15:34:09Z</time>
      </trkpt>
      <trkpt lat="44.58386" lon="-0.22375">
        <ele>69</ele>
        <time>2015-02-16T15:34:27Z</time>
      </trkpt>
      <trkpt lat="44.58382" lon="-0.22386">
        <ele>70</ele>
        <time>2015-02-16T15:34:35Z</time>
      </trkpt>
      <trkpt lat="44.58375" lon="-0.22399">
        <ele>66</ele>
        <time>2015-02-16T15:34:43Z</time>
      </trkpt>
      <trkpt lat="44.58372" lon="-0.22411">
        <ele>64</ele>
        <time>2015-02-16T15:34:51Z</time>
      </trkpt>
      <trkpt lat="44.58368" lon="-0.22422">
        <ele>62</ele>
        <time>2015-02-16T15:34:59Z</time>
      </trkpt>
      <trkpt lat="44.58363" lon="-0.22435">
        <ele>66</ele>
        <time>2015-02-16T15:35:08Z</time>
      </trkpt>
      <trkpt lat="44.58358" lon="-0.22446">
        <ele>65</ele>
        <time>2015-02-16T15:35:17Z</time>
      </trkpt>
      <trkpt lat="44.58353" lon="-0.22457">
        <ele>61</ele>
        <time>2015-02-16T15:35:23Z</time>
      </trkpt>
      <trkpt lat="44.5835" lon="-0.22469">
        <ele>61</ele>
        <time>2015-02-16T15:35:30Z</time>
      </trkpt>
      <trkpt lat="44.58346" lon="-0.22481">
        <ele>63</ele>
        <time>2015-02-16T15:35:37Z</time>
      </trkpt>
      <trkpt lat="44.58341" lon="-0.22493">
        <ele>62</ele>
        <time>2015-02-16T15:35:46Z</time>
      </trkpt>
      <trkpt lat="44.58336" lon="-0.22504">
        <ele>61</ele>
        <time>2015-02-16T15:35:52Z</time>
      </trkpt>
      <trkpt lat="44.58332" lon="-0.22516">
        <ele>64</ele>
        <time>2015-02-16T15:35:58Z</time>
      </trkpt>
      <trkpt lat="44.58327" lon="-0.22528">
        <ele>65</ele>
        <time>2015-02-16T15:36:05Z</time>
      </trkpt>
      <trkpt lat="44.58323" lon="-0.22539">
        <ele>68</ele>
        <time>2015-02-16T15:36:13Z</time>
      </trkpt>
      <trkpt lat="44.58318" lon="-0.2255">
        <ele>70</ele>
        <time>2015-02-16T15:36:21Z</time>
      </trkpt>
      <trkpt lat="44.58314" lon="-0.22562">
        <ele>73</ele>
        <time>2015-02-16T15:36:28Z</time>
      </trkpt>
      <trkpt lat="44.58309" lon="-0.22575">
        <ele>75</ele>
        <time>2015-02-16T15:36:36Z</time>
      </trkpt>
      <trkpt lat="44.58302" lon="-0.22585">
        <ele>71</ele>
        <time>2015-02-16T15:36:43Z</time>
      </trkpt>
      <trkpt lat="44.58296" lon="-0.22595">
        <ele>71</ele>
        <time>2015-02-16T15:36:50Z</time>
      </trkpt>
      <trkpt lat="44.58292" lon="-0.22607">
        <ele>76</ele>
        <time>2015-02-16T15:36:58Z</time>
      </trkpt>
      <trkpt lat="44.58287" lon="-0.22618">
        <ele>69</ele>
        <time>2015-02-16T15:37:06Z</time>
      </trkpt>
      <trkpt lat="44.58282" lon="-0.22629">
        <ele>68</ele>
        <time>2015-02-16T15:37:13Z</time>
      </trkpt>
      <trkpt lat="44.58275" lon="-0.2264">
        <ele>66</ele>
        <time>2015-02-16T15:37:21Z</time>
      </trkpt>
      <trkpt lat="44.58273" lon="-0.22653">
        <ele>67</ele>
        <time>2015-02-16T15:37:28Z</time>
      </trkpt>
      <trkpt lat="44.58273" lon="-0.22667">
        <ele>63</ele>
        <time>2015-02-16T15:37:37Z</time>
      </trkpt>
      <trkpt lat="44.58276" lon="-0.22679">
        <ele>63</ele>
        <time>2015-02-16T15:37:45Z</time>
      </trkpt>
      <trkpt lat="44.58278" lon="-0.22693">
        <ele>66</ele>
        <time>2015-02-16T15:37:53Z</time>
      </trkpt>
      <trkpt lat="44.5828" lon="-0.22707">
        <ele>58</ele>
        <time>2015-02-16T15:38:00Z</time>
      </trkpt>
      <trkpt lat="44.58278" lon="-0.22722">
        <ele>59</ele>
        <time>2015-02-16T15:38:07Z</time>
      </trkpt>
      <trkpt lat="44.58282" lon="-0.22735">
        <ele>66</ele>
        <time>2015-02-16T15:38:14Z</time>
      </trkpt>
      <trkpt lat="44.58287" lon="-0.22747">
        <ele>69</ele>
        <time>2015-02-16T15:38:22Z</time>
      </trkpt>
      <trkpt lat="44.58289" lon="-0.2276">
        <ele>70</ele>
        <time>2015-02-16T15:38:31Z</time>
      </trkpt>
      <trkpt lat="44.58291" lon="-0.22772">
        <ele>71</ele>
        <time>2015-02-16T15:38:38Z</time>
      </trkpt>
      <trkpt lat="44.58296" lon="-0.22785">
        <ele>74</ele>
        <time>2015-02-16T15:38:45Z</time>
      </trkpt>
      <trkpt lat="44.58297" lon="-0.22798">
        <ele>74</ele>
        <time>2015-02-16T15:38:52Z</time>
      </trkpt>
      <trkpt lat="44.58301" lon="-0.2281">
        <ele>76</ele>
        <time>2015-02-16T15:39:01Z</time>
      </trkpt>
      <trkpt lat="44.58305" lon="-0.22823">
        <ele>78</ele>
        <time>2015-02-16T15:39:10Z</time>
      </trkpt>
      <trkpt lat="44.58311" lon="-0.22834">
        <ele>81</ele>
        <time>2015-02-16T15:39:17Z</time>
      </trkpt>
      <trkpt lat="44.58312" lon="-0.22848">
        <ele>80</ele>
        <time>2015-02-16T15:39:25Z</time>
      </trkpt>
      <trkpt lat="44.58308" lon="-0.22861">
        <ele>77</ele>
        <time>2015-02-16T15:39:33Z</time>
      </trkpt>
      <trkpt lat="44.58306" lon="-0.22873">
        <ele>78</ele>
        <time>2015-02-16T15:39:40Z</time>
      </trkpt>
      <trkpt lat="44.58306" lon="-0.22887">
        <ele>79</ele>
        <time>2015-02-16T15:39:48Z</time>
      </trkpt>
      <trkpt lat="44.58304" lon="-0.229">
        <ele>87</ele>
        <time>2015-02-16T15:39:56Z</time>
      </trkpt>
      <trkpt lat="44.58302" lon="-0.22913">
        <ele>85</ele>
        <time>2015-02-16T15:40:05Z</time>
      </trkpt>
      <trkpt lat="44.58297" lon="-0.22924">
        <ele>86</ele>
        <time>2015-02-16T15:40:15Z</time>
      </trkpt>
      <trkpt lat="44.5829" lon="-0.22933">
        <ele>88</ele>
        <time>2015-02-16T15:40:26Z</time>
      </trkpt>
      <trkpt lat="44.58285" lon="-0.22944">
        <ele>88</ele>
        <time>2015-02-16T15:40:35Z</time>
      </trkpt>
      <trkpt lat="44.58278" lon="-0.22954">
        <ele>78</ele>
        <time>2015-02-16T15:40:44Z</time>
      </trkpt>
      <trkpt lat="44.58271" lon="-0.22964">
        <ele>86</ele>
        <time>2015-02-16T15:40:53Z</time>
      </trkpt>
      <trkpt lat="44.58264" lon="-0.22973">
        <ele>86</ele>
        <time>2015-02-16T15:41:02Z</time>
      </trkpt>
      <trkpt lat="44.58259" lon="-0.22984">
        <ele>88</ele>
        <time>2015-02-16T15:41:12Z</time>
      </trkpt>
      <trkpt lat="44.58253" lon="-0.22995">
        <ele>89</ele>
        <time>2015-02-16T15:41:22Z</time>
      </trkpt>
      <trkpt lat="44.58247" lon="-0.23004">
        <ele>91</ele>
        <time>2015-02-16T15:41:31Z</time>
      </trkpt>
      <trkpt lat="44.5824" lon="-0.23013">
        <ele>92</ele>
        <time>2015-02-16T15:41:42Z</time>
      </trkpt>
      <trkpt lat="44.58233" lon="-0.2302">
        <ele>94</ele>
        <time>2015-02-16T15:41:52Z</time>
      </trkpt>
      <trkpt lat="44.58224" lon="-0.23026">
        <ele>94</ele>
        <time>2015-02-16T15:42:03Z</time>
      </trkpt>
      <trkpt lat="44.58216" lon="-0.23033">
        <ele>100</ele>
        <time>2015-02-16T15:42:22Z</time>
      </trkpt>
      <trkpt lat="44.58205" lon="-0.23043">
        <ele>101</ele>
        <time>2015-02-16T15:42:32Z</time>
      </trkpt>
      <trkpt lat="44.58198" lon="-0.2305">
        <ele>104</ele>
        <time>2015-02-16T15:42:39Z</time>
      </trkpt>
      <trkpt lat="44.58197" lon="-0.2305">
        <ele>104</ele>
        <time>2015-02-16T15:43:09Z</time>
      </trkpt>
      <trkpt lat="44.58197" lon="-0.2305">
        <ele>104</ele>
        <time>2015-02-16T15:43:39Z</time>
      </trkpt>
      <trkpt lat="44.58189" lon="-0.23053">
        <ele>104</ele>
        <time>2015-02-16T15:44:48Z</time>
      </trkpt>
      <trkpt lat="44.58181" lon="-0.23059">
        <ele>102</ele>
        <time>2015-02-16T15:44:56Z</time>
      </trkpt>
      <trkpt lat="44.58172" lon="-0.23064">
        <ele>99</ele>
        <time>2015-02-16T15:45:05Z</time>
      </trkpt>
      <trkpt lat="44.58164" lon="-0.23068">
        <ele>98</ele>
        <time>2015-02-16T15:45:15Z</time>
      </trkpt>
      <trkpt lat="44.58155" lon="-0.23072">
        <ele>95</ele>
        <time>2015-02-16T15:45:24Z</time>
      </trkpt>
      <trkpt lat="44.58146" lon="-0.23076">
        <ele>94</ele>
        <time>2015-02-16T15:45:32Z</time>
      </trkpt>
      <trkpt lat="44.58138" lon="-0.23081">
        <ele>93</ele>
        <time>2015-02-16T15:45:40Z</time>
      </trkpt>
      <trkpt lat="44.58129" lon="-0.23086">
        <ele>92</ele>
        <time>2015-02-16T15:45:47Z</time>
      </trkpt>
      <trkpt lat="44.5812" lon="-0.23089">
        <ele>93</ele>
        <time>2015-02-16T15:45:54Z</time>
      </trkpt>
      <trkpt lat="44.58114" lon="-0.23092">
        <ele>93</ele>
        <time>2015-02-16T15:46:24Z</time>
      </trkpt>
      <trkpt lat="44.5811" lon="-0.23093">
        <ele>93</ele>
        <time>2015-02-16T15:46:28Z</time>
      </trkpt>
      <trkpt lat="44.58101" lon="-0.23095">
        <ele>91</ele>
        <time>2015-02-16T15:46:35Z</time>
      </trkpt>
      <trkpt lat="44.58091" lon="-0.23099">
        <ele>91</ele>
        <time>2015-02-16T15:46:43Z</time>
      </trkpt>
      <trkpt lat="44.58081" lon="-0.23101">
        <ele>91</ele>
        <time>2015-02-16T15:46:51Z</time>
      </trkpt>
      <trkpt lat="44.58071" lon="-0.23105">
        <ele>91</ele>
        <time>2015-02-16T15:46:59Z</time>
      </trkpt>
      <trkpt lat="44.58061" lon="-0.23106">
        <ele>88</ele>
        <time>2015-02-16T15:47:12Z</time>
      </trkpt>
      <trkpt lat="44.58052" lon="-0.2311">
        <ele>87</ele>
        <time>2015-02-16T15:47:20Z</time>
      </trkpt>
      <trkpt lat="44.58042" lon="-0.23114">
        <ele>87</ele>
        <time>2015-02-16T15:47:32Z</time>
      </trkpt>
      <trkpt lat="44.58033" lon="-0.23117">
        <ele>87</ele>
        <time>2015-02-16T15:47:39Z</time>
      </trkpt>
      <trkpt lat="44.58024" lon="-0.23121">
        <ele>86</ele>
        <time>2015-02-16T15:47:46Z</time>
      </trkpt>
      <trkpt lat="44.58015" lon="-0.23124">
        <ele>86</ele>
        <time>2015-02-16T15:47:53Z</time>
      </trkpt>
      <trkpt lat="44.58006" lon="-0.23124">
        <ele>85</ele>
        <time>2015-02-16T15:48:00Z</time>
      </trkpt>
      <trkpt lat="44.57996" lon="-0.23127">
        <ele>86</ele>
        <time>2015-02-16T15:48:07Z</time>
      </trkpt>
      <trkpt lat="44.57986" lon="-0.23131">
        <ele>84</ele>
        <time>2015-02-16T15:48:14Z</time>
      </trkpt>
      <trkpt lat="44.57969" lon="-0.23138">
        <ele>83</ele>
        <time>2015-02-16T15:48:27Z</time>
      </trkpt>
      <trkpt lat="44.5796" lon="-0.2314">
        <ele>84</ele>
        <time>2015-02-16T15:48:43Z</time>
      </trkpt>
      <trkpt lat="44.57951" lon="-0.23143">
        <ele>84</ele>
        <time>2015-02-16T15:48:53Z</time>
      </trkpt>
      <trkpt lat="44.57943" lon="-0.23149">
        <ele>86</ele>
        <time>2015-02-16T15:49:02Z</time>
      </trkpt>
      <trkpt lat="44.57933" lon="-0.23152">
        <ele>88</ele>
        <time>2015-02-16T15:49:12Z</time>
      </trkpt>
      <trkpt lat="44.57925" lon="-0.23157">
        <ele>89</ele>
        <time>2015-02-16T15:49:21Z</time>
      </trkpt>
      <trkpt lat="44.57916" lon="-0.23161">
        <ele>89</ele>
        <time>2015-02-16T15:49:29Z</time>
      </trkpt>
      <trkpt lat="44.57897" lon="-0.23169">
        <ele>88</ele>
        <time>2015-02-16T15:49:47Z</time>
      </trkpt>
      <trkpt lat="44.57888" lon="-0.23171">
        <ele>88</ele>
        <time>2015-02-16T15:49:59Z</time>
      </trkpt>
      <trkpt lat="44.57879" lon="-0.23171">
        <ele>88</ele>
        <time>2015-02-16T15:50:07Z</time>
      </trkpt>
      <trkpt lat="44.5787" lon="-0.23174">
        <ele>89</ele>
        <time>2015-02-16T15:50:16Z</time>
      </trkpt>
      <trkpt lat="44.57861" lon="-0.2318">
        <ele>91</ele>
        <time>2015-02-16T15:50:26Z</time>
      </trkpt>
      <trkpt lat="44.57852" lon="-0.23184">
        <ele>90</ele>
        <time>2015-02-16T15:50:37Z</time>
      </trkpt>
      <trkpt lat="44.57843" lon="-0.23189">
        <ele>90</ele>
        <time>2015-02-16T15:50:48Z</time>
      </trkpt>
      <trkpt lat="44.57835" lon="-0.23197">
        <ele>92</ele>
        <time>2015-02-16T15:50:58Z</time>
      </trkpt>
      <trkpt lat="44.57825" lon="-0.23201">
        <ele>92</ele>
        <time>2015-02-16T15:51:09Z</time>
      </trkpt>
      <trkpt lat="44.57816" lon="-0.23199">
        <ele>92</ele>
        <time>2015-02-16T15:51:22Z</time>
      </trkpt>
      <trkpt lat="44.57812" lon="-0.23187">
        <ele>94</ele>
        <time>2015-02-16T15:51:33Z</time>
      </trkpt>
      <trkpt lat="44.57803" lon="-0.2318">
        <ele>97</ele>
        <time>2015-02-16T15:51:44Z</time>
      </trkpt>
      <trkpt lat="44.57794" lon="-0.23179">
        <ele>101</ele>
        <time>2015-02-16T15:51:52Z</time>
      </trkpt>
      <trkpt lat="44.57784" lon="-0.23181">
        <ele>102</ele>
        <time>2015-02-16T15:52:00Z</time>
      </trkpt>
      <trkpt lat="44.57775" lon="-0.23183">
        <ele>103</ele>
        <time>2015-02-16T15:52:08Z</time>
      </trkpt>
      <trkpt lat="44.57765" lon="-0.23181">
        <ele>104</ele>
        <time>2015-02-16T15:52:27Z</time>
      </trkpt>
      <trkpt lat="44.57756" lon="-0.23184">
        <ele>100</ele>
        <time>2015-02-16T15:52:34Z</time>
      </trkpt>
      <trkpt lat="44.57747" lon="-0.23189">
        <ele>97</ele>
        <time>2015-02-16T15:52:42Z</time>
      </trkpt>
      <trkpt lat="44.57738" lon="-0.23193">
        <ele>92</ele>
        <time>2015-02-16T15:52:50Z</time>
      </trkpt>
      <trkpt lat="44.5773" lon="-0.23199">
        <ele>94</ele>
        <time>2015-02-16T15:52:57Z</time>
      </trkpt>
      <trkpt lat="44.57722" lon="-0.23207">
        <ele>90</ele>
        <time>2015-02-16T15:53:13Z</time>
      </trkpt>
      <trkpt lat="44.57715" lon="-0.23216">
        <ele>91</ele>
        <time>2015-02-16T15:53:23Z</time>
      </trkpt>
      <trkpt lat="44.57708" lon="-0.23224">
        <ele>92</ele>
        <time>2015-02-16T15:53:31Z</time>
      </trkpt>
      <trkpt lat="44.577" lon="-0.23231">
        <ele>93</ele>
        <time>2015-02-16T15:53:40Z</time>
      </trkpt>
      <trkpt lat="44.57691" lon="-0.23237">
        <ele>92</ele>
        <time>2015-02-16T15:53:48Z</time>
      </trkpt>
      <trkpt lat="44.57683" lon="-0.23244">
        <ele>91</ele>
        <time>2015-02-16T15:53:58Z</time>
      </trkpt>
      <trkpt lat="44.57674" lon="-0.2325">
        <ele>92</ele>
        <time>2015-02-16T15:54:07Z</time>
      </trkpt>
      <trkpt lat="44.57665" lon="-0.23246">
        <ele>93</ele>
        <time>2015-02-16T15:54:18Z</time>
      </trkpt>
      <trkpt lat="44.57658" lon="-0.23251">
        <ele>91</ele>
        <time>2015-02-16T15:54:48Z</time>
      </trkpt>
      <trkpt lat="44.57657" lon="-0.23252">
        <ele>92</ele>
        <time>2015-02-16T15:54:58Z</time>
      </trkpt>
      <trkpt lat="44.57657" lon="-0.23252">
        <ele>92</ele>
        <time>2015-02-16T15:55:28Z</time>
      </trkpt>
      <trkpt lat="44.57657" lon="-0.23251">
        <ele>94</ele>
        <time>2015-02-16T15:56:28Z</time>
      </trkpt>
      <trkpt lat="44.57649" lon="-0.23248">
        <ele>94</ele>
        <time>2015-02-16T15:56:40Z</time>
      </trkpt>
      <trkpt lat="44.57641" lon="-0.23245">
        <ele>93</ele>
        <time>2015-02-16T15:56:58Z</time>
      </trkpt>
      <trkpt lat="44.57638" lon="-0.23246">
        <ele>92</ele>
        <time>2015-02-16T15:57:28Z</time>
      </trkpt>
      <trkpt lat="44.57635" lon="-0.23243">
        <ele>89</ele>
        <time>2015-02-16T15:57:58Z</time>
      </trkpt>
      <trkpt lat="44.57636" lon="-0.23244">
        <ele>91</ele>
        <time>2015-02-16T15:58:58Z</time>
      </trkpt>
      <trkpt lat="44.57639" lon="-0.23244">
        <ele>90</ele>
        <time>2015-02-16T15:59:09Z</time>
      </trkpt>
      <trkpt lat="44.57647" lon="-0.2324">
        <ele>92</ele>
        <time>2015-02-16T15:59:59Z</time>
      </trkpt>
      <trkpt lat="44.5765" lon="-0.23228">
        <ele>90</ele>
        <time>2015-02-16T16:00:07Z</time>
      </trkpt>
      <trkpt lat="44.57652" lon="-0.23215">
        <ele>90</ele>
        <time>2015-02-16T16:00:17Z</time>
      </trkpt>
      <trkpt lat="44.57658" lon="-0.2319">
        <ele>93</ele>
        <time>2015-02-16T16:00:33Z</time>
      </trkpt>
      <trkpt lat="44.57661" lon="-0.23176">
        <ele>91</ele>
        <time>2015-02-16T16:00:41Z</time>
      </trkpt>
      <trkpt lat="44.57664" lon="-0.23164">
        <ele>90</ele>
        <time>2015-02-16T16:00:49Z</time>
      </trkpt>
      <trkpt lat="44.57667" lon="-0.23152">
        <ele>91</ele>
        <time>2015-02-16T16:00:59Z</time>
      </trkpt>
      <trkpt lat="44.57665" lon="-0.23139">
        <ele>90</ele>
        <time>2015-02-16T16:01:08Z</time>
      </trkpt>
      <trkpt lat="44.57664" lon="-0.23125">
        <ele>90</ele>
        <time>2015-02-16T16:01:15Z</time>
      </trkpt>
      <trkpt lat="44.57661" lon="-0.23112">
        <ele>89</ele>
        <time>2015-02-16T16:01:23Z</time>
      </trkpt>
      <trkpt lat="44.57664" lon="-0.23098">
        <ele>83</ele>
        <time>2015-02-16T16:01:30Z</time>
      </trkpt>
      <trkpt lat="44.57668" lon="-0.23087">
        <ele>81</ele>
        <time>2015-02-16T16:01:36Z</time>
      </trkpt>
      <trkpt lat="44.57672" lon="-0.23074">
        <ele>81</ele>
        <time>2015-02-16T16:01:44Z</time>
      </trkpt>
      <trkpt lat="44.57673" lon="-0.23061">
        <ele>86</ele>
        <time>2015-02-16T16:01:51Z</time>
      </trkpt>
      <trkpt lat="44.57678" lon="-0.23049">
        <ele>82</ele>
        <time>2015-02-16T16:01:58Z</time>
      </trkpt>
      <trkpt lat="44.57682" lon="-0.23037">
        <ele>74</ele>
        <time>2015-02-16T16:02:08Z</time>
      </trkpt>
      <trkpt lat="44.57686" lon="-0.23025">
        <ele>73</ele>
        <time>2015-02-16T16:02:16Z</time>
      </trkpt>
      <trkpt lat="44.57693" lon="-0.23018">
        <ele>77</ele>
        <time>2015-02-16T16:02:28Z</time>
      </trkpt>
      <trkpt lat="44.57702" lon="-0.23014">
        <ele>86</ele>
        <time>2015-02-16T16:02:43Z</time>
      </trkpt>
      <trkpt lat="44.57711" lon="-0.23015">
        <ele>87</ele>
        <time>2015-02-16T16:02:56Z</time>
      </trkpt>
      <trkpt lat="44.57722" lon="-0.23013">
        <ele>85</ele>
        <time>2015-02-16T16:03:03Z</time>
      </trkpt>
      <trkpt lat="44.57729" lon="-0.23006">
        <ele>82</ele>
        <time>2015-02-16T16:03:09Z</time>
      </trkpt>
      <trkpt lat="44.57731" lon="-0.22993">
        <ele>81</ele>
        <time>2015-02-16T16:03:16Z</time>
      </trkpt>
      <trkpt lat="44.57733" lon="-0.2298">
        <ele>85</ele>
        <time>2015-02-16T16:03:25Z</time>
      </trkpt>
      <trkpt lat="44.57732" lon="-0.22966">
        <ele>88</ele>
        <time>2015-02-16T16:03:34Z</time>
      </trkpt>
      <trkpt lat="44.57733" lon="-0.22939">
        <ele>90</ele>
        <time>2015-02-16T16:03:52Z</time>
      </trkpt>
      <trkpt lat="44.57734" lon="-0.22931">
        <ele>90</ele>
        <time>2015-02-16T16:04:52Z</time>
      </trkpt>
      <trkpt lat="44.57735" lon="-0.22926">
        <ele>87</ele>
        <time>2015-02-16T16:05:07Z</time>
      </trkpt>
      <trkpt lat="44.57734" lon="-0.22913">
        <ele>84</ele>
        <time>2015-02-16T16:05:13Z</time>
      </trkpt>
      <trkpt lat="44.57737" lon="-0.229">
        <ele>90</ele>
        <time>2015-02-16T16:05:33Z</time>
      </trkpt>
      <trkpt lat="44.57743" lon="-0.2289">
        <ele>88</ele>
        <time>2015-02-16T16:05:40Z</time>
      </trkpt>
      <trkpt lat="44.57747" lon="-0.22877">
        <ele>87</ele>
        <time>2015-02-16T16:05:48Z</time>
      </trkpt>
      <trkpt lat="44.57743" lon="-0.22864">
        <ele>81</ele>
        <time>2015-02-16T16:05:56Z</time>
      </trkpt>
      <trkpt lat="44.5774" lon="-0.22851">
        <ele>82</ele>
        <time>2015-02-16T16:06:04Z</time>
      </trkpt>
      <trkpt lat="44.5774" lon="-0.22837">
        <ele>84</ele>
        <time>2015-02-16T16:06:12Z</time>
      </trkpt>
      <trkpt lat="44.57742" lon="-0.22824">
        <ele>83</ele>
        <time>2015-02-16T16:06:22Z</time>
      </trkpt>
      <trkpt lat="44.57742" lon="-0.2281">
        <ele>82</ele>
        <time>2015-02-16T16:06:29Z</time>
      </trkpt>
      <trkpt lat="44.57741" lon="-0.22796">
        <ele>79</ele>
        <time>2015-02-16T16:06:36Z</time>
      </trkpt>
      <trkpt lat="44.5774" lon="-0.22783">
        <ele>82</ele>
        <time>2015-02-16T16:06:59Z</time>
      </trkpt>
      <trkpt lat="44.57739" lon="-0.22755">
        <ele>80</ele>
        <time>2015-02-16T16:07:11Z</time>
      </trkpt>
      <trkpt lat="44.5774" lon="-0.22741">
        <ele>80</ele>
        <time>2015-02-16T16:07:19Z</time>
      </trkpt>
      <trkpt lat="44.57738" lon="-0.22727">
        <ele>79</ele>
        <time>2015-02-16T16:07:26Z</time>
      </trkpt>
      <trkpt lat="44.57738" lon="-0.22713">
        <ele>81</ele>
        <time>2015-02-16T16:07:34Z</time>
      </trkpt>
      <trkpt lat="44.57738" lon="-0.227">
        <ele>84</ele>
        <time>2015-02-16T16:07:43Z</time>
      </trkpt>
      <trkpt lat="44.57738" lon="-0.22687">
        <ele>82</ele>
        <time>2015-02-16T16:07:52Z</time>
      </trkpt>
      <trkpt lat="44.57735" lon="-0.22695">
        <ele>85</ele>
        <time>2015-02-16T16:08:22Z</time>
      </trkpt>
      <trkpt lat="44.57737" lon="-0.22693">
        <ele>84</ele>
        <time>2015-02-16T16:08:42Z</time>
      </trkpt>
      <trkpt lat="44.57737" lon="-0.22681">
        <ele>84</ele>
        <time>2015-02-16T16:08:51Z</time>
      </trkpt>
      <trkpt lat="44.57736" lon="-0.22668">
        <ele>83</ele>
        <time>2015-02-16T16:08:58Z</time>
      </trkpt>
      <trkpt lat="44.57737" lon="-0.22655">
        <ele>86</ele>
        <time>2015-02-16T16:09:27Z</time>
      </trkpt>
      <trkpt lat="44.57737" lon="-0.22642">
        <ele>84</ele>
        <time>2015-02-16T16:09:35Z</time>
      </trkpt>
      <trkpt lat="44.57737" lon="-0.22635">
        <ele>81</ele>
        <time>2015-02-16T16:10:05Z</time>
      </trkpt>
      <trkpt lat="44.57736" lon="-0.22629">
        <ele>82</ele>
        <time>2015-02-16T16:10:09Z</time>
      </trkpt>
      <trkpt lat="44.57736" lon="-0.22615">
        <ele>81</ele>
        <time>2015-02-16T16:10:16Z</time>
      </trkpt>
      <trkpt lat="44.57734" lon="-0.22589">
        <ele>77</ele>
        <time>2015-02-16T16:11:00Z</time>
      </trkpt>
      <trkpt lat="44.57736" lon="-0.22563">
        <ele>76</ele>
        <time>2015-02-16T16:11:17Z</time>
      </trkpt>
      <trkpt lat="44.57738" lon="-0.22551">
        <ele>74</ele>
        <time>2015-02-16T16:11:25Z</time>
      </trkpt>
      <trkpt lat="44.57742" lon="-0.22545">
        <ele>76</ele>
        <time>2015-02-16T16:11:55Z</time>
      </trkpt>
      <trkpt lat="44.57743" lon="-0.2254">
        <ele>76</ele>
        <time>2015-02-16T16:11:58Z</time>
      </trkpt>
      <trkpt lat="44.57746" lon="-0.22527">
        <ele>79</ele>
        <time>2015-02-16T16:12:05Z</time>
      </trkpt>
      <trkpt lat="44.5775" lon="-0.22513">
        <ele>77</ele>
        <time>2015-02-16T16:12:13Z</time>
      </trkpt>
      <trkpt lat="44.57755" lon="-0.22502">
        <ele>76</ele>
        <time>2015-02-16T16:12:21Z</time>
      </trkpt>
      <trkpt lat="44.5776" lon="-0.22492">
        <ele>78</ele>
        <time>2015-02-16T16:12:29Z</time>
      </trkpt>
      <trkpt lat="44.57769" lon="-0.22485">
        <ele>77</ele>
        <time>2015-02-16T16:12:40Z</time>
      </trkpt>
      <trkpt lat="44.57772" lon="-0.22472">
        <ele>76</ele>
        <time>2015-02-16T16:12:49Z</time>
      </trkpt>
      <trkpt lat="44.57772" lon="-0.22459">
        <ele>77</ele>
        <time>2015-02-16T16:12:56Z</time>
      </trkpt>
      <trkpt lat="44.57771" lon="-0.22446">
        <ele>75</ele>
        <time>2015-02-16T16:13:04Z</time>
      </trkpt>
      <trkpt lat="44.57773" lon="-0.22433">
        <ele>75</ele>
        <time>2015-02-16T16:13:12Z</time>
      </trkpt>
      <trkpt lat="44.57774" lon="-0.2242">
        <ele>72</ele>
        <time>2015-02-16T16:13:22Z</time>
      </trkpt>
      <trkpt lat="44.57774" lon="-0.22407">
        <ele>74</ele>
        <time>2015-02-16T16:13:30Z</time>
      </trkpt>
      <trkpt lat="44.57769" lon="-0.22396">
        <ele>72</ele>
        <time>2015-02-16T16:13:52Z</time>
      </trkpt>
      <trkpt lat="44.57768" lon="-0.22383">
        <ele>70</ele>
        <time>2015-02-16T16:13:59Z</time>
      </trkpt>
      <trkpt lat="44.57767" lon="-0.22369">
        <ele>71</ele>
        <time>2015-02-16T16:14:07Z</time>
      </trkpt>
      <trkpt lat="44.57764" lon="-0.22361">
        <ele>69</ele>
        <time>2015-02-16T16:14:37Z</time>
      </trkpt>
      <trkpt lat="44.57764" lon="-0.22343">
        <ele>69</ele>
        <time>2015-02-16T16:14:52Z</time>
      </trkpt>
      <trkpt lat="44.57764" lon="-0.2233">
        <ele>67</ele>
        <time>2015-02-16T16:15:01Z</time>
      </trkpt>
      <trkpt lat="44.5776" lon="-0.22311">
        <ele>68</ele>
        <time>2015-02-16T16:15:14Z</time>
      </trkpt>
      <trkpt lat="44.57757" lon="-0.22299">
        <ele>66</ele>
        <time>2015-02-16T16:15:20Z</time>
      </trkpt>
      <trkpt lat="44.57755" lon="-0.22286">
        <ele>66</ele>
        <time>2015-02-16T16:15:28Z</time>
      </trkpt>
      <trkpt lat="44.57754" lon="-0.22284">
        <ele>65</ele>
        <time>2015-02-16T16:15:58Z</time>
      </trkpt>
      <trkpt lat="44.57751" lon="-0.22274">
        <ele>62</ele>
        <time>2015-02-16T16:16:08Z</time>
      </trkpt>
      <trkpt lat="44.57749" lon="-0.22261">
        <ele>62</ele>
        <time>2015-02-16T16:16:17Z</time>
      </trkpt>
      <trkpt lat="44.57745" lon="-0.22248">
        <ele>61</ele>
        <time>2015-02-16T16:16:26Z</time>
      </trkpt>
      <trkpt lat="44.57743" lon="-0.22235">
        <ele>59</ele>
        <time>2015-02-16T16:16:35Z</time>
      </trkpt>
      <trkpt lat="44.57741" lon="-0.22223">
        <ele>58</ele>
        <time>2015-02-16T16:16:43Z</time>
      </trkpt>
      <trkpt lat="44.57736" lon="-0.22196">
        <ele>56</ele>
        <time>2015-02-16T16:16:59Z</time>
      </trkpt>
      <trkpt lat="44.57739" lon="-0.22184">
        <ele>56</ele>
        <time>2015-02-16T16:17:07Z</time>
      </trkpt>
      <trkpt lat="44.57749" lon="-0.22186">
        <ele>56</ele>
        <time>2015-02-16T16:17:15Z</time>
      </trkpt>
      <trkpt lat="44.57758" lon="-0.22185">
        <ele>56</ele>
        <time>2015-02-16T16:17:23Z</time>
      </trkpt>
      <trkpt lat="44.57767" lon="-0.22184">
        <ele>57</ele>
        <time>2015-02-16T16:17:31Z</time>
      </trkpt>
      <trkpt lat="44.57786" lon="-0.22181">
        <ele>60</ele>
        <time>2015-02-16T16:17:47Z</time>
      </trkpt>
      <trkpt lat="44.57794" lon="-0.22187">
        <ele>61</ele>
        <time>2015-02-16T16:17:55Z</time>
      </trkpt>
      <trkpt lat="44.57803" lon="-0.22193">
        <ele>60</ele>
        <time>2015-02-16T16:18:03Z</time>
      </trkpt>
      <trkpt lat="44.57809" lon="-0.22179">
        <ele>58</ele>
        <time>2015-02-16T16:18:13Z</time>
      </trkpt>
      <trkpt lat="44.578" lon="-0.22173">
        <ele>56</ele>
        <time>2015-02-16T16:18:23Z</time>
      </trkpt>
      <trkpt lat="44.57792" lon="-0.22166">
        <ele>56</ele>
        <time>2015-02-16T16:18:31Z</time>
      </trkpt>
      <trkpt lat="44.57788" lon="-0.22154">
        <ele>56</ele>
        <time>2015-02-16T16:18:39Z</time>
      </trkpt>
      <trkpt lat="44.57785" lon="-0.22142">
        <ele>55</ele>
        <time>2015-02-16T16:18:46Z</time>
      </trkpt>
      <trkpt lat="44.57781" lon="-0.2213">
        <ele>53</ele>
        <time>2015-02-16T16:18:53Z</time>
      </trkpt>
      <trkpt lat="44.57775" lon="-0.2212">
        <ele>52</ele>
        <time>2015-02-16T16:19:02Z</time>
      </trkpt>
      <trkpt lat="44.57764" lon="-0.22098">
        <ele>52</ele>
        <time>2015-02-16T16:19:18Z</time>
      </trkpt>
      <trkpt lat="44.57757" lon="-0.22087">
        <ele>52</ele>
        <time>2015-02-16T16:19:28Z</time>
      </trkpt>
      <trkpt lat="44.57748" lon="-0.22083">
        <ele>52</ele>
        <time>2015-02-16T16:19:38Z</time>
      </trkpt>
      <trkpt lat="44.57738" lon="-0.22083">
        <ele>52</ele>
        <time>2015-02-16T16:19:46Z</time>
      </trkpt>
      <trkpt lat="44.57728" lon="-0.22084">
        <ele>52</ele>
        <time>2015-02-16T16:19:54Z</time>
      </trkpt>
      <trkpt lat="44.57733" lon="-0.22074">
        <ele>49</ele>
        <time>2015-02-16T16:20:24Z</time>
      </trkpt>
      <trkpt lat="44.57734" lon="-0.22074">
        <ele>49</ele>
        <time>2015-02-16T16:20:25Z</time>
      </trkpt>
      <trkpt lat="44.57753" lon="-0.22066">
        <ele>49</ele>
        <time>2015-02-16T16:20:41Z</time>
      </trkpt>
      <trkpt lat="44.57749" lon="-0.22053">
        <ele>50</ele>
        <time>2015-02-16T16:20:47Z</time>
      </trkpt>
      <trkpt lat="44.57748" lon="-0.22039">
        <ele>43</ele>
        <time>2015-02-16T16:21:10Z</time>
      </trkpt>
      <trkpt lat="44.57743" lon="-0.22026">
        <ele>42</ele>
        <time>2015-02-16T16:21:16Z</time>
      </trkpt>
      <trkpt lat="44.57738" lon="-0.22016">
        <ele>42</ele>
        <time>2015-02-16T16:21:25Z</time>
      </trkpt>
      <trkpt lat="44.57733" lon="-0.22004">
        <ele>45</ele>
        <time>2015-02-16T16:21:34Z</time>
      </trkpt>
      <trkpt lat="44.57729" lon="-0.21992">
        <ele>47</ele>
        <time>2015-02-16T16:21:42Z</time>
      </trkpt>
      <trkpt lat="44.57725" lon="-0.2198">
        <ele>50</ele>
        <time>2015-02-16T16:21:50Z</time>
      </trkpt>
      <trkpt lat="44.5772" lon="-0.21967">
        <ele>45</ele>
        <time>2015-02-16T16:22:12Z</time>
      </trkpt>
      <trkpt lat="44.57715" lon="-0.21954">
        <ele>43</ele>
        <time>2015-02-16T16:22:20Z</time>
      </trkpt>
      <trkpt lat="44.57712" lon="-0.21942">
        <ele>43</ele>
        <time>2015-02-16T16:22:27Z</time>
      </trkpt>
      <trkpt lat="44.57706" lon="-0.21931">
        <ele>43</ele>
        <time>2015-02-16T16:22:36Z</time>
      </trkpt>
      <trkpt lat="44.57702" lon="-0.21918">
        <ele>42</ele>
        <time>2015-02-16T16:22:45Z</time>
      </trkpt>
      <trkpt lat="44.57697" lon="-0.21906">
        <ele>46</ele>
        <time>2015-02-16T16:22:53Z</time>
      </trkpt>
      <trkpt lat="44.57691" lon="-0.21895">
        <ele>40</ele>
        <time>2015-02-16T16:23:02Z</time>
      </trkpt>
      <trkpt lat="44.57686" lon="-0.21885">
        <ele>38</ele>
        <time>2015-02-16T16:23:08Z</time>
      </trkpt>
      <trkpt lat="44.57681" lon="-0.21873">
        <ele>41</ele>
        <time>2015-02-16T16:23:18Z</time>
      </trkpt>
      <trkpt lat="44.57674" lon="-0.21866">
        <ele>39</ele>
        <time>2015-02-16T16:23:31Z</time>
      </trkpt>
      <trkpt lat="44.57666" lon="-0.21874">
        <ele>41</ele>
        <time>2015-02-16T16:23:45Z</time>
      </trkpt>
      <trkpt lat="44.57659" lon="-0.21883">
        <ele>41</ele>
        <time>2015-02-16T16:23:54Z</time>
      </trkpt>
      <trkpt lat="44.57652" lon="-0.21891">
        <ele>40</ele>
        <time>2015-02-16T16:24:03Z</time>
      </trkpt>
      <trkpt lat="44.57644" lon="-0.21899">
        <ele>41</ele>
        <time>2015-02-16T16:24:14Z</time>
      </trkpt>
      <trkpt lat="44.57638" lon="-0.21908">
        <ele>43</ele>
        <time>2015-02-16T16:24:26Z</time>
      </trkpt>
      <trkpt lat="44.5763" lon="-0.21916">
        <ele>42</ele>
        <time>2015-02-16T16:24:37Z</time>
      </trkpt>
      <trkpt lat="44.57626" lon="-0.21919">
        <ele>40</ele>
        <time>2015-02-16T16:25:07Z</time>
      </trkpt>
      <trkpt lat="44.57622" lon="-0.21915">
        <ele>39</ele>
        <time>2015-02-16T16:25:30Z</time>
      </trkpt>
      <trkpt lat="44.57613" lon="-0.21911">
        <ele>38</ele>
        <time>2015-02-16T16:25:37Z</time>
      </trkpt>
      <trkpt lat="44.57604" lon="-0.21906">
        <ele>36</ele>
        <time>2015-02-16T16:25:45Z</time>
      </trkpt>
      <trkpt lat="44.57601" lon="-0.21894">
        <ele>34</ele>
        <time>2015-02-16T16:25:54Z</time>
      </trkpt>
      <trkpt lat="44.57592" lon="-0.21869">
        <ele>38</ele>
        <time>2015-02-16T16:26:15Z</time>
      </trkpt>
      <trkpt lat="44.57583" lon="-0.21867">
        <ele>35</ele>
        <time>2015-02-16T16:26:26Z</time>
      </trkpt>
      <trkpt lat="44.57574" lon="-0.2187">
        <ele>36</ele>
        <time>2015-02-16T16:26:35Z</time>
      </trkpt>
      <trkpt lat="44.57564" lon="-0.21872">
        <ele>39</ele>
        <time>2015-02-16T16:26:44Z</time>
      </trkpt>
      <trkpt lat="44.57555" lon="-0.2187">
        <ele>36</ele>
        <time>2015-02-16T16:26:52Z</time>
      </trkpt>
      <trkpt lat="44.57547" lon="-0.21865">
        <ele>38</ele>
        <time>2015-02-16T16:27:00Z</time>
      </trkpt>
      <trkpt lat="44.57541" lon="-0.21855">
        <ele>29</ele>
        <time>2015-02-16T16:27:13Z</time>
      </trkpt>
      <trkpt lat="44.57536" lon="-0.21843">
        <ele>31</ele>
        <time>2015-02-16T16:27:24Z</time>
      </trkpt>
      <trkpt lat="44.57528" lon="-0.21835">
        <ele>28</ele>
        <time>2015-02-16T16:27:36Z</time>
      </trkpt>
      <trkpt lat="44.57526" lon="-0.21822">
        <ele>31</ele>
        <time>2015-02-16T16:28:02Z</time>
      </trkpt>
      <trkpt lat="44.57525" lon="-0.21808">
        <ele>32</ele>
        <time>2015-02-16T16:28:11Z</time>
      </trkpt>
      <trkpt lat="44.57524" lon="-0.21794">
        <ele>32</ele>
        <time>2015-02-16T16:28:22Z</time>
      </trkpt>
      <trkpt lat="44.57523" lon="-0.21781">
        <ele>33</ele>
        <time>2015-02-16T16:28:31Z</time>
      </trkpt>
      <trkpt lat="44.57524" lon="-0.2177">
        <ele>31</ele>
        <time>2015-02-16T16:29:01Z</time>
      </trkpt>
      <trkpt lat="44.57523" lon="-0.21754">
        <ele>31</ele>
        <time>2015-02-16T16:29:22Z</time>
      </trkpt>
      <trkpt lat="44.57523" lon="-0.21741">
        <ele>30</ele>
        <time>2015-02-16T16:29:36Z</time>
      </trkpt>
      <trkpt lat="44.57521" lon="-0.21727">
        <ele>30</ele>
        <time>2015-02-16T16:29:45Z</time>
      </trkpt>
      <trkpt lat="44.57513" lon="-0.21721">
        <ele>31</ele>
        <time>2015-02-16T16:29:54Z</time>
      </trkpt>
      <trkpt lat="44.57504" lon="-0.21725">
        <ele>30</ele>
        <time>2015-02-16T16:30:04Z</time>
      </trkpt>
      <trkpt lat="44.57486" lon="-0.21728">
        <ele>28</ele>
        <time>2015-02-16T16:30:24Z</time>
      </trkpt>
      <trkpt lat="44.57476" lon="-0.21729">
        <ele>27</ele>
        <time>2015-02-16T16:30:33Z</time>
      </trkpt>
      <trkpt lat="44.57467" lon="-0.2173">
        <ele>29</ele>
        <time>2015-02-16T16:30:41Z</time>
      </trkpt>
      <trkpt lat="44.57457" lon="-0.21731">
        <ele>30</ele>
        <time>2015-02-16T16:30:49Z</time>
      </trkpt>
      <trkpt lat="44.57447" lon="-0.21731">
        <ele>30</ele>
        <time>2015-02-16T16:30:57Z</time>
      </trkpt>
      <trkpt lat="44.57438" lon="-0.21733">
        <ele>28</ele>
        <time>2015-02-16T16:31:05Z</time>
      </trkpt>
      <trkpt lat="44.57428" lon="-0.21734">
        <ele>27</ele>
        <time>2015-02-16T16:31:13Z</time>
      </trkpt>
      <trkpt lat="44.57419" lon="-0.21735">
        <ele>28</ele>
        <time>2015-02-16T16:31:37Z</time>
      </trkpt>
      <trkpt lat="44.57409" lon="-0.21736">
        <ele>26</ele>
        <time>2015-02-16T16:31:46Z</time>
      </trkpt>
      <trkpt lat="44.574" lon="-0.21738">
        <ele>26</ele>
        <time>2015-02-16T16:31:59Z</time>
      </trkpt>
      <trkpt lat="44.5739" lon="-0.21739">
        <ele>27</ele>
        <time>2015-02-16T16:32:07Z</time>
      </trkpt>
      <trkpt lat="44.5738" lon="-0.2174">
        <ele>27</ele>
        <time>2015-02-16T16:32:15Z</time>
      </trkpt>
      <trkpt lat="44.57371" lon="-0.21741">
        <ele>26</ele>
        <time>2015-02-16T16:32:24Z</time>
      </trkpt>
      <trkpt lat="44.57361" lon="-0.21744">
        <ele>26</ele>
        <time>2015-02-16T16:32:33Z</time>
      </trkpt>
      <trkpt lat="44.57352" lon="-0.21746">
        <ele>24</ele>
        <time>2015-02-16T16:32:40Z</time>
      </trkpt>
      <trkpt lat="44.57343" lon="-0.21748">
        <ele>25</ele>
        <time>2015-02-16T16:32:47Z</time>
      </trkpt>
      <trkpt lat="44.57334" lon="-0.2175">
        <ele>26</ele>
        <time>2015-02-16T16:32:54Z</time>
      </trkpt>
      <trkpt lat="44.57324" lon="-0.21752">
        <ele>26</ele>
        <time>2015-02-16T16:33:02Z</time>
      </trkpt>
      <trkpt lat="44.57314" lon="-0.21755">
        <ele>25</ele>
        <time>2015-02-16T16:33:11Z</time>
      </trkpt>
      <trkpt lat="44.57306" lon="-0.21758">
        <ele>25</ele>
        <time>2015-02-16T16:33:18Z</time>
      </trkpt>
      <trkpt lat="44.57296" lon="-0.21761">
        <ele>26</ele>
        <time>2015-02-16T16:33:26Z</time>
      </trkpt>
      <trkpt lat="44.57287" lon="-0.21763">
        <ele>25</ele>
        <time>2015-02-16T16:33:34Z</time>
      </trkpt>
      <trkpt lat="44.57277" lon="-0.21763">
        <ele>25</ele>
        <time>2015-02-16T16:33:42Z</time>
      </trkpt>
      <trkpt lat="44.57268" lon="-0.21764">
        <ele>24</ele>
        <time>2015-02-16T16:33:50Z</time>
      </trkpt>
      <trkpt lat="44.57258" lon="-0.21765">
        <ele>24</ele>
        <time>2015-02-16T16:33:59Z</time>
      </trkpt>
      <trkpt lat="44.57248" lon="-0.21767">
        <ele>21</ele>
        <time>2015-02-16T16:34:24Z</time>
      </trkpt>
      <trkpt lat="44.57229" lon="-0.21771">
        <ele>21</ele>
        <time>2015-02-16T16:34:38Z</time>
      </trkpt>
      <trkpt lat="44.57219" lon="-0.21774">
        <ele>20</ele>
        <time>2015-02-16T16:34:44Z</time>
      </trkpt>
      <trkpt lat="44.57209" lon="-0.21776">
        <ele>19</ele>
        <time>2015-02-16T16:34:51Z</time>
      </trkpt>
      <trkpt lat="44.57202" lon="-0.21768">
        <ele>21</ele>
        <time>2015-02-16T16:34:59Z</time>
      </trkpt>
      <trkpt lat="44.57202" lon="-0.21754">
        <ele>20</ele>
        <time>2015-02-16T16:35:06Z</time>
      </trkpt>
      <trkpt lat="44.57202" lon="-0.21741">
        <ele>20</ele>
        <time>2015-02-16T16:35:14Z</time>
      </trkpt>
      <trkpt lat="44.57202" lon="-0.21727">
        <ele>21</ele>
        <time>2015-02-16T16:35:21Z</time>
      </trkpt>
      <trkpt lat="44.57202" lon="-0.21713">
        <ele>20</ele>
        <time>2015-02-16T16:35:28Z</time>
      </trkpt>
      <trkpt lat="44.57202" lon="-0.21699">
        <ele>22</ele>
        <time>2015-02-16T16:35:41Z</time>
      </trkpt>
      <trkpt lat="44.57203" lon="-0.21686">
        <ele>22</ele>
        <time>2015-02-16T16:35:48Z</time>
      </trkpt>
      <trkpt lat="44.57206" lon="-0.21672">
        <ele>21</ele>
        <time>2015-02-16T16:35:56Z</time>
      </trkpt>
      <trkpt lat="44.57208" lon="-0.21659">
        <ele>21</ele>
        <time>2015-02-16T16:36:04Z</time>
      </trkpt>
      <trkpt lat="44.5721" lon="-0.21646">
        <ele>20</ele>
        <time>2015-02-16T16:36:11Z</time>
      </trkpt>
      <trkpt lat="44.57212" lon="-0.21634">
        <ele>20</ele>
        <time>2015-02-16T16:36:18Z</time>
      </trkpt>
      <trkpt lat="44.57214" lon="-0.21621">
        <ele>21</ele>
        <time>2015-02-16T16:36:26Z</time>
      </trkpt>
      <trkpt lat="44.57214" lon="-0.21608">
        <ele>20</ele>
        <time>2015-02-16T16:36:45Z</time>
      </trkpt>
      <trkpt lat="44.57215" lon="-0.21594">
        <ele>21</ele>
        <time>2015-02-16T16:36:55Z</time>
      </trkpt>
      <trkpt lat="44.57206" lon="-0.21591">
        <ele>21</ele>
        <time>2015-02-16T16:37:07Z</time>
      </trkpt>
      <trkpt lat="44.57197" lon="-0.21592">
        <ele>22</ele>
        <time>2015-02-16T16:37:15Z</time>
      </trkpt>
      <trkpt lat="44.5719" lon="-0.21583">
        <ele>22</ele>
        <time>2015-02-16T16:37:25Z</time>
      </trkpt>
      <trkpt lat="44.57181" lon="-0.2158">
        <ele>22</ele>
        <time>2015-02-16T16:37:33Z</time>
      </trkpt>
      <trkpt lat="44.57161" lon="-0.21581">
        <ele>22</ele>
        <time>2015-02-16T16:37:49Z</time>
      </trkpt>
      <trkpt lat="44.57152" lon="-0.21582">
        <ele>21</ele>
        <time>2015-02-16T16:37:56Z</time>
      </trkpt>
      <trkpt lat="44.57142" lon="-0.21583">
        <ele>22</ele>
        <time>2015-02-16T16:38:05Z</time>
      </trkpt>
      <trkpt lat="44.57132" lon="-0.21583">
        <ele>23</ele>
        <time>2015-02-16T16:38:14Z</time>
      </trkpt>
      <trkpt lat="44.57122" lon="-0.21585">
        <ele>24</ele>
        <time>2015-02-16T16:38:22Z</time>
      </trkpt>
      <trkpt lat="44.57113" lon="-0.21585">
        <ele>24</ele>
        <time>2015-02-16T16:38:31Z</time>
      </trkpt>
      <trkpt lat="44.57103" lon="-0.21587">
        <ele>24</ele>
        <time>2015-02-16T16:38:40Z</time>
      </trkpt>
      <trkpt lat="44.57094" lon="-0.21586">
        <ele>25</ele>
        <time>2015-02-16T16:38:48Z</time>
      </trkpt>
      <trkpt lat="44.57084" lon="-0.21585">
        <ele>25</ele>
        <time>2015-02-16T16:38:56Z</time>
      </trkpt>
      <trkpt lat="44.57074" lon="-0.21582">
        <ele>22</ele>
        <time>2015-02-16T16:39:05Z</time>
      </trkpt>
      <trkpt lat="44.57066" lon="-0.21575">
        <ele>20</ele>
        <time>2015-02-16T16:39:13Z</time>
      </trkpt>
      <trkpt lat="44.57057" lon="-0.21574">
        <ele>23</ele>
        <time>2015-02-16T16:39:18Z</time>
      </trkpt>
      <trkpt lat="44.5705" lon="-0.21583">
        <ele>24</ele>
        <time>2015-02-16T16:39:25Z</time>
      </trkpt>
      <trkpt lat="44.57041" lon="-0.21588">
        <ele>23</ele>
        <time>2015-02-16T16:39:32Z</time>
      </trkpt>
      <trkpt lat="44.57032" lon="-0.21587">
        <ele>22</ele>
        <time>2015-02-16T16:39:39Z</time>
      </trkpt>
      <trkpt lat="44.57023" lon="-0.2159">
        <ele>21</ele>
        <time>2015-02-16T16:39:46Z</time>
      </trkpt>
      <trkpt lat="44.57016" lon="-0.21598">
        <ele>22</ele>
        <time>2015-02-16T16:39:53Z</time>
      </trkpt>
      <trkpt lat="44.57007" lon="-0.21605">
        <ele>20</ele>
        <time>2015-02-16T16:40:01Z</time>
      </trkpt>
      <trkpt lat="44.57001" lon="-0.21614">
        <ele>16</ele>
        <time>2015-02-16T16:40:10Z</time>
      </trkpt>
      <trkpt lat="44.56999" lon="-0.21622">
        <ele>18</ele>
        <time>2015-02-16T16:40:40Z</time>
      </trkpt>
      <trkpt lat="44.56999" lon="-0.21626">
        <ele>19</ele>
        <time>2015-02-16T16:40:43Z</time>
      </trkpt>
      <trkpt lat="44.56998" lon="-0.2164">
        <ele>22</ele>
        <time>2015-02-16T16:40:49Z</time>
      </trkpt>
      <trkpt lat="44.56995" lon="-0.21654">
        <ele>22</ele>
        <time>2015-02-16T16:40:55Z</time>
      </trkpt>
      <trkpt lat="44.56994" lon="-0.21668">
        <ele>22</ele>
        <time>2015-02-16T16:41:01Z</time>
      </trkpt>
      <trkpt lat="44.56996" lon="-0.21681">
        <ele>26</ele>
        <time>2015-02-16T16:41:09Z</time>
      </trkpt>
      <trkpt lat="44.56991" lon="-0.21693">
        <ele>25</ele>
        <time>2015-02-16T16:41:17Z</time>
      </trkpt>
      <trkpt lat="44.56986" lon="-0.21706">
        <ele>25</ele>
        <time>2015-02-16T16:41:24Z</time>
      </trkpt>
      <trkpt lat="44.56982" lon="-0.21718">
        <ele>23</ele>
        <time>2015-02-16T16:41:31Z</time>
      </trkpt>
      <trkpt lat="44.56978" lon="-0.21729">
        <ele>21</ele>
        <time>2015-02-16T16:41:39Z</time>
      </trkpt>
      <trkpt lat="44.56976" lon="-0.21741">
        <ele>19</ele>
        <time>2015-02-16T16:41:48Z</time>
      </trkpt>
      <trkpt lat="44.56972" lon="-0.21754">
        <ele>20</ele>
        <time>2015-02-16T16:42:18Z</time>
      </trkpt>
      <trkpt lat="44.5697" lon="-0.21767">
        <ele>21</ele>
        <time>2015-02-16T16:42:26Z</time>
      </trkpt>
      <trkpt lat="44.56969" lon="-0.21781">
        <ele>21</ele>
        <time>2015-02-16T16:42:35Z</time>
      </trkpt>
      <trkpt lat="44.56969" lon="-0.21794">
        <ele>22</ele>
        <time>2015-02-16T16:42:43Z</time>
      </trkpt>
      <trkpt lat="44.56967" lon="-0.21808">
        <ele>21</ele>
        <time>2015-02-16T16:42:51Z</time>
      </trkpt>
      <trkpt lat="44.56967" lon="-0.21821">
        <ele>23</ele>
        <time>2015-02-16T16:42:58Z</time>
      </trkpt>
      <trkpt lat="44.56965" lon="-0.21834">
        <ele>23</ele>
        <time>2015-02-16T16:43:05Z</time>
      </trkpt>
      <trkpt lat="44.56963" lon="-0.21848">
        <ele>26</ele>
        <time>2015-02-16T16:43:12Z</time>
      </trkpt>
      <trkpt lat="44.56961" lon="-0.21861">
        <ele>25</ele>
        <time>2015-02-16T16:43:20Z</time>
      </trkpt>
      <trkpt lat="44.56959" lon="-0.21874">
        <ele>24</ele>
        <time>2015-02-16T16:43:28Z</time>
      </trkpt>
      <trkpt lat="44.56959" lon="-0.21888">
        <ele>21</ele>
        <time>2015-02-16T16:43:37Z</time>
      </trkpt>
      <trkpt lat="44.56957" lon="-0.21901">
        <ele>21</ele>
        <time>2015-02-16T16:43:45Z</time>
      </trkpt>
      <trkpt lat="44.56954" lon="-0.21914">
        <ele>17</ele>
        <time>2015-02-16T16:43:52Z</time>
      </trkpt>
      <trkpt lat="44.56949" lon="-0.21926">
        <ele>19</ele>
        <time>2015-02-16T16:43:59Z</time>
      </trkpt>
      <trkpt lat="44.56944" lon="-0.21937">
        <ele>19</ele>
        <time>2015-02-16T16:44:06Z</time>
      </trkpt>
      <trkpt lat="44.56939" lon="-0.21949">
        <ele>17</ele>
        <time>2015-02-16T16:44:13Z</time>
      </trkpt>
      <trkpt lat="44.56933" lon="-0.21961">
        <ele>19</ele>
        <time>2015-02-16T16:44:20Z</time>
      </trkpt>
      <trkpt lat="44.56922" lon="-0.21982">
        <ele>19</ele>
        <time>2015-02-16T16:44:34Z</time>
      </trkpt>
      <trkpt lat="44.56911" lon="-0.22004">
        <ele>19</ele>
        <time>2015-02-16T16:44:48Z</time>
      </trkpt>
      <trkpt lat="44.56905" lon="-0.22018">
        <ele>17</ele>
        <time>2015-02-16T16:44:56Z</time>
      </trkpt>
      <trkpt lat="44.56901" lon="-0.2203">
        <ele>17</ele>
        <time>2015-02-16T16:45:04Z</time>
      </trkpt>
      <trkpt lat="44.56892" lon="-0.22054">
        <ele>17</ele>
        <time>2015-02-16T16:45:22Z</time>
      </trkpt>
      <trkpt lat="44.56887" lon="-0.22067">
        <ele>18</ele>
        <time>2015-02-16T16:45:30Z</time>
      </trkpt>
      <trkpt lat="44.56882" lon="-0.22079">
        <ele>17</ele>
        <time>2015-02-16T16:45:38Z</time>
      </trkpt>
      <trkpt lat="44.56879" lon="-0.22092">
        <ele>18</ele>
        <time>2015-02-16T16:45:46Z</time>
      </trkpt>
      <trkpt lat="44.56877" lon="-0.22105">
        <ele>17</ele>
        <time>2015-02-16T16:45:53Z</time>
      </trkpt>
      <trkpt lat="44.56873" lon="-0.22117">
        <ele>18</ele>
        <time>2015-02-16T16:46:00Z</time>
      </trkpt>
      <trkpt lat="44.56869" lon="-0.2213">
        <ele>18</ele>
        <time>2015-02-16T16:46:07Z</time>
      </trkpt>
      <trkpt lat="44.56865" lon="-0.22143">
        <ele>18</ele>
        <time>2015-02-16T16:46:14Z</time>
      </trkpt>
      <trkpt lat="44.56861" lon="-0.22154">
        <ele>19</ele>
        <time>2015-02-16T16:46:21Z</time>
      </trkpt>
      <trkpt lat="44.56858" lon="-0.22167">
        <ele>22</ele>
        <time>2015-02-16T16:46:29Z</time>
      </trkpt>
      <trkpt lat="44.56854" lon="-0.22179">
        <ele>22</ele>
        <time>2015-02-16T16:46:35Z</time>
      </trkpt>
      <trkpt lat="44.56849" lon="-0.22191">
        <ele>20</ele>
        <time>2015-02-16T16:46:42Z</time>
      </trkpt>
      <trkpt lat="44.56845" lon="-0.22204">
        <ele>21</ele>
        <time>2015-02-16T16:46:49Z</time>
      </trkpt>
      <trkpt lat="44.56841" lon="-0.22215">
        <ele>19</ele>
        <time>2015-02-16T16:46:57Z</time>
      </trkpt>
      <trkpt lat="44.56837" lon="-0.22227">
        <ele>20</ele>
        <time>2015-02-16T16:47:10Z</time>
      </trkpt>
      <trkpt lat="44.56834" lon="-0.2224">
        <ele>22</ele>
        <time>2015-02-16T16:47:16Z</time>
      </trkpt>
      <trkpt lat="44.56828" lon="-0.2225">
        <ele>24</ele>
        <time>2015-02-16T16:47:22Z</time>
      </trkpt>
      <trkpt lat="44.56819" lon="-0.22257">
        <ele>21</ele>
        <time>2015-02-16T16:47:28Z</time>
      </trkpt>
      <trkpt lat="44.56811" lon="-0.22261">
        <ele>23</ele>
        <time>2015-02-16T16:47:35Z</time>
      </trkpt>
      <trkpt lat="44.56802" lon="-0.22269">
        <ele>25</ele>
        <time>2015-02-16T16:47:44Z</time>
      </trkpt>
      <trkpt lat="44.56794" lon="-0.22275">
        <ele>21</ele>
        <time>2015-02-16T16:47:55Z</time>
      </trkpt>
      <trkpt lat="44.56787" lon="-0.22283">
        <ele>20</ele>
        <time>2015-02-16T16:48:03Z</time>
      </trkpt>
      <trkpt lat="44.56781" lon="-0.22293">
        <ele>20</ele>
        <time>2015-02-16T16:48:10Z</time>
      </trkpt>
      <trkpt lat="44.56773" lon="-0.22302">
        <ele>21</ele>
        <time>2015-02-16T16:48:17Z</time>
      </trkpt>
      <trkpt lat="44.56764" lon="-0.2231">
        <ele>19</ele>
        <time>2015-02-16T16:48:31Z</time>
      </trkpt>
      <trkpt lat="44.56756" lon="-0.22317">
        <ele>20</ele>
        <time>2015-02-16T16:48:36Z</time>
      </trkpt>
      <trkpt lat="44.56748" lon="-0.22324">
        <ele>18</ele>
        <time>2015-02-16T16:48:41Z</time>
      </trkpt>
      <trkpt lat="44.5674" lon="-0.22332">
        <ele>19</ele>
        <time>2015-02-16T16:48:48Z</time>
      </trkpt>
      <trkpt lat="44.56732" lon="-0.22339">
        <ele>20</ele>
        <time>2015-02-16T16:48:55Z</time>
      </trkpt>
      <trkpt lat="44.56726" lon="-0.22349">
        <ele>24</ele>
        <time>2015-02-16T16:49:03Z</time>
      </trkpt>
      <trkpt lat="44.56717" lon="-0.2235">
        <ele>20</ele>
        <time>2015-02-16T16:49:12Z</time>
      </trkpt>
      <trkpt lat="44.56707" lon="-0.22344">
        <ele>17</ele>
        <time>2015-02-16T16:49:19Z</time>
      </trkpt>
      <trkpt lat="44.56698" lon="-0.2234">
        <ele>16</ele>
        <time>2015-02-16T16:49:25Z</time>
      </trkpt>
      <trkpt lat="44.5669" lon="-0.22333">
        <ele>18</ele>
        <time>2015-02-16T16:49:31Z</time>
      </trkpt>
      <trkpt lat="44.56681" lon="-0.22335">
        <ele>23</ele>
        <time>2015-02-16T16:49:48Z</time>
      </trkpt>
      <trkpt lat="44.56671" lon="-0.22334">
        <ele>14</ele>
        <time>2015-02-16T16:49:55Z</time>
      </trkpt>
      <trkpt lat="44.56663" lon="-0.22326">
        <ele>15</ele>
        <time>2015-02-16T16:50:01Z</time>
      </trkpt>
      <trkpt lat="44.56663" lon="-0.22341">
        <ele>18</ele>
        <time>2015-02-16T16:50:14Z</time>
      </trkpt>
      <trkpt lat="44.56666" lon="-0.22358">
        <ele>18</ele>
        <time>2015-02-16T16:50:18Z</time>
      </trkpt>
      <trkpt lat="44.56656" lon="-0.22363">
        <ele>24</ele>
        <time>2015-02-16T16:50:27Z</time>
      </trkpt>
      <trkpt lat="44.56647" lon="-0.22365">
        <ele>18</ele>
        <time>2015-02-16T16:50:40Z</time>
      </trkpt>
      <trkpt lat="44.56642" lon="-0.22376">
        <ele>19</ele>
        <time>2015-02-16T16:50:45Z</time>
      </trkpt>
      <trkpt lat="44.5664" lon="-0.2239">
        <ele>17</ele>
        <time>2015-02-16T16:50:50Z</time>
      </trkpt>
      <trkpt lat="44.56636" lon="-0.22403">
        <ele>21</ele>
        <time>2015-02-16T16:50:55Z</time>
      </trkpt>
      <trkpt lat="44.56631" lon="-0.22415">
        <ele>24</ele>
        <time>2015-02-16T16:51:00Z</time>
      </trkpt>
      <trkpt lat="44.56626" lon="-0.22427">
        <ele>30</ele>
        <time>2015-02-16T16:51:06Z</time>
      </trkpt>
      <trkpt lat="44.56623" lon="-0.22439">
        <ele>24</ele>
        <time>2015-02-16T16:51:13Z</time>
      </trkpt>
      <trkpt lat="44.56617" lon="-0.22449">
        <ele>26</ele>
        <time>2015-02-16T16:51:25Z</time>
      </trkpt>
      <trkpt lat="44.56613" lon="-0.22462">
        <ele>27</ele>
        <time>2015-02-16T16:51:30Z</time>
      </trkpt>
      <trkpt lat="44.56609" lon="-0.22475">
        <ele>30</ele>
        <time>2015-02-16T16:51:36Z</time>
      </trkpt>
      <trkpt lat="44.56601" lon="-0.2248">
        <ele>27</ele>
        <time>2015-02-16T16:51:43Z</time>
      </trkpt>
      <trkpt lat="44.56595" lon="-0.22491">
        <ele>35</ele>
        <time>2015-02-16T16:51:50Z</time>
      </trkpt>
      <trkpt lat="44.56587" lon="-0.22497">
        <ele>28</ele>
        <time>2015-02-16T16:51:59Z</time>
      </trkpt>
      <trkpt lat="44.56578" lon="-0.22499">
        <ele>28</ele>
        <time>2015-02-16T16:52:09Z</time>
      </trkpt>
      <trkpt lat="44.56569" lon="-0.22505">
        <ele>22</ele>
        <time>2015-02-16T16:52:30Z</time>
      </trkpt>
      <trkpt lat="44.56562" lon="-0.22514">
        <ele>18</ele>
        <time>2015-02-16T16:52:36Z</time>
      </trkpt>
      <trkpt lat="44.56554" lon="-0.22522">
        <ele>22</ele>
        <time>2015-02-16T16:52:40Z</time>
      </trkpt>
      <trkpt lat="44.56547" lon="-0.22532">
        <ele>22</ele>
        <time>2015-02-16T16:52:45Z</time>
      </trkpt>
      <trkpt lat="44.56542" lon="-0.22543">
        <ele>22</ele>
        <time>2015-02-16T16:52:53Z</time>
      </trkpt>
      <trkpt lat="44.56533" lon="-0.2255">
        <ele>27</ele>
        <time>2015-02-16T16:53:03Z</time>
      </trkpt>
      <trkpt lat="44.56528" lon="-0.22562">
        <ele>29</ele>
        <time>2015-02-16T16:53:10Z</time>
      </trkpt>
      <trkpt lat="44.56522" lon="-0.22573">
        <ele>32</ele>
        <time>2015-02-16T16:53:18Z</time>
      </trkpt>
      <trkpt lat="44.56514" lon="-0.22583">
        <ele>33</ele>
        <time>2015-02-16T16:53:24Z</time>
      </trkpt>
      <trkpt lat="44.56508" lon="-0.22593">
        <ele>26</ele>
        <time>2015-02-16T16:53:38Z</time>
      </trkpt>
      <trkpt lat="44.56501" lon="-0.22603">
        <ele>29</ele>
        <time>2015-02-16T16:53:46Z</time>
      </trkpt>
      <trkpt lat="44.56493" lon="-0.22597">
        <ele>34</ele>
        <time>2015-02-16T16:53:54Z</time>
      </trkpt>
      <trkpt lat="44.56484" lon="-0.22591">
        <ele>37</ele>
        <time>2015-02-16T16:54:01Z</time>
      </trkpt>
      <trkpt lat="44.56477" lon="-0.22584">
        <ele>45</ele>
        <time>2015-02-16T16:54:08Z</time>
      </trkpt>
      <trkpt lat="44.5647" lon="-0.22573">
        <ele>38</ele>
        <time>2015-02-16T16:54:16Z</time>
      </trkpt>
      <trkpt lat="44.56466" lon="-0.22561">
        <ele>31</ele>
        <time>2015-02-16T16:54:24Z</time>
      </trkpt>
      <trkpt lat="44.56471" lon="-0.22549">
        <ele>29</ele>
        <time>2015-02-16T16:54:37Z</time>
      </trkpt>
      <trkpt lat="44.56476" lon="-0.22538">
        <ele>30</ele>
        <time>2015-02-16T16:54:44Z</time>
      </trkpt>
      <trkpt lat="44.5648" lon="-0.22526">
        <ele>32</ele>
        <time>2015-02-16T16:54:50Z</time>
      </trkpt>
      <trkpt lat="44.56484" lon="-0.22513">
        <ele>33</ele>
        <time>2015-02-16T16:54:56Z</time>
      </trkpt>
      <trkpt lat="44.56487" lon="-0.225">
        <ele>31</ele>
        <time>2015-02-16T16:55:02Z</time>
      </trkpt>
      <trkpt lat="44.56492" lon="-0.22488">
        <ele>30</ele>
        <time>2015-02-16T16:55:08Z</time>
      </trkpt>
      <trkpt lat="44.56497" lon="-0.22477">
        <ele>28</ele>
        <time>2015-02-16T16:55:15Z</time>
      </trkpt>
      <trkpt lat="44.56503" lon="-0.22466">
        <ele>29</ele>
        <time>2015-02-16T16:55:22Z</time>
      </trkpt>
      <trkpt lat="44.56508" lon="-0.22455">
        <ele>27</ele>
        <time>2015-02-16T16:55:34Z</time>
      </trkpt>
      <trkpt lat="44.56506" lon="-0.22441">
        <ele>27</ele>
        <time>2015-02-16T16:55:44Z</time>
      </trkpt>
      <trkpt lat="44.56507" lon="-0.22428">
        <ele>20</ele>
        <time>2015-02-16T16:55:52Z</time>
      </trkpt>
      <trkpt lat="44.56498" lon="-0.22421">
        <ele>21</ele>
        <time>2015-02-16T16:55:58Z</time>
      </trkpt>
      <trkpt lat="44.56496" lon="-0.22414">
        <ele>24</ele>
        <time>2015-02-16T16:56:28Z</time>
      </trkpt>
      <trkpt lat="44.56496" lon="-0.22419">
        <ele>25</ele>
        <time>2015-02-16T16:56:55Z</time>
      </trkpt>
      <trkpt lat="44.56498" lon="-0.22432">
        <ele>25</ele>
        <time>2015-02-16T16:57:04Z</time>
      </trkpt>
      <trkpt lat="44.56507" lon="-0.22437">
        <ele>24</ele>
        <time>2015-02-16T16:57:19Z</time>
      </trkpt>
      <trkpt lat="44.56518" lon="-0.22439">
        <ele>25</ele>
        <time>2015-02-16T16:57:24Z</time>
      </trkpt>
      <trkpt lat="44.56527" lon="-0.22444">
        <ele>24</ele>
        <time>2015-02-16T16:57:30Z</time>
      </trkpt>
      <trkpt lat="44.56532" lon="-0.22433">
        <ele>23</ele>
        <time>2015-02-16T16:57:40Z</time>
      </trkpt>
      <trkpt lat="44.56536" lon="-0.22419">
        <ele>25</ele>
        <time>2015-02-16T16:57:47Z</time>
      </trkpt>
      <trkpt lat="44.56539" lon="-0.22407">
        <ele>21</ele>
        <time>2015-02-16T16:58:01Z</time>
      </trkpt>
      <trkpt lat="44.56544" lon="-0.22396">
        <ele>21</ele>
        <time>2015-02-16T16:58:10Z</time>
      </trkpt>
      <trkpt lat="44.56548" lon="-0.22384">
        <ele>21</ele>
        <time>2015-02-16T16:58:18Z</time>
      </trkpt>
      <trkpt lat="44.5655" lon="-0.22371">
        <ele>20</ele>
        <time>2015-02-16T16:58:27Z</time>
      </trkpt>
      <trkpt lat="44.56553" lon="-0.22357">
        <ele>19</ele>
        <time>2015-02-16T16:58:36Z</time>
      </trkpt>
      <trkpt lat="44.56559" lon="-0.22346">
        <ele>16</ele>
        <time>2015-02-16T16:58:45Z</time>
      </trkpt>
      <trkpt lat="44.56562" lon="-0.22333">
        <ele>18</ele>
        <time>2015-02-16T16:58:52Z</time>
      </trkpt>
      <trkpt lat="44.56566" lon="-0.2232">
        <ele>17</ele>
        <time>2015-02-16T16:58:59Z</time>
      </trkpt>
      <trkpt lat="44.56562" lon="-0.22308">
        <ele>17</ele>
        <time>2015-02-16T16:59:12Z</time>
      </trkpt>
      <trkpt lat="44.56553" lon="-0.22312">
        <ele>17</ele>
        <time>2015-02-16T16:59:19Z</time>
      </trkpt>
      <trkpt lat="44.56545" lon="-0.22318">
        <ele>20</ele>
        <time>2015-02-16T16:59:26Z</time>
      </trkpt>
      <trkpt lat="44.56536" lon="-0.22322">
        <ele>16</ele>
        <time>2015-02-16T16:59:34Z</time>
      </trkpt>
      <trkpt lat="44.56527" lon="-0.22322">
        <ele>17</ele>
        <time>2015-02-16T16:59:42Z</time>
      </trkpt>
      <trkpt lat="44.56518" lon="-0.22324">
        <ele>14</ele>
        <time>2015-02-16T16:59:54Z</time>
      </trkpt>
      <trkpt lat="44.5651" lon="-0.2233">
        <ele>14</ele>
        <time>2015-02-16T17:00:02Z</time>
      </trkpt>
      <trkpt lat="44.56505" lon="-0.22341">
        <ele>14</ele>
        <time>2015-02-16T17:00:20Z</time>
      </trkpt>
      <trkpt lat="44.56487" lon="-0.22342">
        <ele>11</ele>
        <time>2015-02-16T17:00:43Z</time>
      </trkpt>
      <trkpt lat="44.56478" lon="-0.22349">
        <ele>10</ele>
        <time>2015-02-16T17:00:51Z</time>
      </trkpt>
      <trkpt lat="44.5647" lon="-0.22343">
        <ele>9</ele>
        <time>2015-02-16T17:01:00Z</time>
      </trkpt>
      <trkpt lat="44.5646" lon="-0.22343">
        <ele>9</ele>
        <time>2015-02-16T17:01:10Z</time>
      </trkpt>
      <trkpt lat="44.56451" lon="-0.22346">
        <ele>12</ele>
        <time>2015-02-16T17:01:19Z</time>
      </trkpt>
      <trkpt lat="44.56443" lon="-0.22352">
        <ele>11</ele>
        <time>2015-02-16T17:01:28Z</time>
      </trkpt>
      <trkpt lat="44.56434" lon="-0.2236">
        <ele>13</ele>
        <time>2015-02-16T17:01:36Z</time>
      </trkpt>
      <trkpt lat="44.56429" lon="-0.2237">
        <ele>12</ele>
        <time>2015-02-16T17:01:43Z</time>
      </trkpt>
      <trkpt lat="44.56427" lon="-0.22384">
        <ele>12</ele>
        <time>2015-02-16T17:01:50Z</time>
      </trkpt>
      <trkpt lat="44.56423" lon="-0.22397">
        <ele>10</ele>
        <time>2015-02-16T17:01:57Z</time>
      </trkpt>
      <trkpt lat="44.56411" lon="-0.22417">
        <ele>7</ele>
        <time>2015-02-16T17:02:11Z</time>
      </trkpt>
      <trkpt lat="44.56403" lon="-0.22428">
        <ele>14</ele>
        <time>2015-02-16T17:02:19Z</time>
      </trkpt>
      <trkpt lat="44.56395" lon="-0.22451">
        <ele>11</ele>
        <time>2015-02-16T17:02:34Z</time>
      </trkpt>
      <trkpt lat="44.56389" lon="-0.22462">
        <ele>10</ele>
        <time>2015-02-16T17:02:42Z</time>
      </trkpt>
      <trkpt lat="44.5638" lon="-0.22463">
        <ele>14</ele>
        <time>2015-02-16T17:02:51Z</time>
      </trkpt>
      <trkpt lat="44.56371" lon="-0.22459">
        <ele>12</ele>
        <time>2015-02-16T17:02:59Z</time>
      </trkpt>
    </trkseg>
  </trk>
</gpx>